<?xml version="1.0" encoding="UTF-8" standalone="no" ?>
<gpx xmlns="http://www.topografix.com/GPX/1/1" xmlns:xsi="http://www.w3.org/2001/XMLSchema-instance" xsi:schemaLocation="http://www.topografix.com/GPX/1/1 http://www.topografix.com/GPX/1/1/gpx.xsd" version="1.1" creator="VisuGPX - https://www.visugpx.com">
  <metadata>
    <name>Les Gardioles Roux d'Abries</name>
    <desc><![CDATA[Sortie CAF-RSF]]></desc>
  </metadata>
  <trk>
    <name><![CDATA[Les Gardioles Roux d'Abries_1]]></name>
    <trkseg>
      <trkpt lat="44.82247" lon="6.94266">
        <ele>1802.4</ele>
        <time>2021-02-16T08:35:49Z</time>
      </trkpt>
      <trkpt lat="44.82245" lon="6.94244">
        <ele>1802.4</ele>
        <time>2021-02-16T08:35:54Z</time>
      </trkpt>
      <trkpt lat="44.82246" lon="6.94263">
        <ele>1802.4</ele>
        <time>2021-02-16T08:35:55Z</time>
      </trkpt>
      <trkpt lat="44.82249" lon="6.94263">
        <ele>1803</ele>
        <time>2021-02-16T08:36:08Z</time>
      </trkpt>
      <trkpt lat="44.82245" lon="6.94262">
        <ele>1804.6</ele>
        <time>2021-02-16T08:36:09Z</time>
      </trkpt>
      <trkpt lat="44.82254" lon="6.94262">
        <ele>1803.2</ele>
        <time>2021-02-16T08:36:10Z</time>
      </trkpt>
      <trkpt lat="44.82259" lon="6.94261">
        <ele>1803.8</ele>
        <time>2021-02-16T08:36:22Z</time>
      </trkpt>
      <trkpt lat="44.82255" lon="6.94264">
        <ele>1803.8</ele>
        <time>2021-02-16T08:36:42Z</time>
      </trkpt>
      <trkpt lat="44.82267" lon="6.94261">
        <ele>1803.8</ele>
        <time>2021-02-16T08:36:44Z</time>
      </trkpt>
      <trkpt lat="44.82265" lon="6.94266">
        <ele>1806</ele>
        <time>2021-02-16T08:36:45Z</time>
      </trkpt>
      <trkpt lat="44.82257" lon="6.94255">
        <ele>1804.6</ele>
        <time>2021-02-16T08:36:46Z</time>
      </trkpt>
      <trkpt lat="44.82261" lon="6.94252">
        <ele>1806</ele>
        <time>2021-02-16T08:36:49Z</time>
      </trkpt>
      <trkpt lat="44.82265" lon="6.94256">
        <ele>1807.2</ele>
        <time>2021-02-16T08:36:51Z</time>
      </trkpt>
      <trkpt lat="44.82263" lon="6.94262">
        <ele>1807.2</ele>
        <time>2021-02-16T08:36:54Z</time>
      </trkpt>
      <trkpt lat="44.82261" lon="6.94255">
        <ele>1807.2</ele>
        <time>2021-02-16T08:36:57Z</time>
      </trkpt>
      <trkpt lat="44.8226" lon="6.94249">
        <ele>1807.2</ele>
        <time>2021-02-16T08:36:58Z</time>
      </trkpt>
      <trkpt lat="44.82261" lon="6.94266">
        <ele>1807.2</ele>
        <time>2021-02-16T08:36:59Z</time>
      </trkpt>
      <trkpt lat="44.82261" lon="6.94256">
        <ele>1807.2</ele>
        <time>2021-02-16T08:37:00Z</time>
      </trkpt>
      <trkpt lat="44.8226" lon="6.94227">
        <ele>1807.2</ele>
        <time>2021-02-16T08:37:02Z</time>
      </trkpt>
      <trkpt lat="44.8226" lon="6.94245">
        <ele>1807.2</ele>
        <time>2021-02-16T08:37:03Z</time>
      </trkpt>
      <trkpt lat="44.82259" lon="6.94237">
        <ele>1806.2</ele>
        <time>2021-02-16T08:37:05Z</time>
      </trkpt>
      <trkpt lat="44.8226" lon="6.94261">
        <ele>1806.2</ele>
        <time>2021-02-16T08:37:07Z</time>
      </trkpt>
      <trkpt lat="44.82259" lon="6.94254">
        <ele>1806.2</ele>
        <time>2021-02-16T08:37:15Z</time>
      </trkpt>
      <trkpt lat="44.8226" lon="6.94263">
        <ele>1806.2</ele>
        <time>2021-02-16T08:37:22Z</time>
      </trkpt>
      <trkpt lat="44.82258" lon="6.94245">
        <ele>1806.2</ele>
        <time>2021-02-16T08:37:25Z</time>
      </trkpt>
      <trkpt lat="44.82257" lon="6.94229">
        <ele>1806.2</ele>
        <time>2021-02-16T08:37:26Z</time>
      </trkpt>
      <trkpt lat="44.82257" lon="6.94243">
        <ele>1806.2</ele>
        <time>2021-02-16T08:37:28Z</time>
      </trkpt>
      <trkpt lat="44.82258" lon="6.94256">
        <ele>1806.2</ele>
        <time>2021-02-16T08:37:31Z</time>
      </trkpt>
      <trkpt lat="44.82257" lon="6.94246">
        <ele>1806.2</ele>
        <time>2021-02-16T08:37:33Z</time>
      </trkpt>
      <trkpt lat="44.82258" lon="6.94254">
        <ele>1806.2</ele>
        <time>2021-02-16T08:37:35Z</time>
      </trkpt>
      <trkpt lat="44.82259" lon="6.94263">
        <ele>1806.2</ele>
        <time>2021-02-16T08:37:36Z</time>
      </trkpt>
      <trkpt lat="44.82259" lon="6.9427">
        <ele>1806.2</ele>
        <time>2021-02-16T08:37:37Z</time>
      </trkpt>
      <trkpt lat="44.82259" lon="6.94262">
        <ele>1806.2</ele>
        <time>2021-02-16T08:37:38Z</time>
      </trkpt>
      <trkpt lat="44.82258" lon="6.94255">
        <ele>1806.2</ele>
        <time>2021-02-16T08:37:41Z</time>
      </trkpt>
      <trkpt lat="44.82258" lon="6.94263">
        <ele>1806.2</ele>
        <time>2021-02-16T08:37:43Z</time>
      </trkpt>
      <trkpt lat="44.82258" lon="6.94256">
        <ele>1806.2</ele>
        <time>2021-02-16T08:37:44Z</time>
      </trkpt>
      <trkpt lat="44.82266" lon="6.94265">
        <ele>1806.2</ele>
        <time>2021-02-16T08:37:46Z</time>
      </trkpt>
      <trkpt lat="44.8226" lon="6.9427">
        <ele>1806.2</ele>
        <time>2021-02-16T08:37:51Z</time>
      </trkpt>
      <trkpt lat="44.82259" lon="6.94271">
        <ele>1795.6</ele>
        <time>2021-02-16T08:37:58Z</time>
      </trkpt>
      <trkpt lat="44.8226" lon="6.94271">
        <ele>1788</ele>
        <time>2021-02-16T08:38:03Z</time>
      </trkpt>
      <trkpt lat="44.82261" lon="6.94271">
        <ele>1783</ele>
        <time>2021-02-16T08:38:08Z</time>
      </trkpt>
      <trkpt lat="44.82261" lon="6.94271">
        <ele>1777.4</ele>
        <time>2021-02-16T08:38:18Z</time>
      </trkpt>
      <trkpt lat="44.82261" lon="6.94271">
        <ele>1772.6</ele>
        <time>2021-02-16T08:38:48Z</time>
      </trkpt>
      <trkpt lat="44.82259" lon="6.94277">
        <ele>1773.6</ele>
        <time>2021-02-16T08:42:33Z</time>
      </trkpt>
      <trkpt lat="44.82257" lon="6.94283">
        <ele>1774</ele>
        <time>2021-02-16T08:42:40Z</time>
      </trkpt>
      <trkpt lat="44.82254" lon="6.94288">
        <ele>1771.2</ele>
        <time>2021-02-16T08:42:45Z</time>
      </trkpt>
      <trkpt lat="44.82252" lon="6.94292">
        <ele>1775</ele>
        <time>2021-02-16T08:42:50Z</time>
      </trkpt>
      <trkpt lat="44.82251" lon="6.94299">
        <ele>1775.2</ele>
        <time>2021-02-16T08:43:06Z</time>
      </trkpt>
      <trkpt lat="44.8225" lon="6.94305">
        <ele>1776.4</ele>
        <time>2021-02-16T08:43:14Z</time>
      </trkpt>
      <trkpt lat="44.82254" lon="6.94302">
        <ele>1775</ele>
        <time>2021-02-16T08:43:42Z</time>
      </trkpt>
      <trkpt lat="44.82259" lon="6.94301">
        <ele>1776.8</ele>
        <time>2021-02-16T08:43:48Z</time>
      </trkpt>
      <trkpt lat="44.82262" lon="6.943">
        <ele>1773.8</ele>
        <time>2021-02-16T08:43:54Z</time>
      </trkpt>
      <trkpt lat="44.82263" lon="6.94299">
        <ele>1778.2</ele>
        <time>2021-02-16T08:43:57Z</time>
      </trkpt>
      <trkpt lat="44.82266" lon="6.94297">
        <ele>1771.8</ele>
        <time>2021-02-16T08:44:03Z</time>
      </trkpt>
      <trkpt lat="44.82268" lon="6.94296">
        <ele>1777.2</ele>
        <time>2021-02-16T08:44:07Z</time>
      </trkpt>
      <trkpt lat="44.82271" lon="6.94293">
        <ele>1775</ele>
        <time>2021-02-16T08:44:14Z</time>
      </trkpt>
      <trkpt lat="44.82275" lon="6.9429">
        <ele>1777.6</ele>
        <time>2021-02-16T08:44:21Z</time>
      </trkpt>
      <trkpt lat="44.82279" lon="6.94287">
        <ele>1780.4</ele>
        <time>2021-02-16T08:44:29Z</time>
      </trkpt>
      <trkpt lat="44.82282" lon="6.94285">
        <ele>1777.4</ele>
        <time>2021-02-16T08:44:36Z</time>
      </trkpt>
      <trkpt lat="44.82283" lon="6.94284">
        <ele>1782.6</ele>
        <time>2021-02-16T08:44:38Z</time>
      </trkpt>
      <trkpt lat="44.82284" lon="6.94284">
        <ele>1777.6</ele>
        <time>2021-02-16T08:44:40Z</time>
      </trkpt>
      <trkpt lat="44.82288" lon="6.94284">
        <ele>1781.2</ele>
        <time>2021-02-16T08:44:45Z</time>
      </trkpt>
      <trkpt lat="44.82292" lon="6.94285">
        <ele>1778.2</ele>
        <time>2021-02-16T08:44:53Z</time>
      </trkpt>
      <trkpt lat="44.82296" lon="6.94286">
        <ele>1782.8</ele>
        <time>2021-02-16T08:44:59Z</time>
      </trkpt>
      <trkpt lat="44.82298" lon="6.9429">
        <ele>1778.6</ele>
        <time>2021-02-16T08:45:04Z</time>
      </trkpt>
      <trkpt lat="44.82298" lon="6.94291">
        <ele>1785.2</ele>
        <time>2021-02-16T08:45:07Z</time>
      </trkpt>
      <trkpt lat="44.82298" lon="6.94297">
        <ele>1782.2</ele>
        <time>2021-02-16T08:45:13Z</time>
      </trkpt>
      <trkpt lat="44.82297" lon="6.943">
        <ele>1786.8</ele>
        <time>2021-02-16T08:45:17Z</time>
      </trkpt>
      <trkpt lat="44.82295" lon="6.94306">
        <ele>1787</ele>
        <time>2021-02-16T08:45:25Z</time>
      </trkpt>
      <trkpt lat="44.82294" lon="6.94311">
        <ele>1783.6</ele>
        <time>2021-02-16T08:45:32Z</time>
      </trkpt>
      <trkpt lat="44.82292" lon="6.94316">
        <ele>1786</ele>
        <time>2021-02-16T08:45:40Z</time>
      </trkpt>
      <trkpt lat="44.82292" lon="6.94321">
        <ele>1788.8</ele>
        <time>2021-02-16T08:45:46Z</time>
      </trkpt>
      <trkpt lat="44.82291" lon="6.94327">
        <ele>1789.8</ele>
        <time>2021-02-16T08:45:55Z</time>
      </trkpt>
      <trkpt lat="44.8229" lon="6.9433">
        <ele>1784</ele>
        <time>2021-02-16T08:45:59Z</time>
      </trkpt>
      <trkpt lat="44.82289" lon="6.94335">
        <ele>1785.4</ele>
        <time>2021-02-16T08:46:06Z</time>
      </trkpt>
      <trkpt lat="44.82291" lon="6.94335">
        <ele>1788.6</ele>
        <time>2021-02-16T08:46:21Z</time>
      </trkpt>
      <trkpt lat="44.82295" lon="6.94335">
        <ele>1792</ele>
        <time>2021-02-16T08:46:30Z</time>
      </trkpt>
      <trkpt lat="44.82299" lon="6.94335">
        <ele>1792.8</ele>
        <time>2021-02-16T08:46:46Z</time>
      </trkpt>
      <trkpt lat="44.82303" lon="6.94341">
        <ele>1793.6</ele>
        <time>2021-02-16T08:46:58Z</time>
      </trkpt>
      <trkpt lat="44.82304" lon="6.94345">
        <ele>1797.6</ele>
        <time>2021-02-16T08:47:05Z</time>
      </trkpt>
      <trkpt lat="44.82306" lon="6.9435">
        <ele>1796</ele>
        <time>2021-02-16T08:47:14Z</time>
      </trkpt>
      <trkpt lat="44.82309" lon="6.94355">
        <ele>1798.8</ele>
        <time>2021-02-16T08:47:21Z</time>
      </trkpt>
      <trkpt lat="44.82313" lon="6.94357">
        <ele>1800</ele>
        <time>2021-02-16T08:47:29Z</time>
      </trkpt>
      <trkpt lat="44.82318" lon="6.94357">
        <ele>1799.8</ele>
        <time>2021-02-16T08:47:36Z</time>
      </trkpt>
      <trkpt lat="44.82322" lon="6.94358">
        <ele>1804.2</ele>
        <time>2021-02-16T08:47:41Z</time>
      </trkpt>
      <trkpt lat="44.82327" lon="6.94361">
        <ele>1803.2</ele>
        <time>2021-02-16T08:47:48Z</time>
      </trkpt>
      <trkpt lat="44.82331" lon="6.94361">
        <ele>1802.6</ele>
        <time>2021-02-16T08:47:57Z</time>
      </trkpt>
      <trkpt lat="44.82336" lon="6.94362">
        <ele>1802.8</ele>
        <time>2021-02-16T08:48:07Z</time>
      </trkpt>
      <trkpt lat="44.82341" lon="6.94362">
        <ele>1805</ele>
        <time>2021-02-16T08:48:16Z</time>
      </trkpt>
      <trkpt lat="44.82345" lon="6.94362">
        <ele>1807.2</ele>
        <time>2021-02-16T08:48:23Z</time>
      </trkpt>
      <trkpt lat="44.82347" lon="6.94368">
        <ele>1810</ele>
        <time>2021-02-16T08:48:34Z</time>
      </trkpt>
      <trkpt lat="44.82346" lon="6.9437">
        <ele>1804.4</ele>
        <time>2021-02-16T08:48:37Z</time>
      </trkpt>
      <trkpt lat="44.82344" lon="6.94374">
        <ele>1808.2</ele>
        <time>2021-02-16T08:48:44Z</time>
      </trkpt>
      <trkpt lat="44.82343" lon="6.94377">
        <ele>1803.4</ele>
        <time>2021-02-16T08:48:48Z</time>
      </trkpt>
      <trkpt lat="44.82342" lon="6.9438">
        <ele>1808.2</ele>
        <time>2021-02-16T08:48:55Z</time>
      </trkpt>
      <trkpt lat="44.82341" lon="6.94386">
        <ele>1809</ele>
        <time>2021-02-16T08:49:03Z</time>
      </trkpt>
      <trkpt lat="44.82338" lon="6.94391">
        <ele>1811</ele>
        <time>2021-02-16T08:49:11Z</time>
      </trkpt>
      <trkpt lat="44.82337" lon="6.94396">
        <ele>1812.6</ele>
        <time>2021-02-16T08:49:20Z</time>
      </trkpt>
      <trkpt lat="44.82335" lon="6.94403">
        <ele>1813</ele>
        <time>2021-02-16T08:49:31Z</time>
      </trkpt>
      <trkpt lat="44.82339" lon="6.94408">
        <ele>1817</ele>
        <time>2021-02-16T08:49:43Z</time>
      </trkpt>
      <trkpt lat="44.82342" lon="6.9441">
        <ele>1818</ele>
        <time>2021-02-16T08:49:54Z</time>
      </trkpt>
      <trkpt lat="44.82348" lon="6.94411">
        <ele>1817.6</ele>
        <time>2021-02-16T08:50:05Z</time>
      </trkpt>
      <trkpt lat="44.8235" lon="6.94411">
        <ele>1821.4</ele>
        <time>2021-02-16T08:50:11Z</time>
      </trkpt>
      <trkpt lat="44.82352" lon="6.94417">
        <ele>1821.2</ele>
        <time>2021-02-16T08:50:26Z</time>
      </trkpt>
      <trkpt lat="44.82351" lon="6.94424">
        <ele>1822.8</ele>
        <time>2021-02-16T08:50:36Z</time>
      </trkpt>
      <trkpt lat="44.82349" lon="6.94428">
        <ele>1825.4</ele>
        <time>2021-02-16T08:50:42Z</time>
      </trkpt>
      <trkpt lat="44.82346" lon="6.94432">
        <ele>1823.4</ele>
        <time>2021-02-16T08:50:50Z</time>
      </trkpt>
      <trkpt lat="44.82343" lon="6.94437">
        <ele>1825</ele>
        <time>2021-02-16T08:50:59Z</time>
      </trkpt>
      <trkpt lat="44.8234" lon="6.94441">
        <ele>1822.8</ele>
        <time>2021-02-16T08:51:08Z</time>
      </trkpt>
      <trkpt lat="44.82337" lon="6.94445">
        <ele>1827.6</ele>
        <time>2021-02-16T08:51:16Z</time>
      </trkpt>
      <trkpt lat="44.82333" lon="6.94448">
        <ele>1826.4</ele>
        <time>2021-02-16T08:51:25Z</time>
      </trkpt>
      <trkpt lat="44.82332" lon="6.94451">
        <ele>1832.2</ele>
        <time>2021-02-16T08:51:31Z</time>
      </trkpt>
      <trkpt lat="44.82333" lon="6.94454">
        <ele>1836.6</ele>
        <time>2021-02-16T08:51:36Z</time>
      </trkpt>
      <trkpt lat="44.82336" lon="6.94457">
        <ele>1833</ele>
        <time>2021-02-16T08:51:42Z</time>
      </trkpt>
      <trkpt lat="44.82339" lon="6.9446">
        <ele>1837.2</ele>
        <time>2021-02-16T08:51:48Z</time>
      </trkpt>
      <trkpt lat="44.82343" lon="6.94462">
        <ele>1836.8</ele>
        <time>2021-02-16T08:51:56Z</time>
      </trkpt>
      <trkpt lat="44.82348" lon="6.94463">
        <ele>1834</ele>
        <time>2021-02-16T08:52:06Z</time>
      </trkpt>
      <trkpt lat="44.82351" lon="6.94464">
        <ele>1837.2</ele>
        <time>2021-02-16T08:52:14Z</time>
      </trkpt>
      <trkpt lat="44.82355" lon="6.94466">
        <ele>1838.4</ele>
        <time>2021-02-16T08:52:24Z</time>
      </trkpt>
      <trkpt lat="44.8236" lon="6.94467">
        <ele>1835</ele>
        <time>2021-02-16T08:52:33Z</time>
      </trkpt>
      <trkpt lat="44.82362" lon="6.94468">
        <ele>1838.6</ele>
        <time>2021-02-16T08:52:38Z</time>
      </trkpt>
      <trkpt lat="44.82363" lon="6.94473">
        <ele>1842</ele>
        <time>2021-02-16T08:52:48Z</time>
      </trkpt>
      <trkpt lat="44.82362" lon="6.94479">
        <ele>1843.8</ele>
        <time>2021-02-16T08:52:59Z</time>
      </trkpt>
      <trkpt lat="44.8236" lon="6.94485">
        <ele>1844.8</ele>
        <time>2021-02-16T08:53:08Z</time>
      </trkpt>
      <trkpt lat="44.82358" lon="6.94491">
        <ele>1842.8</ele>
        <time>2021-02-16T08:53:18Z</time>
      </trkpt>
      <trkpt lat="44.82363" lon="6.94493">
        <ele>1845</ele>
        <time>2021-02-16T08:53:36Z</time>
      </trkpt>
      <trkpt lat="44.82367" lon="6.94494">
        <ele>1846.4</ele>
        <time>2021-02-16T08:53:48Z</time>
      </trkpt>
      <trkpt lat="44.82368" lon="6.94497">
        <ele>1850.4</ele>
        <time>2021-02-16T08:53:59Z</time>
      </trkpt>
      <trkpt lat="44.82365" lon="6.94501">
        <ele>1849.8</ele>
        <time>2021-02-16T08:54:08Z</time>
      </trkpt>
      <trkpt lat="44.82367" lon="6.94505">
        <ele>1854</ele>
        <time>2021-02-16T08:54:26Z</time>
      </trkpt>
      <trkpt lat="44.82372" lon="6.94507">
        <ele>1851.8</ele>
        <time>2021-02-16T08:54:38Z</time>
      </trkpt>
      <trkpt lat="44.82375" lon="6.94509">
        <ele>1854.2</ele>
        <time>2021-02-16T08:54:49Z</time>
      </trkpt>
      <trkpt lat="44.82378" lon="6.94511">
        <ele>1858.6</ele>
        <time>2021-02-16T08:54:58Z</time>
      </trkpt>
      <trkpt lat="44.82379" lon="6.94516">
        <ele>1861.8</ele>
        <time>2021-02-16T08:55:09Z</time>
      </trkpt>
      <trkpt lat="44.82382" lon="6.94518">
        <ele>1859.6</ele>
        <time>2021-02-16T08:55:19Z</time>
      </trkpt>
      <trkpt lat="44.82387" lon="6.94519">
        <ele>1857.4</ele>
        <time>2021-02-16T08:55:32Z</time>
      </trkpt>
      <trkpt lat="44.8239" lon="6.94519">
        <ele>1859.6</ele>
        <time>2021-02-16T08:55:40Z</time>
      </trkpt>
      <trkpt lat="44.82395" lon="6.9452">
        <ele>1861</ele>
        <time>2021-02-16T08:55:51Z</time>
      </trkpt>
      <trkpt lat="44.82397" lon="6.9452">
        <ele>1865</ele>
        <time>2021-02-16T08:55:57Z</time>
      </trkpt>
      <trkpt lat="44.82402" lon="6.94518">
        <ele>1864.8</ele>
        <time>2021-02-16T08:56:10Z</time>
      </trkpt>
      <trkpt lat="44.82406" lon="6.94519">
        <ele>1864.6</ele>
        <time>2021-02-16T08:58:10Z</time>
      </trkpt>
      <trkpt lat="44.8241" lon="6.94519">
        <ele>1867.8</ele>
        <time>2021-02-16T08:58:26Z</time>
      </trkpt>
      <trkpt lat="44.82414" lon="6.9452">
        <ele>1872.2</ele>
        <time>2021-02-16T08:58:32Z</time>
      </trkpt>
      <trkpt lat="44.82418" lon="6.9452">
        <ele>1869.2</ele>
        <time>2021-02-16T08:58:40Z</time>
      </trkpt>
      <trkpt lat="44.8242" lon="6.9452">
        <ele>1873.4</ele>
        <time>2021-02-16T08:58:44Z</time>
      </trkpt>
      <trkpt lat="44.82425" lon="6.9452">
        <ele>1873.4</ele>
        <time>2021-02-16T08:58:53Z</time>
      </trkpt>
      <trkpt lat="44.8243" lon="6.9452">
        <ele>1873.4</ele>
        <time>2021-02-16T08:59:03Z</time>
      </trkpt>
      <trkpt lat="44.82434" lon="6.94522">
        <ele>1877.6</ele>
        <time>2021-02-16T08:59:17Z</time>
      </trkpt>
      <trkpt lat="44.82437" lon="6.94523">
        <ele>1872.8</ele>
        <time>2021-02-16T08:59:21Z</time>
      </trkpt>
      <trkpt lat="44.8244" lon="6.94523">
        <ele>1877</ele>
        <time>2021-02-16T08:59:26Z</time>
      </trkpt>
      <trkpt lat="44.82445" lon="6.94523">
        <ele>1876.2</ele>
        <time>2021-02-16T08:59:34Z</time>
      </trkpt>
      <trkpt lat="44.8245" lon="6.94523">
        <ele>1875.8</ele>
        <time>2021-02-16T08:59:43Z</time>
      </trkpt>
      <trkpt lat="44.82453" lon="6.94523">
        <ele>1880.2</ele>
        <time>2021-02-16T08:59:50Z</time>
      </trkpt>
      <trkpt lat="44.82457" lon="6.94521">
        <ele>1879.4</ele>
        <time>2021-02-16T08:59:59Z</time>
      </trkpt>
      <trkpt lat="44.82463" lon="6.94522">
        <ele>1881</ele>
        <time>2021-02-16T09:00:09Z</time>
      </trkpt>
      <trkpt lat="44.82468" lon="6.94521">
        <ele>1882.2</ele>
        <time>2021-02-16T09:00:18Z</time>
      </trkpt>
      <trkpt lat="44.82472" lon="6.9452">
        <ele>1881.8</ele>
        <time>2021-02-16T09:00:27Z</time>
      </trkpt>
      <trkpt lat="44.82475" lon="6.94517">
        <ele>1883.6</ele>
        <time>2021-02-16T09:00:38Z</time>
      </trkpt>
      <trkpt lat="44.82479" lon="6.94516">
        <ele>1886.6</ele>
        <time>2021-02-16T09:00:46Z</time>
      </trkpt>
      <trkpt lat="44.82481" lon="6.94514">
        <ele>1891.4</ele>
        <time>2021-02-16T09:00:51Z</time>
      </trkpt>
      <trkpt lat="44.82483" lon="6.94511">
        <ele>1888.8</ele>
        <time>2021-02-16T09:00:57Z</time>
      </trkpt>
      <trkpt lat="44.82488" lon="6.94511">
        <ele>1888</ele>
        <time>2021-02-16T09:01:10Z</time>
      </trkpt>
      <trkpt lat="44.82492" lon="6.94512">
        <ele>1887.4</ele>
        <time>2021-02-16T09:01:21Z</time>
      </trkpt>
      <trkpt lat="44.82496" lon="6.94508">
        <ele>1886.2</ele>
        <time>2021-02-16T09:01:31Z</time>
      </trkpt>
      <trkpt lat="44.82499" lon="6.94505">
        <ele>1889.4</ele>
        <time>2021-02-16T09:01:38Z</time>
      </trkpt>
      <trkpt lat="44.82503" lon="6.94503">
        <ele>1891.4</ele>
        <time>2021-02-16T09:01:46Z</time>
      </trkpt>
      <trkpt lat="44.82506" lon="6.94501">
        <ele>1895.2</ele>
        <time>2021-02-16T09:01:55Z</time>
      </trkpt>
      <trkpt lat="44.82509" lon="6.94498">
        <ele>1895</ele>
        <time>2021-02-16T09:02:07Z</time>
      </trkpt>
      <trkpt lat="44.82514" lon="6.94495">
        <ele>1894.2</ele>
        <time>2021-02-16T09:02:21Z</time>
      </trkpt>
      <trkpt lat="44.82519" lon="6.94492">
        <ele>1897.6</ele>
        <time>2021-02-16T09:02:33Z</time>
      </trkpt>
      <trkpt lat="44.82522" lon="6.94489">
        <ele>1899</ele>
        <time>2021-02-16T09:02:42Z</time>
      </trkpt>
      <trkpt lat="44.82527" lon="6.94489">
        <ele>1898.8</ele>
        <time>2021-02-16T09:02:50Z</time>
      </trkpt>
      <trkpt lat="44.82532" lon="6.94489">
        <ele>1898.8</ele>
        <time>2021-02-16T09:02:59Z</time>
      </trkpt>
      <trkpt lat="44.82536" lon="6.94491">
        <ele>1901</ele>
        <time>2021-02-16T09:03:06Z</time>
      </trkpt>
      <trkpt lat="44.8254" lon="6.94493">
        <ele>1903.6</ele>
        <time>2021-02-16T09:03:13Z</time>
      </trkpt>
      <trkpt lat="44.82543" lon="6.94495">
        <ele>1907.2</ele>
        <time>2021-02-16T09:03:25Z</time>
      </trkpt>
      <trkpt lat="44.82539" lon="6.94497">
        <ele>1905.6</ele>
        <time>2021-02-16T09:03:34Z</time>
      </trkpt>
      <trkpt lat="44.82535" lon="6.945">
        <ele>1906</ele>
        <time>2021-02-16T09:03:42Z</time>
      </trkpt>
      <trkpt lat="44.82532" lon="6.94506">
        <ele>1907.6</ele>
        <time>2021-02-16T09:03:54Z</time>
      </trkpt>
      <trkpt lat="44.82534" lon="6.94508">
        <ele>1912.4</ele>
        <time>2021-02-16T09:04:05Z</time>
      </trkpt>
      <trkpt lat="44.82534" lon="6.94514">
        <ele>1911.4</ele>
        <time>2021-02-16T09:04:14Z</time>
      </trkpt>
      <trkpt lat="44.82532" lon="6.94518">
        <ele>1908.6</ele>
        <time>2021-02-16T09:04:20Z</time>
      </trkpt>
      <trkpt lat="44.82532" lon="6.94523">
        <ele>1912.8</ele>
        <time>2021-02-16T09:04:28Z</time>
      </trkpt>
      <trkpt lat="44.82532" lon="6.94528">
        <ele>1916.8</ele>
        <time>2021-02-16T09:04:40Z</time>
      </trkpt>
      <trkpt lat="44.82533" lon="6.94528">
        <ele>1922</ele>
        <time>2021-02-16T09:04:45Z</time>
      </trkpt>
      <trkpt lat="44.82537" lon="6.94525">
        <ele>1920.4</ele>
        <time>2021-02-16T09:04:53Z</time>
      </trkpt>
      <trkpt lat="44.82538" lon="6.94532">
        <ele>1920.6</ele>
        <time>2021-02-16T09:05:06Z</time>
      </trkpt>
      <trkpt lat="44.82537" lon="6.94537">
        <ele>1923</ele>
        <time>2021-02-16T09:05:14Z</time>
      </trkpt>
      <trkpt lat="44.82536" lon="6.94543">
        <ele>1925.4</ele>
        <time>2021-02-16T09:05:25Z</time>
      </trkpt>
      <trkpt lat="44.82536" lon="6.94547">
        <ele>1928.2</ele>
        <time>2021-02-16T09:05:32Z</time>
      </trkpt>
      <trkpt lat="44.82539" lon="6.94552">
        <ele>1929.4</ele>
        <time>2021-02-16T09:05:42Z</time>
      </trkpt>
      <trkpt lat="44.82538" lon="6.94558">
        <ele>1934</ele>
        <time>2021-02-16T09:06:00Z</time>
      </trkpt>
      <trkpt lat="44.82538" lon="6.94564">
        <ele>1932.8</ele>
        <time>2021-02-16T09:06:07Z</time>
      </trkpt>
      <trkpt lat="44.82536" lon="6.94568">
        <ele>1937</ele>
        <time>2021-02-16T09:06:12Z</time>
      </trkpt>
      <trkpt lat="44.82536" lon="6.94574">
        <ele>1938.2</ele>
        <time>2021-02-16T09:06:20Z</time>
      </trkpt>
      <trkpt lat="44.82537" lon="6.94579">
        <ele>1941.4</ele>
        <time>2021-02-16T09:06:25Z</time>
      </trkpt>
      <trkpt lat="44.82537" lon="6.94583">
        <ele>1938</ele>
        <time>2021-02-16T09:06:30Z</time>
      </trkpt>
      <trkpt lat="44.82537" lon="6.94586">
        <ele>1945</ele>
        <time>2021-02-16T09:06:33Z</time>
      </trkpt>
      <trkpt lat="44.82536" lon="6.94592">
        <ele>1943.4</ele>
        <time>2021-02-16T09:06:41Z</time>
      </trkpt>
      <trkpt lat="44.82535" lon="6.94598">
        <ele>1944.6</ele>
        <time>2021-02-16T09:06:49Z</time>
      </trkpt>
      <trkpt lat="44.82531" lon="6.94603">
        <ele>1941.6</ele>
        <time>2021-02-16T09:06:57Z</time>
      </trkpt>
      <trkpt lat="44.82531" lon="6.94606">
        <ele>1945.8</ele>
        <time>2021-02-16T09:07:01Z</time>
      </trkpt>
      <trkpt lat="44.8253" lon="6.94612">
        <ele>1949.6</ele>
        <time>2021-02-16T09:07:12Z</time>
      </trkpt>
      <trkpt lat="44.8253" lon="6.94618">
        <ele>1950.2</ele>
        <time>2021-02-16T09:07:16Z</time>
      </trkpt>
      <trkpt lat="44.8253" lon="6.94623">
        <ele>1946.8</ele>
        <time>2021-02-16T09:07:19Z</time>
      </trkpt>
      <trkpt lat="44.82528" lon="6.94629">
        <ele>1948.8</ele>
        <time>2021-02-16T09:07:24Z</time>
      </trkpt>
      <trkpt lat="44.82527" lon="6.94635">
        <ele>1950.6</ele>
        <time>2021-02-16T09:07:30Z</time>
      </trkpt>
      <trkpt lat="44.82526" lon="6.94641">
        <ele>1951.4</ele>
        <time>2021-02-16T09:07:35Z</time>
      </trkpt>
      <trkpt lat="44.82524" lon="6.94646">
        <ele>1950.4</ele>
        <time>2021-02-16T09:07:40Z</time>
      </trkpt>
      <trkpt lat="44.82523" lon="6.94652">
        <ele>1952.8</ele>
        <time>2021-02-16T09:07:47Z</time>
      </trkpt>
      <trkpt lat="44.82523" lon="6.94656">
        <ele>1948.4</ele>
        <time>2021-02-16T09:07:52Z</time>
      </trkpt>
      <trkpt lat="44.82522" lon="6.94662">
        <ele>1949.6</ele>
        <time>2021-02-16T09:07:59Z</time>
      </trkpt>
      <trkpt lat="44.82522" lon="6.94669">
        <ele>1950.2</ele>
        <time>2021-02-16T09:08:05Z</time>
      </trkpt>
      <trkpt lat="44.82522" lon="6.94675">
        <ele>1951.8</ele>
        <time>2021-02-16T09:08:13Z</time>
      </trkpt>
      <trkpt lat="44.82523" lon="6.94682">
        <ele>1950.2</ele>
        <time>2021-02-16T09:08:21Z</time>
      </trkpt>
      <trkpt lat="44.82523" lon="6.94685">
        <ele>1954.4</ele>
        <time>2021-02-16T09:08:25Z</time>
      </trkpt>
      <trkpt lat="44.82523" lon="6.94692">
        <ele>1951.8</ele>
        <time>2021-02-16T09:08:35Z</time>
      </trkpt>
      <trkpt lat="44.82523" lon="6.94698">
        <ele>1951.6</ele>
        <time>2021-02-16T09:08:45Z</time>
      </trkpt>
      <trkpt lat="44.82523" lon="6.94704">
        <ele>1954.8</ele>
        <time>2021-02-16T09:08:52Z</time>
      </trkpt>
      <trkpt lat="44.82523" lon="6.9471">
        <ele>1953.2</ele>
        <time>2021-02-16T09:08:58Z</time>
      </trkpt>
      <trkpt lat="44.82525" lon="6.94717">
        <ele>1955.2</ele>
        <time>2021-02-16T09:09:07Z</time>
      </trkpt>
      <trkpt lat="44.82527" lon="6.94723">
        <ele>1955.8</ele>
        <time>2021-02-16T09:09:14Z</time>
      </trkpt>
      <trkpt lat="44.82527" lon="6.9473">
        <ele>1954.8</ele>
        <time>2021-02-16T09:09:23Z</time>
      </trkpt>
      <trkpt lat="44.82523" lon="6.94732">
        <ele>1954</ele>
        <time>2021-02-16T09:09:29Z</time>
      </trkpt>
      <trkpt lat="44.82519" lon="6.94733">
        <ele>1953.8</ele>
        <time>2021-02-16T09:09:34Z</time>
      </trkpt>
      <trkpt lat="44.82516" lon="6.94733">
        <ele>1958</ele>
        <time>2021-02-16T09:09:37Z</time>
      </trkpt>
      <trkpt lat="44.82515" lon="6.94737">
        <ele>1955</ele>
        <time>2021-02-16T09:09:45Z</time>
      </trkpt>
      <trkpt lat="44.82516" lon="6.94743">
        <ele>1958.4</ele>
        <time>2021-02-16T09:09:56Z</time>
      </trkpt>
      <trkpt lat="44.82517" lon="6.94749">
        <ele>1959.6</ele>
        <time>2021-02-16T09:10:07Z</time>
      </trkpt>
      <trkpt lat="44.82517" lon="6.94753">
        <ele>1956.2</ele>
        <time>2021-02-16T09:10:14Z</time>
      </trkpt>
      <trkpt lat="44.82518" lon="6.94758">
        <ele>1957.8</ele>
        <time>2021-02-16T09:10:23Z</time>
      </trkpt>
      <trkpt lat="44.82518" lon="6.94764">
        <ele>1956.2</ele>
        <time>2021-02-16T09:10:40Z</time>
      </trkpt>
      <trkpt lat="44.82515" lon="6.94766">
        <ele>1960.2</ele>
        <time>2021-02-16T09:10:43Z</time>
      </trkpt>
      <trkpt lat="44.82512" lon="6.94767">
        <ele>1963.6</ele>
        <time>2021-02-16T09:10:49Z</time>
      </trkpt>
      <trkpt lat="44.82507" lon="6.94769">
        <ele>1966.4</ele>
        <time>2021-02-16T09:10:56Z</time>
      </trkpt>
      <trkpt lat="44.82506" lon="6.94773">
        <ele>1959.8</ele>
        <time>2021-02-16T09:11:16Z</time>
      </trkpt>
      <trkpt lat="44.82507" lon="6.94774">
        <ele>1964</ele>
        <time>2021-02-16T09:11:18Z</time>
      </trkpt>
      <trkpt lat="44.82509" lon="6.94778">
        <ele>1967</ele>
        <time>2021-02-16T09:11:25Z</time>
      </trkpt>
      <trkpt lat="44.8251" lon="6.94784">
        <ele>1967.4</ele>
        <time>2021-02-16T09:11:38Z</time>
      </trkpt>
      <trkpt lat="44.82513" lon="6.9479">
        <ele>1970.4</ele>
        <time>2021-02-16T09:11:51Z</time>
      </trkpt>
      <trkpt lat="44.82514" lon="6.94794">
        <ele>1975</ele>
        <time>2021-02-16T09:11:57Z</time>
      </trkpt>
      <trkpt lat="44.82515" lon="6.94795">
        <ele>1970</ele>
        <time>2021-02-16T09:11:59Z</time>
      </trkpt>
      <trkpt lat="44.82512" lon="6.94799">
        <ele>1973</ele>
        <time>2021-02-16T09:12:06Z</time>
      </trkpt>
      <trkpt lat="44.82508" lon="6.94802">
        <ele>1970.4</ele>
        <time>2021-02-16T09:12:14Z</time>
      </trkpt>
      <trkpt lat="44.82505" lon="6.94804">
        <ele>1974</ele>
        <time>2021-02-16T09:12:19Z</time>
      </trkpt>
      <trkpt lat="44.82501" lon="6.94807">
        <ele>1973.4</ele>
        <time>2021-02-16T09:12:27Z</time>
      </trkpt>
      <trkpt lat="44.82497" lon="6.94809">
        <ele>1973.8</ele>
        <time>2021-02-16T09:12:35Z</time>
      </trkpt>
      <trkpt lat="44.82493" lon="6.94814">
        <ele>1973</ele>
        <time>2021-02-16T09:12:44Z</time>
      </trkpt>
      <trkpt lat="44.82491" lon="6.9482">
        <ele>1973.8</ele>
        <time>2021-02-16T09:12:56Z</time>
      </trkpt>
      <trkpt lat="44.82491" lon="6.94826">
        <ele>1977</ele>
        <time>2021-02-16T09:13:24Z</time>
      </trkpt>
      <trkpt lat="44.82492" lon="6.94831">
        <ele>1975.2</ele>
        <time>2021-02-16T09:13:30Z</time>
      </trkpt>
      <trkpt lat="44.82494" lon="6.94836">
        <ele>1978</ele>
        <time>2021-02-16T09:13:37Z</time>
      </trkpt>
      <trkpt lat="44.82496" lon="6.94841">
        <ele>1980</ele>
        <time>2021-02-16T09:13:45Z</time>
      </trkpt>
      <trkpt lat="44.825" lon="6.94846">
        <ele>1982.8</ele>
        <time>2021-02-16T09:13:54Z</time>
      </trkpt>
      <trkpt lat="44.82502" lon="6.94851">
        <ele>1984.6</ele>
        <time>2021-02-16T09:14:01Z</time>
      </trkpt>
      <trkpt lat="44.82503" lon="6.94857">
        <ele>1985</ele>
        <time>2021-02-16T09:14:10Z</time>
      </trkpt>
      <trkpt lat="44.82505" lon="6.94863">
        <ele>1987.6</ele>
        <time>2021-02-16T09:14:18Z</time>
      </trkpt>
      <trkpt lat="44.82503" lon="6.94868">
        <ele>1984.6</ele>
        <time>2021-02-16T09:14:26Z</time>
      </trkpt>
      <trkpt lat="44.82502" lon="6.94872">
        <ele>1988.2</ele>
        <time>2021-02-16T09:14:33Z</time>
      </trkpt>
      <trkpt lat="44.82503" lon="6.94878">
        <ele>1993</ele>
        <time>2021-02-16T09:14:44Z</time>
      </trkpt>
      <trkpt lat="44.82502" lon="6.94884">
        <ele>1994.2</ele>
        <time>2021-02-16T09:14:53Z</time>
      </trkpt>
      <trkpt lat="44.82501" lon="6.94891">
        <ele>1995.4</ele>
        <time>2021-02-16T09:15:02Z</time>
      </trkpt>
      <trkpt lat="44.82499" lon="6.94896">
        <ele>1996.8</ele>
        <time>2021-02-16T09:15:10Z</time>
      </trkpt>
      <trkpt lat="44.82498" lon="6.94903">
        <ele>1995</ele>
        <time>2021-02-16T09:15:20Z</time>
      </trkpt>
      <trkpt lat="44.82496" lon="6.94907">
        <ele>1999.2</ele>
        <time>2021-02-16T09:15:29Z</time>
      </trkpt>
      <trkpt lat="44.82497" lon="6.94914">
        <ele>1998.6</ele>
        <time>2021-02-16T09:15:38Z</time>
      </trkpt>
      <trkpt lat="44.82494" lon="6.9492">
        <ele>2001.4</ele>
        <time>2021-02-16T09:15:48Z</time>
      </trkpt>
      <trkpt lat="44.82494" lon="6.94926">
        <ele>2002.2</ele>
        <time>2021-02-16T09:15:58Z</time>
      </trkpt>
      <trkpt lat="44.82492" lon="6.9493">
        <ele>2005.6</ele>
        <time>2021-02-16T09:16:04Z</time>
      </trkpt>
      <trkpt lat="44.82489" lon="6.94936">
        <ele>2004.6</ele>
        <time>2021-02-16T09:16:12Z</time>
      </trkpt>
      <trkpt lat="44.82489" lon="6.94941">
        <ele>2006.8</ele>
        <time>2021-02-16T09:16:19Z</time>
      </trkpt>
      <trkpt lat="44.82488" lon="6.94947">
        <ele>2010</ele>
        <time>2021-02-16T09:16:28Z</time>
      </trkpt>
      <trkpt lat="44.82488" lon="6.94952">
        <ele>2012.2</ele>
        <time>2021-02-16T09:16:36Z</time>
      </trkpt>
      <trkpt lat="44.82486" lon="6.94958">
        <ele>2012.2</ele>
        <time>2021-02-16T09:16:45Z</time>
      </trkpt>
      <trkpt lat="44.82485" lon="6.94961">
        <ele>2007.2</ele>
        <time>2021-02-16T09:16:50Z</time>
      </trkpt>
      <trkpt lat="44.82484" lon="6.94966">
        <ele>2010.4</ele>
        <time>2021-02-16T09:16:57Z</time>
      </trkpt>
      <trkpt lat="44.82482" lon="6.94971">
        <ele>2013.4</ele>
        <time>2021-02-16T09:17:05Z</time>
      </trkpt>
      <trkpt lat="44.8248" lon="6.94975">
        <ele>2016.2</ele>
        <time>2021-02-16T09:17:12Z</time>
      </trkpt>
      <trkpt lat="44.82479" lon="6.94981">
        <ele>2018.2</ele>
        <time>2021-02-16T09:17:21Z</time>
      </trkpt>
      <trkpt lat="44.82479" lon="6.94986">
        <ele>2014.8</ele>
        <time>2021-02-16T09:17:28Z</time>
      </trkpt>
      <trkpt lat="44.82478" lon="6.94993">
        <ele>2016.8</ele>
        <time>2021-02-16T09:17:36Z</time>
      </trkpt>
      <trkpt lat="44.82476" lon="6.94999">
        <ele>2015.4</ele>
        <time>2021-02-16T09:17:44Z</time>
      </trkpt>
      <trkpt lat="44.82476" lon="6.95005">
        <ele>2015.8</ele>
        <time>2021-02-16T09:17:51Z</time>
      </trkpt>
      <trkpt lat="44.82476" lon="6.95011">
        <ele>2016.2</ele>
        <time>2021-02-16T09:17:59Z</time>
      </trkpt>
      <trkpt lat="44.82479" lon="6.95017">
        <ele>2015.6</ele>
        <time>2021-02-16T09:18:07Z</time>
      </trkpt>
      <trkpt lat="44.82483" lon="6.95023">
        <ele>2018</ele>
        <time>2021-02-16T09:18:13Z</time>
      </trkpt>
      <trkpt lat="44.82486" lon="6.95027">
        <ele>2015.4</ele>
        <time>2021-02-16T09:18:20Z</time>
      </trkpt>
      <trkpt lat="44.82491" lon="6.9503">
        <ele>2017.2</ele>
        <time>2021-02-16T09:18:30Z</time>
      </trkpt>
      <trkpt lat="44.82495" lon="6.95032">
        <ele>2018.2</ele>
        <time>2021-02-16T09:18:39Z</time>
      </trkpt>
      <trkpt lat="44.82499" lon="6.95034">
        <ele>2017.6</ele>
        <time>2021-02-16T09:18:50Z</time>
      </trkpt>
      <trkpt lat="44.82504" lon="6.95037">
        <ele>2020.2</ele>
        <time>2021-02-16T09:18:59Z</time>
      </trkpt>
      <trkpt lat="44.82508" lon="6.95039">
        <ele>2022.6</ele>
        <time>2021-02-16T09:19:09Z</time>
      </trkpt>
      <trkpt lat="44.82512" lon="6.95042">
        <ele>2020.8</ele>
        <time>2021-02-16T09:19:19Z</time>
      </trkpt>
      <trkpt lat="44.82516" lon="6.95044">
        <ele>2021.2</ele>
        <time>2021-02-16T09:19:29Z</time>
      </trkpt>
      <trkpt lat="44.82518" lon="6.95046">
        <ele>2025.4</ele>
        <time>2021-02-16T09:19:35Z</time>
      </trkpt>
      <trkpt lat="44.82521" lon="6.95053">
        <ele>2025.8</ele>
        <time>2021-02-16T09:19:46Z</time>
      </trkpt>
      <trkpt lat="44.8252" lon="6.95059">
        <ele>2027.4</ele>
        <time>2021-02-16T09:19:55Z</time>
      </trkpt>
      <trkpt lat="44.82518" lon="6.95065">
        <ele>2028.6</ele>
        <time>2021-02-16T09:20:05Z</time>
      </trkpt>
      <trkpt lat="44.82517" lon="6.9507">
        <ele>2030</ele>
        <time>2021-02-16T09:20:16Z</time>
      </trkpt>
      <trkpt lat="44.82521" lon="6.95073">
        <ele>2033.6</ele>
        <time>2021-02-16T09:20:27Z</time>
      </trkpt>
      <trkpt lat="44.82524" lon="6.95074">
        <ele>2030.2</ele>
        <time>2021-02-16T09:20:35Z</time>
      </trkpt>
      <trkpt lat="44.82528" lon="6.95075">
        <ele>2032</ele>
        <time>2021-02-16T09:20:43Z</time>
      </trkpt>
      <trkpt lat="44.82531" lon="6.95078">
        <ele>2030.2</ele>
        <time>2021-02-16T09:20:51Z</time>
      </trkpt>
      <trkpt lat="44.82534" lon="6.95084">
        <ele>2031</ele>
        <time>2021-02-16T09:21:04Z</time>
      </trkpt>
      <trkpt lat="44.82537" lon="6.95087">
        <ele>2033.8</ele>
        <time>2021-02-16T09:21:11Z</time>
      </trkpt>
      <trkpt lat="44.82539" lon="6.95091">
        <ele>2037.4</ele>
        <time>2021-02-16T09:21:17Z</time>
      </trkpt>
      <trkpt lat="44.82542" lon="6.95095">
        <ele>2035.2</ele>
        <time>2021-02-16T09:21:25Z</time>
      </trkpt>
      <trkpt lat="44.82545" lon="6.95099">
        <ele>2035.2</ele>
        <time>2021-02-16T09:21:36Z</time>
      </trkpt>
      <trkpt lat="44.82547" lon="6.95101">
        <ele>2032</ele>
        <time>2021-02-16T09:21:44Z</time>
      </trkpt>
      <trkpt lat="44.82548" lon="6.95101">
        <ele>2036.8</ele>
        <time>2021-02-16T09:21:46Z</time>
      </trkpt>
      <trkpt lat="44.82551" lon="6.95105">
        <ele>2038.2</ele>
        <time>2021-02-16T09:21:55Z</time>
      </trkpt>
      <trkpt lat="44.82553" lon="6.9511">
        <ele>2040.6</ele>
        <time>2021-02-16T09:22:05Z</time>
      </trkpt>
      <trkpt lat="44.82556" lon="6.95115">
        <ele>2042</ele>
        <time>2021-02-16T09:22:17Z</time>
      </trkpt>
      <trkpt lat="44.82559" lon="6.95118">
        <ele>2045.6</ele>
        <time>2021-02-16T09:22:26Z</time>
      </trkpt>
      <trkpt lat="44.82562" lon="6.95118">
        <ele>2048.8</ele>
        <time>2021-02-16T09:22:35Z</time>
      </trkpt>
      <trkpt lat="44.82565" lon="6.95118">
        <ele>2043.4</ele>
        <time>2021-02-16T09:22:43Z</time>
      </trkpt>
      <trkpt lat="44.82568" lon="6.95121">
        <ele>2048.2</ele>
        <time>2021-02-16T09:22:55Z</time>
      </trkpt>
      <trkpt lat="44.82569" lon="6.95121">
        <ele>2053.8</ele>
        <time>2021-02-16T09:23:00Z</time>
      </trkpt>
      <trkpt lat="44.82573" lon="6.95124">
        <ele>2056</ele>
        <time>2021-02-16T09:23:14Z</time>
      </trkpt>
      <trkpt lat="44.82573" lon="6.9513">
        <ele>2057.6</ele>
        <time>2021-02-16T09:23:24Z</time>
      </trkpt>
      <trkpt lat="44.8257" lon="6.95134">
        <ele>2060.6</ele>
        <time>2021-02-16T09:23:31Z</time>
      </trkpt>
      <trkpt lat="44.82567" lon="6.9514">
        <ele>2063</ele>
        <time>2021-02-16T09:23:40Z</time>
      </trkpt>
      <trkpt lat="44.82564" lon="6.95144">
        <ele>2061.6</ele>
        <time>2021-02-16T09:23:48Z</time>
      </trkpt>
      <trkpt lat="44.82561" lon="6.95147">
        <ele>2065.8</ele>
        <time>2021-02-16T09:23:53Z</time>
      </trkpt>
      <trkpt lat="44.82559" lon="6.95154">
        <ele>2066</ele>
        <time>2021-02-16T09:24:03Z</time>
      </trkpt>
      <trkpt lat="44.82556" lon="6.95156">
        <ele>2060.8</ele>
        <time>2021-02-16T09:24:11Z</time>
      </trkpt>
      <trkpt lat="44.82554" lon="6.95158">
        <ele>2065</ele>
        <time>2021-02-16T09:24:18Z</time>
      </trkpt>
      <trkpt lat="44.82549" lon="6.95161">
        <ele>2066.4</ele>
        <time>2021-02-16T09:24:27Z</time>
      </trkpt>
      <trkpt lat="44.82545" lon="6.95165">
        <ele>2067</ele>
        <time>2021-02-16T09:24:39Z</time>
      </trkpt>
      <trkpt lat="44.82541" lon="6.95166">
        <ele>2069.8</ele>
        <time>2021-02-16T09:24:48Z</time>
      </trkpt>
      <trkpt lat="44.82541" lon="6.95167">
        <ele>2064.4</ele>
        <time>2021-02-16T09:24:50Z</time>
      </trkpt>
      <trkpt lat="44.82545" lon="6.95167">
        <ele>2065.4</ele>
        <time>2021-02-16T09:25:06Z</time>
      </trkpt>
      <trkpt lat="44.82549" lon="6.95167">
        <ele>2062.4</ele>
        <time>2021-02-16T09:25:18Z</time>
      </trkpt>
      <trkpt lat="44.82552" lon="6.95169">
        <ele>2066</ele>
        <time>2021-02-16T09:25:26Z</time>
      </trkpt>
      <trkpt lat="44.82556" lon="6.95172">
        <ele>2068.2</ele>
        <time>2021-02-16T09:25:43Z</time>
      </trkpt>
      <trkpt lat="44.82557" lon="6.95178">
        <ele>2071</ele>
        <time>2021-02-16T09:25:55Z</time>
      </trkpt>
      <trkpt lat="44.82555" lon="6.95183">
        <ele>2073.8</ele>
        <time>2021-02-16T09:26:02Z</time>
      </trkpt>
      <trkpt lat="44.82555" lon="6.95189">
        <ele>2074.8</ele>
        <time>2021-02-16T09:26:10Z</time>
      </trkpt>
      <trkpt lat="44.82554" lon="6.95195">
        <ele>2074</ele>
        <time>2021-02-16T09:26:18Z</time>
      </trkpt>
      <trkpt lat="44.82552" lon="6.95198">
        <ele>2077.4</ele>
        <time>2021-02-16T09:26:25Z</time>
      </trkpt>
      <trkpt lat="44.82547" lon="6.952">
        <ele>2080.8</ele>
        <time>2021-02-16T09:26:33Z</time>
      </trkpt>
      <trkpt lat="44.82544" lon="6.95202">
        <ele>2077.4</ele>
        <time>2021-02-16T09:26:39Z</time>
      </trkpt>
      <trkpt lat="44.8254" lon="6.95204">
        <ele>2079.6</ele>
        <time>2021-02-16T09:26:45Z</time>
      </trkpt>
      <trkpt lat="44.82539" lon="6.95207">
        <ele>2074.8</ele>
        <time>2021-02-16T09:26:51Z</time>
      </trkpt>
      <trkpt lat="44.82538" lon="6.95207">
        <ele>2079.6</ele>
        <time>2021-02-16T09:27:00Z</time>
      </trkpt>
      <trkpt lat="44.8254" lon="6.95209">
        <ele>2083.4</ele>
        <time>2021-02-16T09:27:13Z</time>
      </trkpt>
      <trkpt lat="44.82544" lon="6.95211">
        <ele>2088</ele>
        <time>2021-02-16T09:27:34Z</time>
      </trkpt>
      <trkpt lat="44.82543" lon="6.95215">
        <ele>2092</ele>
        <time>2021-02-16T09:27:44Z</time>
      </trkpt>
      <trkpt lat="44.82542" lon="6.95221">
        <ele>2092.2</ele>
        <time>2021-02-16T09:27:53Z</time>
      </trkpt>
      <trkpt lat="44.82539" lon="6.95224">
        <ele>2089</ele>
        <time>2021-02-16T09:28:00Z</time>
      </trkpt>
      <trkpt lat="44.82536" lon="6.95229">
        <ele>2091.6</ele>
        <time>2021-02-16T09:28:08Z</time>
      </trkpt>
      <trkpt lat="44.82532" lon="6.9523">
        <ele>2091</ele>
        <time>2021-02-16T09:28:19Z</time>
      </trkpt>
      <trkpt lat="44.8253" lon="6.95234">
        <ele>2087</ele>
        <time>2021-02-16T09:28:28Z</time>
      </trkpt>
      <trkpt lat="44.82526" lon="6.95234">
        <ele>2087.4</ele>
        <time>2021-02-16T09:28:39Z</time>
      </trkpt>
      <trkpt lat="44.82523" lon="6.95237">
        <ele>2090</ele>
        <time>2021-02-16T09:28:45Z</time>
      </trkpt>
      <trkpt lat="44.8252" lon="6.95242">
        <ele>2092.2</ele>
        <time>2021-02-16T09:28:58Z</time>
      </trkpt>
      <trkpt lat="44.82516" lon="6.95244">
        <ele>2092.6</ele>
        <time>2021-02-16T09:29:06Z</time>
      </trkpt>
      <trkpt lat="44.82517" lon="6.9525">
        <ele>2089.8</ele>
        <time>2021-02-16T09:29:14Z</time>
      </trkpt>
      <trkpt lat="44.82521" lon="6.95247">
        <ele>2090.6</ele>
        <time>2021-02-16T09:29:40Z</time>
      </trkpt>
      <trkpt lat="44.82524" lon="6.95244">
        <ele>2093.6</ele>
        <time>2021-02-16T09:29:51Z</time>
      </trkpt>
      <trkpt lat="44.82528" lon="6.95243">
        <ele>2094.8</ele>
        <time>2021-02-16T09:29:57Z</time>
      </trkpt>
      <trkpt lat="44.82531" lon="6.9525">
        <ele>2095.2</ele>
        <time>2021-02-16T09:30:06Z</time>
      </trkpt>
      <trkpt lat="44.82533" lon="6.95256">
        <ele>2097.4</ele>
        <time>2021-02-16T09:30:11Z</time>
      </trkpt>
      <trkpt lat="44.8253" lon="6.95262">
        <ele>2098.4</ele>
        <time>2021-02-16T09:30:20Z</time>
      </trkpt>
      <trkpt lat="44.82527" lon="6.95268">
        <ele>2098.2</ele>
        <time>2021-02-16T09:30:29Z</time>
      </trkpt>
      <trkpt lat="44.82525" lon="6.95273">
        <ele>2100.8</ele>
        <time>2021-02-16T09:30:42Z</time>
      </trkpt>
      <trkpt lat="44.82521" lon="6.95276">
        <ele>2101.4</ele>
        <time>2021-02-16T09:30:50Z</time>
      </trkpt>
      <trkpt lat="44.82518" lon="6.95278">
        <ele>2104.6</ele>
        <time>2021-02-16T09:30:58Z</time>
      </trkpt>
      <trkpt lat="44.82513" lon="6.95279">
        <ele>2107.6</ele>
        <time>2021-02-16T09:31:03Z</time>
      </trkpt>
      <trkpt lat="44.82509" lon="6.95281">
        <ele>2105.4</ele>
        <time>2021-02-16T09:31:07Z</time>
      </trkpt>
      <trkpt lat="44.82507" lon="6.95284">
        <ele>2107.4</ele>
        <time>2021-02-16T09:31:27Z</time>
      </trkpt>
      <trkpt lat="44.82504" lon="6.95287">
        <ele>2110.8</ele>
        <time>2021-02-16T09:31:35Z</time>
      </trkpt>
      <trkpt lat="44.82501" lon="6.95291">
        <ele>2113.8</ele>
        <time>2021-02-16T09:31:42Z</time>
      </trkpt>
      <trkpt lat="44.82497" lon="6.95295">
        <ele>2116.8</ele>
        <time>2021-02-16T09:31:48Z</time>
      </trkpt>
      <trkpt lat="44.82493" lon="6.95298">
        <ele>2113.4</ele>
        <time>2021-02-16T09:31:53Z</time>
      </trkpt>
      <trkpt lat="44.82491" lon="6.95301">
        <ele>2117</ele>
        <time>2021-02-16T09:31:59Z</time>
      </trkpt>
      <trkpt lat="44.82488" lon="6.95299">
        <ele>2116.4</ele>
        <time>2021-02-16T09:32:38Z</time>
      </trkpt>
      <trkpt lat="44.82489" lon="6.95295">
        <ele>2120.4</ele>
        <time>2021-02-16T09:32:51Z</time>
      </trkpt>
      <trkpt lat="44.82493" lon="6.95294">
        <ele>2120.2</ele>
        <time>2021-02-16T09:33:06Z</time>
      </trkpt>
      <trkpt lat="44.82497" lon="6.95298">
        <ele>2121.2</ele>
        <time>2021-02-16T09:33:19Z</time>
      </trkpt>
      <trkpt lat="44.825" lon="6.95302">
        <ele>2121.4</ele>
        <time>2021-02-16T09:33:27Z</time>
      </trkpt>
      <trkpt lat="44.82505" lon="6.95303">
        <ele>2120.4</ele>
        <time>2021-02-16T09:33:39Z</time>
      </trkpt>
      <trkpt lat="44.82509" lon="6.95308">
        <ele>2122.2</ele>
        <time>2021-02-16T09:33:48Z</time>
      </trkpt>
      <trkpt lat="44.82513" lon="6.95312">
        <ele>2123</ele>
        <time>2021-02-16T09:33:57Z</time>
      </trkpt>
      <trkpt lat="44.82517" lon="6.95316">
        <ele>2121.4</ele>
        <time>2021-02-16T09:34:07Z</time>
      </trkpt>
      <trkpt lat="44.82517" lon="6.95316">
        <ele>2126</ele>
        <time>2021-02-16T09:34:11Z</time>
      </trkpt>
      <trkpt lat="44.8252" lon="6.95319">
        <ele>2130.2</ele>
        <time>2021-02-16T09:34:19Z</time>
      </trkpt>
      <trkpt lat="44.82524" lon="6.95322">
        <ele>2131.2</ele>
        <time>2021-02-16T09:34:29Z</time>
      </trkpt>
      <trkpt lat="44.82527" lon="6.95328">
        <ele>2130.2</ele>
        <time>2021-02-16T09:34:38Z</time>
      </trkpt>
      <trkpt lat="44.82528" lon="6.95334">
        <ele>2129.4</ele>
        <time>2021-02-16T09:34:43Z</time>
      </trkpt>
      <trkpt lat="44.82528" lon="6.9534">
        <ele>2130.4</ele>
        <time>2021-02-16T09:34:49Z</time>
      </trkpt>
      <trkpt lat="44.82527" lon="6.95346">
        <ele>2133.2</ele>
        <time>2021-02-16T09:34:57Z</time>
      </trkpt>
      <trkpt lat="44.82526" lon="6.95352">
        <ele>2134.8</ele>
        <time>2021-02-16T09:35:03Z</time>
      </trkpt>
      <trkpt lat="44.82524" lon="6.95357">
        <ele>2138.8</ele>
        <time>2021-02-16T09:35:11Z</time>
      </trkpt>
      <trkpt lat="44.82522" lon="6.95362">
        <ele>2135.6</ele>
        <time>2021-02-16T09:35:21Z</time>
      </trkpt>
      <trkpt lat="44.82522" lon="6.95363">
        <ele>2141.8</ele>
        <time>2021-02-16T09:35:22Z</time>
      </trkpt>
      <trkpt lat="44.82516" lon="6.95363">
        <ele>2140.6</ele>
        <time>2021-02-16T09:35:30Z</time>
      </trkpt>
      <trkpt lat="44.82513" lon="6.95365">
        <ele>2144.2</ele>
        <time>2021-02-16T09:35:36Z</time>
      </trkpt>
      <trkpt lat="44.82514" lon="6.95371">
        <ele>2145.4</ele>
        <time>2021-02-16T09:36:03Z</time>
      </trkpt>
      <trkpt lat="44.82516" lon="6.95375">
        <ele>2148.8</ele>
        <time>2021-02-16T09:36:13Z</time>
      </trkpt>
      <trkpt lat="44.82516" lon="6.95382">
        <ele>2148.4</ele>
        <time>2021-02-16T09:36:27Z</time>
      </trkpt>
      <trkpt lat="44.82516" lon="6.9539">
        <ele>2149.2</ele>
        <time>2021-02-16T09:36:34Z</time>
      </trkpt>
      <trkpt lat="44.82513" lon="6.95395">
        <ele>2150.8</ele>
        <time>2021-02-16T09:36:40Z</time>
      </trkpt>
      <trkpt lat="44.82509" lon="6.95399">
        <ele>2147.4</ele>
        <time>2021-02-16T09:36:46Z</time>
      </trkpt>
      <trkpt lat="44.82506" lon="6.95403">
        <ele>2145</ele>
        <time>2021-02-16T09:36:53Z</time>
      </trkpt>
      <trkpt lat="44.82505" lon="6.95404">
        <ele>2149.8</ele>
        <time>2021-02-16T09:36:54Z</time>
      </trkpt>
      <trkpt lat="44.82502" lon="6.95401">
        <ele>2153.4</ele>
        <time>2021-02-16T09:37:09Z</time>
      </trkpt>
      <trkpt lat="44.82507" lon="6.95404">
        <ele>2153</ele>
        <time>2021-02-16T09:37:24Z</time>
      </trkpt>
      <trkpt lat="44.82511" lon="6.95407">
        <ele>2153.6</ele>
        <time>2021-02-16T09:37:34Z</time>
      </trkpt>
      <trkpt lat="44.82515" lon="6.95409">
        <ele>2154.2</ele>
        <time>2021-02-16T09:37:45Z</time>
      </trkpt>
      <trkpt lat="44.82518" lon="6.95411">
        <ele>2158.2</ele>
        <time>2021-02-16T09:37:52Z</time>
      </trkpt>
      <trkpt lat="44.82522" lon="6.95413">
        <ele>2155.2</ele>
        <time>2021-02-16T09:37:59Z</time>
      </trkpt>
      <trkpt lat="44.82524" lon="6.95414">
        <ele>2161</ele>
        <time>2021-02-16T09:38:04Z</time>
      </trkpt>
      <trkpt lat="44.82527" lon="6.95419">
        <ele>2162</ele>
        <time>2021-02-16T09:38:12Z</time>
      </trkpt>
      <trkpt lat="44.82531" lon="6.95423">
        <ele>2160.6</ele>
        <time>2021-02-16T09:38:19Z</time>
      </trkpt>
      <trkpt lat="44.82534" lon="6.95426">
        <ele>2162.6</ele>
        <time>2021-02-16T09:38:28Z</time>
      </trkpt>
      <trkpt lat="44.82538" lon="6.95429">
        <ele>2164.6</ele>
        <time>2021-02-16T09:38:37Z</time>
      </trkpt>
      <trkpt lat="44.82541" lon="6.95435">
        <ele>2167</ele>
        <time>2021-02-16T09:38:45Z</time>
      </trkpt>
      <trkpt lat="44.82542" lon="6.95441">
        <ele>2164</ele>
        <time>2021-02-16T09:38:49Z</time>
      </trkpt>
      <trkpt lat="44.82543" lon="6.95445">
        <ele>2167</ele>
        <time>2021-02-16T09:38:53Z</time>
      </trkpt>
      <trkpt lat="44.82544" lon="6.9545">
        <ele>2163.8</ele>
        <time>2021-02-16T09:39:07Z</time>
      </trkpt>
      <trkpt lat="44.82547" lon="6.95455">
        <ele>2163.4</ele>
        <time>2021-02-16T09:39:16Z</time>
      </trkpt>
      <trkpt lat="44.82551" lon="6.95459">
        <ele>2166.2</ele>
        <time>2021-02-16T09:39:27Z</time>
      </trkpt>
      <trkpt lat="44.82554" lon="6.95461">
        <ele>2169.6</ele>
        <time>2021-02-16T09:39:37Z</time>
      </trkpt>
      <trkpt lat="44.82558" lon="6.95463">
        <ele>2171.2</ele>
        <time>2021-02-16T09:39:50Z</time>
      </trkpt>
      <trkpt lat="44.82562" lon="6.95467">
        <ele>2173</ele>
        <time>2021-02-16T09:39:59Z</time>
      </trkpt>
      <trkpt lat="44.82562" lon="6.95467">
        <ele>2169</ele>
        <time>2021-02-16T09:40:00Z</time>
      </trkpt>
      <trkpt lat="44.82564" lon="6.9547">
        <ele>2172.8</ele>
        <time>2021-02-16T09:40:07Z</time>
      </trkpt>
      <trkpt lat="44.82568" lon="6.95473">
        <ele>2177.2</ele>
        <time>2021-02-16T09:40:13Z</time>
      </trkpt>
      <trkpt lat="44.82572" lon="6.95476">
        <ele>2174.4</ele>
        <time>2021-02-16T09:40:19Z</time>
      </trkpt>
      <trkpt lat="44.82576" lon="6.95479">
        <ele>2177.4</ele>
        <time>2021-02-16T09:40:24Z</time>
      </trkpt>
      <trkpt lat="44.8258" lon="6.95483">
        <ele>2175.8</ele>
        <time>2021-02-16T09:40:30Z</time>
      </trkpt>
      <trkpt lat="44.82584" lon="6.95486">
        <ele>2173</ele>
        <time>2021-02-16T09:40:36Z</time>
      </trkpt>
      <trkpt lat="44.82584" lon="6.95487">
        <ele>2178.6</ele>
        <time>2021-02-16T09:40:37Z</time>
      </trkpt>
      <trkpt lat="44.82587" lon="6.9549">
        <ele>2182.4</ele>
        <time>2021-02-16T09:40:43Z</time>
      </trkpt>
      <trkpt lat="44.8259" lon="6.95492">
        <ele>2177</ele>
        <time>2021-02-16T09:40:48Z</time>
      </trkpt>
      <trkpt lat="44.82594" lon="6.95495">
        <ele>2180</ele>
        <time>2021-02-16T09:40:57Z</time>
      </trkpt>
      <trkpt lat="44.82596" lon="6.95498">
        <ele>2183</ele>
        <time>2021-02-16T09:41:02Z</time>
      </trkpt>
      <trkpt lat="44.82598" lon="6.95504">
        <ele>2185.6</ele>
        <time>2021-02-16T09:41:08Z</time>
      </trkpt>
      <trkpt lat="44.826" lon="6.95508">
        <ele>2186.8</ele>
        <time>2021-02-16T09:41:14Z</time>
      </trkpt>
      <trkpt lat="44.82603" lon="6.95512">
        <ele>2184.4</ele>
        <time>2021-02-16T09:41:30Z</time>
      </trkpt>
      <trkpt lat="44.82605" lon="6.95519">
        <ele>2187.8</ele>
        <time>2021-02-16T09:41:42Z</time>
      </trkpt>
      <trkpt lat="44.82606" lon="6.95524">
        <ele>2190</ele>
        <time>2021-02-16T09:41:51Z</time>
      </trkpt>
      <trkpt lat="44.82606" lon="6.9553">
        <ele>2191.6</ele>
        <time>2021-02-16T09:42:03Z</time>
      </trkpt>
      <trkpt lat="44.82606" lon="6.95537">
        <ele>2192.4</ele>
        <time>2021-02-16T09:42:13Z</time>
      </trkpt>
      <trkpt lat="44.82607" lon="6.95543">
        <ele>2193</ele>
        <time>2021-02-16T09:42:20Z</time>
      </trkpt>
      <trkpt lat="44.82609" lon="6.95546">
        <ele>2195.4</ele>
        <time>2021-02-16T09:42:39Z</time>
      </trkpt>
      <trkpt lat="44.82612" lon="6.95551">
        <ele>2194.2</ele>
        <time>2021-02-16T09:43:23Z</time>
      </trkpt>
      <trkpt lat="44.82614" lon="6.9555">
        <ele>2188.8</ele>
        <time>2021-02-16T09:52:19Z</time>
      </trkpt>
      <trkpt lat="44.82612" lon="6.95556">
        <ele>2191.2</ele>
        <time>2021-02-16T09:52:57Z</time>
      </trkpt>
      <trkpt lat="44.82608" lon="6.9556">
        <ele>2190.6</ele>
        <time>2021-02-16T09:53:06Z</time>
      </trkpt>
      <trkpt lat="44.82604" lon="6.95563">
        <ele>2190.4</ele>
        <time>2021-02-16T09:53:11Z</time>
      </trkpt>
      <trkpt lat="44.82599" lon="6.95567">
        <ele>2189.8</ele>
        <time>2021-02-16T09:53:17Z</time>
      </trkpt>
      <trkpt lat="44.82595" lon="6.9557">
        <ele>2193</ele>
        <time>2021-02-16T09:53:21Z</time>
      </trkpt>
      <trkpt lat="44.82592" lon="6.95574">
        <ele>2195</ele>
        <time>2021-02-16T09:53:27Z</time>
      </trkpt>
      <trkpt lat="44.82591" lon="6.95576">
        <ele>2190.6</ele>
        <time>2021-02-16T09:53:29Z</time>
      </trkpt>
      <trkpt lat="44.82589" lon="6.95578">
        <ele>2194.4</ele>
        <time>2021-02-16T09:53:32Z</time>
      </trkpt>
      <trkpt lat="44.82584" lon="6.95583">
        <ele>2192.2</ele>
        <time>2021-02-16T09:53:39Z</time>
      </trkpt>
      <trkpt lat="44.82581" lon="6.95587">
        <ele>2194.4</ele>
        <time>2021-02-16T09:53:48Z</time>
      </trkpt>
      <trkpt lat="44.82579" lon="6.95592">
        <ele>2197</ele>
        <time>2021-02-16T09:54:25Z</time>
      </trkpt>
      <trkpt lat="44.82578" lon="6.95598">
        <ele>2198.2</ele>
        <time>2021-02-16T09:54:31Z</time>
      </trkpt>
      <trkpt lat="44.82577" lon="6.95605">
        <ele>2198.8</ele>
        <time>2021-02-16T09:54:40Z</time>
      </trkpt>
      <trkpt lat="44.82573" lon="6.9561">
        <ele>2197.4</ele>
        <time>2021-02-16T09:54:46Z</time>
      </trkpt>
      <trkpt lat="44.82569" lon="6.95614">
        <ele>2197.4</ele>
        <time>2021-02-16T09:54:51Z</time>
      </trkpt>
      <trkpt lat="44.82565" lon="6.95617">
        <ele>2199.8</ele>
        <time>2021-02-16T09:54:57Z</time>
      </trkpt>
      <trkpt lat="44.82562" lon="6.95622">
        <ele>2196.2</ele>
        <time>2021-02-16T09:55:04Z</time>
      </trkpt>
      <trkpt lat="44.82559" lon="6.95625">
        <ele>2199.6</ele>
        <time>2021-02-16T09:55:08Z</time>
      </trkpt>
      <trkpt lat="44.82556" lon="6.9563">
        <ele>2199.2</ele>
        <time>2021-02-16T09:55:15Z</time>
      </trkpt>
      <trkpt lat="44.82552" lon="6.95633">
        <ele>2200.6</ele>
        <time>2021-02-16T09:55:23Z</time>
      </trkpt>
      <trkpt lat="44.8255" lon="6.95639">
        <ele>2198.4</ele>
        <time>2021-02-16T09:55:33Z</time>
      </trkpt>
      <trkpt lat="44.82547" lon="6.95643">
        <ele>2200.2</ele>
        <time>2021-02-16T09:55:38Z</time>
      </trkpt>
      <trkpt lat="44.82545" lon="6.95647">
        <ele>2198.4</ele>
        <time>2021-02-16T09:55:44Z</time>
      </trkpt>
      <trkpt lat="44.82542" lon="6.95651">
        <ele>2201.8</ele>
        <time>2021-02-16T09:55:49Z</time>
      </trkpt>
      <trkpt lat="44.82539" lon="6.95655">
        <ele>2201.8</ele>
        <time>2021-02-16T09:55:54Z</time>
      </trkpt>
      <trkpt lat="44.82536" lon="6.95659">
        <ele>2200</ele>
        <time>2021-02-16T09:55:59Z</time>
      </trkpt>
      <trkpt lat="44.82533" lon="6.95662">
        <ele>2203</ele>
        <time>2021-02-16T09:56:04Z</time>
      </trkpt>
      <trkpt lat="44.8253" lon="6.95666">
        <ele>2201</ele>
        <time>2021-02-16T09:56:09Z</time>
      </trkpt>
      <trkpt lat="44.82527" lon="6.9567">
        <ele>2204.4</ele>
        <time>2021-02-16T09:56:17Z</time>
      </trkpt>
      <trkpt lat="44.82523" lon="6.95674">
        <ele>2201.8</ele>
        <time>2021-02-16T09:56:24Z</time>
      </trkpt>
      <trkpt lat="44.82519" lon="6.95678">
        <ele>2200.4</ele>
        <time>2021-02-16T09:56:32Z</time>
      </trkpt>
      <trkpt lat="44.82516" lon="6.9568">
        <ele>2204.2</ele>
        <time>2021-02-16T09:56:36Z</time>
      </trkpt>
      <trkpt lat="44.82512" lon="6.95683">
        <ele>2203.4</ele>
        <time>2021-02-16T09:56:42Z</time>
      </trkpt>
      <trkpt lat="44.82509" lon="6.95687">
        <ele>2204.6</ele>
        <time>2021-02-16T09:56:52Z</time>
      </trkpt>
      <trkpt lat="44.82513" lon="6.95687">
        <ele>2205.8</ele>
        <time>2021-02-16T09:57:05Z</time>
      </trkpt>
      <trkpt lat="44.82516" lon="6.9569">
        <ele>2208.6</ele>
        <time>2021-02-16T09:57:17Z</time>
      </trkpt>
      <trkpt lat="44.82515" lon="6.95696">
        <ele>2206.8</ele>
        <time>2021-02-16T09:57:25Z</time>
      </trkpt>
      <trkpt lat="44.82513" lon="6.95702">
        <ele>2207.6</ele>
        <time>2021-02-16T09:57:32Z</time>
      </trkpt>
      <trkpt lat="44.82509" lon="6.95707">
        <ele>2210.8</ele>
        <time>2021-02-16T09:57:39Z</time>
      </trkpt>
      <trkpt lat="44.82508" lon="6.95709">
        <ele>2206.4</ele>
        <time>2021-02-16T09:57:42Z</time>
      </trkpt>
      <trkpt lat="44.82507" lon="6.95712">
        <ele>2210.8</ele>
        <time>2021-02-16T09:57:47Z</time>
      </trkpt>
      <trkpt lat="44.82505" lon="6.95718">
        <ele>2208.8</ele>
        <time>2021-02-16T09:57:56Z</time>
      </trkpt>
      <trkpt lat="44.82502" lon="6.95723">
        <ele>2211.4</ele>
        <time>2021-02-16T09:58:02Z</time>
      </trkpt>
      <trkpt lat="44.82499" lon="6.95728">
        <ele>2213.2</ele>
        <time>2021-02-16T09:58:10Z</time>
      </trkpt>
      <trkpt lat="44.82497" lon="6.95732">
        <ele>2216.4</ele>
        <time>2021-02-16T09:58:17Z</time>
      </trkpt>
      <trkpt lat="44.82495" lon="6.95737">
        <ele>2214.6</ele>
        <time>2021-02-16T09:58:25Z</time>
      </trkpt>
      <trkpt lat="44.82492" lon="6.95743">
        <ele>2216.2</ele>
        <time>2021-02-16T09:58:33Z</time>
      </trkpt>
      <trkpt lat="44.82489" lon="6.95749">
        <ele>2217.8</ele>
        <time>2021-02-16T09:58:42Z</time>
      </trkpt>
      <trkpt lat="44.82492" lon="6.95745">
        <ele>2221.8</ele>
        <time>2021-02-16T09:59:23Z</time>
      </trkpt>
      <trkpt lat="44.82494" lon="6.9575">
        <ele>2224.8</ele>
        <time>2021-02-16T09:59:35Z</time>
      </trkpt>
      <trkpt lat="44.82493" lon="6.95755">
        <ele>2221.8</ele>
        <time>2021-02-16T09:59:40Z</time>
      </trkpt>
      <trkpt lat="44.82491" lon="6.95761">
        <ele>2223.8</ele>
        <time>2021-02-16T09:59:45Z</time>
      </trkpt>
      <trkpt lat="44.82488" lon="6.95767">
        <ele>2223.8</ele>
        <time>2021-02-16T09:59:51Z</time>
      </trkpt>
      <trkpt lat="44.82485" lon="6.95773">
        <ele>2222.8</ele>
        <time>2021-02-16T09:59:58Z</time>
      </trkpt>
      <trkpt lat="44.82483" lon="6.95777">
        <ele>2225.2</ele>
        <time>2021-02-16T10:00:06Z</time>
      </trkpt>
      <trkpt lat="44.82481" lon="6.95783">
        <ele>2228.6</ele>
        <time>2021-02-16T10:00:13Z</time>
      </trkpt>
      <trkpt lat="44.8248" lon="6.95788">
        <ele>2228.4</ele>
        <time>2021-02-16T10:00:19Z</time>
      </trkpt>
      <trkpt lat="44.82479" lon="6.95792">
        <ele>2225.6</ele>
        <time>2021-02-16T10:00:23Z</time>
      </trkpt>
      <trkpt lat="44.82478" lon="6.95796">
        <ele>2230.4</ele>
        <time>2021-02-16T10:00:30Z</time>
      </trkpt>
      <trkpt lat="44.82477" lon="6.95802">
        <ele>2233.2</ele>
        <time>2021-02-16T10:00:39Z</time>
      </trkpt>
      <trkpt lat="44.82476" lon="6.95803">
        <ele>2228.2</ele>
        <time>2021-02-16T10:00:41Z</time>
      </trkpt>
      <trkpt lat="44.82474" lon="6.9581">
        <ele>2230</ele>
        <time>2021-02-16T10:00:47Z</time>
      </trkpt>
      <trkpt lat="44.82473" lon="6.95814">
        <ele>2228</ele>
        <time>2021-02-16T10:00:51Z</time>
      </trkpt>
      <trkpt lat="44.82471" lon="6.95818">
        <ele>2230.6</ele>
        <time>2021-02-16T10:00:55Z</time>
      </trkpt>
      <trkpt lat="44.82469" lon="6.95824">
        <ele>2229.6</ele>
        <time>2021-02-16T10:01:00Z</time>
      </trkpt>
      <trkpt lat="44.82465" lon="6.95829">
        <ele>2227.8</ele>
        <time>2021-02-16T10:01:06Z</time>
      </trkpt>
      <trkpt lat="44.82462" lon="6.95834">
        <ele>2231.8</ele>
        <time>2021-02-16T10:01:13Z</time>
      </trkpt>
      <trkpt lat="44.82458" lon="6.95838">
        <ele>2229.4</ele>
        <time>2021-02-16T10:01:21Z</time>
      </trkpt>
      <trkpt lat="44.82455" lon="6.95842">
        <ele>2229.8</ele>
        <time>2021-02-16T10:01:31Z</time>
      </trkpt>
      <trkpt lat="44.82451" lon="6.95846">
        <ele>2228.4</ele>
        <time>2021-02-16T10:01:39Z</time>
      </trkpt>
      <trkpt lat="44.82448" lon="6.9585">
        <ele>2231</ele>
        <time>2021-02-16T10:01:44Z</time>
      </trkpt>
      <trkpt lat="44.82446" lon="6.95855">
        <ele>2233.2</ele>
        <time>2021-02-16T10:01:52Z</time>
      </trkpt>
      <trkpt lat="44.82445" lon="6.95861">
        <ele>2235</ele>
        <time>2021-02-16T10:02:06Z</time>
      </trkpt>
      <trkpt lat="44.82442" lon="6.95867">
        <ele>2234.8</ele>
        <time>2021-02-16T10:02:14Z</time>
      </trkpt>
      <trkpt lat="44.82438" lon="6.95871">
        <ele>2235.8</ele>
        <time>2021-02-16T10:02:20Z</time>
      </trkpt>
      <trkpt lat="44.82436" lon="6.95875">
        <ele>2238.2</ele>
        <time>2021-02-16T10:02:27Z</time>
      </trkpt>
      <trkpt lat="44.82433" lon="6.95879">
        <ele>2237.2</ele>
        <time>2021-02-16T10:02:36Z</time>
      </trkpt>
      <trkpt lat="44.82431" lon="6.95884">
        <ele>2235.4</ele>
        <time>2021-02-16T10:02:43Z</time>
      </trkpt>
      <trkpt lat="44.82429" lon="6.95891">
        <ele>2236.8</ele>
        <time>2021-02-16T10:02:51Z</time>
      </trkpt>
      <trkpt lat="44.82426" lon="6.95895">
        <ele>2241.6</ele>
        <time>2021-02-16T10:02:57Z</time>
      </trkpt>
      <trkpt lat="44.82424" lon="6.95901">
        <ele>2241.4</ele>
        <time>2021-02-16T10:03:08Z</time>
      </trkpt>
      <trkpt lat="44.82422" lon="6.95906">
        <ele>2243.6</ele>
        <time>2021-02-16T10:03:15Z</time>
      </trkpt>
      <trkpt lat="44.82421" lon="6.95912">
        <ele>2247.8</ele>
        <time>2021-02-16T10:03:23Z</time>
      </trkpt>
      <trkpt lat="44.82419" lon="6.95918">
        <ele>2247.6</ele>
        <time>2021-02-16T10:03:30Z</time>
      </trkpt>
      <trkpt lat="44.82417" lon="6.95923">
        <ele>2250</ele>
        <time>2021-02-16T10:03:38Z</time>
      </trkpt>
      <trkpt lat="44.82417" lon="6.95928">
        <ele>2245.8</ele>
        <time>2021-02-16T10:03:45Z</time>
      </trkpt>
      <trkpt lat="44.82415" lon="6.95932">
        <ele>2248</ele>
        <time>2021-02-16T10:03:50Z</time>
      </trkpt>
      <trkpt lat="44.82414" lon="6.95939">
        <ele>2248.8</ele>
        <time>2021-02-16T10:04:00Z</time>
      </trkpt>
      <trkpt lat="44.82411" lon="6.95944">
        <ele>2250.4</ele>
        <time>2021-02-16T10:04:07Z</time>
      </trkpt>
      <trkpt lat="44.82409" lon="6.95949">
        <ele>2251.6</ele>
        <time>2021-02-16T10:04:13Z</time>
      </trkpt>
      <trkpt lat="44.82407" lon="6.95953">
        <ele>2248.8</ele>
        <time>2021-02-16T10:04:18Z</time>
      </trkpt>
      <trkpt lat="44.82404" lon="6.95957">
        <ele>2252.4</ele>
        <time>2021-02-16T10:04:24Z</time>
      </trkpt>
      <trkpt lat="44.824" lon="6.95962">
        <ele>2250.6</ele>
        <time>2021-02-16T10:04:31Z</time>
      </trkpt>
      <trkpt lat="44.82396" lon="6.95965">
        <ele>2250.2</ele>
        <time>2021-02-16T10:04:38Z</time>
      </trkpt>
      <trkpt lat="44.82394" lon="6.9597">
        <ele>2253.8</ele>
        <time>2021-02-16T10:04:47Z</time>
      </trkpt>
      <trkpt lat="44.82391" lon="6.95976">
        <ele>2255.8</ele>
        <time>2021-02-16T10:04:57Z</time>
      </trkpt>
      <trkpt lat="44.82388" lon="6.9598">
        <ele>2253.2</ele>
        <time>2021-02-16T10:05:03Z</time>
      </trkpt>
      <trkpt lat="44.82386" lon="6.95984">
        <ele>2256</ele>
        <time>2021-02-16T10:05:10Z</time>
      </trkpt>
      <trkpt lat="44.82382" lon="6.95989">
        <ele>2252</ele>
        <time>2021-02-16T10:05:20Z</time>
      </trkpt>
      <trkpt lat="44.8238" lon="6.95993">
        <ele>2255.6</ele>
        <time>2021-02-16T10:05:27Z</time>
      </trkpt>
      <trkpt lat="44.82379" lon="6.95998">
        <ele>2257</ele>
        <time>2021-02-16T10:05:47Z</time>
      </trkpt>
      <trkpt lat="44.82377" lon="6.96004">
        <ele>2254.8</ele>
        <time>2021-02-16T10:05:56Z</time>
      </trkpt>
      <trkpt lat="44.82375" lon="6.9601">
        <ele>2252.4</ele>
        <time>2021-02-16T10:06:04Z</time>
      </trkpt>
      <trkpt lat="44.82374" lon="6.96014">
        <ele>2257.2</ele>
        <time>2021-02-16T10:06:11Z</time>
      </trkpt>
      <trkpt lat="44.82372" lon="6.9602">
        <ele>2258</ele>
        <time>2021-02-16T10:06:21Z</time>
      </trkpt>
      <trkpt lat="44.8237" lon="6.96026">
        <ele>2258.8</ele>
        <time>2021-02-16T10:06:31Z</time>
      </trkpt>
      <trkpt lat="44.82366" lon="6.96028">
        <ele>2257.2</ele>
        <time>2021-02-16T10:06:42Z</time>
      </trkpt>
      <trkpt lat="44.82361" lon="6.96025">
        <ele>2260.2</ele>
        <time>2021-02-16T10:06:51Z</time>
      </trkpt>
      <trkpt lat="44.82357" lon="6.96024">
        <ele>2262.2</ele>
        <time>2021-02-16T10:06:59Z</time>
      </trkpt>
      <trkpt lat="44.82354" lon="6.96025">
        <ele>2266.4</ele>
        <time>2021-02-16T10:07:05Z</time>
      </trkpt>
      <trkpt lat="44.8235" lon="6.96027">
        <ele>2265.6</ele>
        <time>2021-02-16T10:07:12Z</time>
      </trkpt>
      <trkpt lat="44.82345" lon="6.96029">
        <ele>2267.8</ele>
        <time>2021-02-16T10:07:23Z</time>
      </trkpt>
      <trkpt lat="44.82341" lon="6.96028">
        <ele>2267</ele>
        <time>2021-02-16T10:07:30Z</time>
      </trkpt>
      <trkpt lat="44.82337" lon="6.9603">
        <ele>2270.2</ele>
        <time>2021-02-16T10:07:40Z</time>
      </trkpt>
      <trkpt lat="44.82338" lon="6.96035">
        <ele>2272.2</ele>
        <time>2021-02-16T10:07:52Z</time>
      </trkpt>
      <trkpt lat="44.8234" lon="6.96041">
        <ele>2274.6</ele>
        <time>2021-02-16T10:08:02Z</time>
      </trkpt>
      <trkpt lat="44.82341" lon="6.96047">
        <ele>2276.6</ele>
        <time>2021-02-16T10:08:12Z</time>
      </trkpt>
      <trkpt lat="44.82342" lon="6.96054">
        <ele>2278</ele>
        <time>2021-02-16T10:08:24Z</time>
      </trkpt>
      <trkpt lat="44.82342" lon="6.9606">
        <ele>2280.4</ele>
        <time>2021-02-16T10:08:36Z</time>
      </trkpt>
      <trkpt lat="44.82342" lon="6.96066">
        <ele>2284.8</ele>
        <time>2021-02-16T10:08:49Z</time>
      </trkpt>
      <trkpt lat="44.82342" lon="6.96069">
        <ele>2281.6</ele>
        <time>2021-02-16T10:08:56Z</time>
      </trkpt>
      <trkpt lat="44.8234" lon="6.96075">
        <ele>2281.2</ele>
        <time>2021-02-16T10:09:07Z</time>
      </trkpt>
      <trkpt lat="44.82339" lon="6.96081">
        <ele>2278.4</ele>
        <time>2021-02-16T10:09:18Z</time>
      </trkpt>
      <trkpt lat="44.82337" lon="6.96086">
        <ele>2281.6</ele>
        <time>2021-02-16T10:09:28Z</time>
      </trkpt>
      <trkpt lat="44.82338" lon="6.96092">
        <ele>2283</ele>
        <time>2021-02-16T10:09:36Z</time>
      </trkpt>
      <trkpt lat="44.82339" lon="6.96098">
        <ele>2285.8</ele>
        <time>2021-02-16T10:09:45Z</time>
      </trkpt>
      <trkpt lat="44.8234" lon="6.96103">
        <ele>2290</ele>
        <time>2021-02-16T10:09:54Z</time>
      </trkpt>
      <trkpt lat="44.8234" lon="6.96108">
        <ele>2286.2</ele>
        <time>2021-02-16T10:10:03Z</time>
      </trkpt>
      <trkpt lat="44.82342" lon="6.96113">
        <ele>2285</ele>
        <time>2021-02-16T10:10:13Z</time>
      </trkpt>
      <trkpt lat="44.82342" lon="6.96119">
        <ele>2286.8</ele>
        <time>2021-02-16T10:10:26Z</time>
      </trkpt>
      <trkpt lat="44.82342" lon="6.96125">
        <ele>2292</ele>
        <time>2021-02-16T10:10:36Z</time>
      </trkpt>
      <trkpt lat="44.8234" lon="6.96131">
        <ele>2295.8</ele>
        <time>2021-02-16T10:10:45Z</time>
      </trkpt>
      <trkpt lat="44.82339" lon="6.96135">
        <ele>2291.8</ele>
        <time>2021-02-16T10:10:53Z</time>
      </trkpt>
      <trkpt lat="44.82339" lon="6.96138">
        <ele>2297</ele>
        <time>2021-02-16T10:10:59Z</time>
      </trkpt>
      <trkpt lat="44.82339" lon="6.96144">
        <ele>2296.6</ele>
        <time>2021-02-16T10:11:13Z</time>
      </trkpt>
      <trkpt lat="44.8234" lon="6.9615">
        <ele>2294.8</ele>
        <time>2021-02-16T10:11:26Z</time>
      </trkpt>
      <trkpt lat="44.8234" lon="6.96155">
        <ele>2298.8</ele>
        <time>2021-02-16T10:11:37Z</time>
      </trkpt>
      <trkpt lat="44.8234" lon="6.96161">
        <ele>2299.4</ele>
        <time>2021-02-16T10:11:49Z</time>
      </trkpt>
      <trkpt lat="44.82339" lon="6.96167">
        <ele>2301.2</ele>
        <time>2021-02-16T10:12:00Z</time>
      </trkpt>
      <trkpt lat="44.82339" lon="6.96173">
        <ele>2302</ele>
        <time>2021-02-16T10:12:14Z</time>
      </trkpt>
      <trkpt lat="44.82339" lon="6.96177">
        <ele>2306.6</ele>
        <time>2021-02-16T10:12:22Z</time>
      </trkpt>
      <trkpt lat="44.82339" lon="6.96182">
        <ele>2308.8</ele>
        <time>2021-02-16T10:12:32Z</time>
      </trkpt>
      <trkpt lat="44.82338" lon="6.96189">
        <ele>2308.2</ele>
        <time>2021-02-16T10:12:45Z</time>
      </trkpt>
      <trkpt lat="44.82337" lon="6.96194">
        <ele>2305.8</ele>
        <time>2021-02-16T10:12:54Z</time>
      </trkpt>
      <trkpt lat="44.82336" lon="6.962">
        <ele>2308.2</ele>
        <time>2021-02-16T10:13:04Z</time>
      </trkpt>
      <trkpt lat="44.82334" lon="6.96206">
        <ele>2310.4</ele>
        <time>2021-02-16T10:13:15Z</time>
      </trkpt>
      <trkpt lat="44.82332" lon="6.96212">
        <ele>2309</ele>
        <time>2021-02-16T10:13:28Z</time>
      </trkpt>
      <trkpt lat="44.8233" lon="6.96215">
        <ele>2312</ele>
        <time>2021-02-16T10:13:34Z</time>
      </trkpt>
      <trkpt lat="44.82327" lon="6.9622">
        <ele>2311.8</ele>
        <time>2021-02-16T10:13:44Z</time>
      </trkpt>
      <trkpt lat="44.82324" lon="6.96226">
        <ele>2312.4</ele>
        <time>2021-02-16T10:13:56Z</time>
      </trkpt>
      <trkpt lat="44.82328" lon="6.96229">
        <ele>2316.2</ele>
        <time>2021-02-16T10:14:12Z</time>
      </trkpt>
      <trkpt lat="44.8233" lon="6.96229">
        <ele>2311</ele>
        <time>2021-02-16T10:14:15Z</time>
      </trkpt>
      <trkpt lat="44.82332" lon="6.96231">
        <ele>2316.4</ele>
        <time>2021-02-16T10:14:23Z</time>
      </trkpt>
      <trkpt lat="44.82335" lon="6.96236">
        <ele>2315.8</ele>
        <time>2021-02-16T10:14:39Z</time>
      </trkpt>
      <trkpt lat="44.82334" lon="6.96241">
        <ele>2312.8</ele>
        <time>2021-02-16T10:14:49Z</time>
      </trkpt>
      <trkpt lat="44.82332" lon="6.96245">
        <ele>2316.8</ele>
        <time>2021-02-16T10:14:55Z</time>
      </trkpt>
      <trkpt lat="44.82331" lon="6.9625">
        <ele>2320.2</ele>
        <time>2021-02-16T10:15:03Z</time>
      </trkpt>
      <trkpt lat="44.8233" lon="6.96256">
        <ele>2321</ele>
        <time>2021-02-16T10:15:14Z</time>
      </trkpt>
      <trkpt lat="44.82332" lon="6.96261">
        <ele>2326</ele>
        <time>2021-02-16T10:15:26Z</time>
      </trkpt>
      <trkpt lat="44.82333" lon="6.96265">
        <ele>2328.6</ele>
        <time>2021-02-16T10:15:34Z</time>
      </trkpt>
      <trkpt lat="44.82335" lon="6.96271">
        <ele>2329.4</ele>
        <time>2021-02-16T10:15:50Z</time>
      </trkpt>
      <trkpt lat="44.82338" lon="6.96275">
        <ele>2326.4</ele>
        <time>2021-02-16T10:16:00Z</time>
      </trkpt>
      <trkpt lat="44.82341" lon="6.96278">
        <ele>2330.2</ele>
        <time>2021-02-16T10:16:08Z</time>
      </trkpt>
      <trkpt lat="44.82339" lon="6.96282">
        <ele>2324.8</ele>
        <time>2021-02-16T10:16:15Z</time>
      </trkpt>
      <trkpt lat="44.82337" lon="6.96286">
        <ele>2329.6</ele>
        <time>2021-02-16T10:16:22Z</time>
      </trkpt>
      <trkpt lat="44.82334" lon="6.96291">
        <ele>2328.2</ele>
        <time>2021-02-16T10:16:31Z</time>
      </trkpt>
      <trkpt lat="44.82331" lon="6.96293">
        <ele>2331.8</ele>
        <time>2021-02-16T10:16:37Z</time>
      </trkpt>
      <trkpt lat="44.82327" lon="6.96296">
        <ele>2330.4</ele>
        <time>2021-02-16T10:16:44Z</time>
      </trkpt>
      <trkpt lat="44.82323" lon="6.96299">
        <ele>2332.2</ele>
        <time>2021-02-16T10:16:52Z</time>
      </trkpt>
      <trkpt lat="44.8232" lon="6.96299">
        <ele>2328.8</ele>
        <time>2021-02-16T10:16:57Z</time>
      </trkpt>
      <trkpt lat="44.82318" lon="6.96298">
        <ele>2331.8</ele>
        <time>2021-02-16T10:17:03Z</time>
      </trkpt>
      <trkpt lat="44.82313" lon="6.96301">
        <ele>2333.4</ele>
        <time>2021-02-16T10:17:21Z</time>
      </trkpt>
      <trkpt lat="44.82309" lon="6.96303">
        <ele>2334.4</ele>
        <time>2021-02-16T10:17:33Z</time>
      </trkpt>
      <trkpt lat="44.82305" lon="6.96305">
        <ele>2337.2</ele>
        <time>2021-02-16T10:17:45Z</time>
      </trkpt>
      <trkpt lat="44.823" lon="6.96308">
        <ele>2338.8</ele>
        <time>2021-02-16T10:17:55Z</time>
      </trkpt>
      <trkpt lat="44.82297" lon="6.96311">
        <ele>2341</ele>
        <time>2021-02-16T10:18:09Z</time>
      </trkpt>
      <trkpt lat="44.82294" lon="6.96318">
        <ele>2343</ele>
        <time>2021-02-16T10:18:23Z</time>
      </trkpt>
      <trkpt lat="44.82292" lon="6.96323">
        <ele>2344.6</ele>
        <time>2021-02-16T10:18:37Z</time>
      </trkpt>
      <trkpt lat="44.82295" lon="6.96328">
        <ele>2343.2</ele>
        <time>2021-02-16T10:18:47Z</time>
      </trkpt>
      <trkpt lat="44.82299" lon="6.96331">
        <ele>2345.4</ele>
        <time>2021-02-16T10:18:56Z</time>
      </trkpt>
      <trkpt lat="44.82302" lon="6.96336">
        <ele>2345</ele>
        <time>2021-02-16T10:19:10Z</time>
      </trkpt>
      <trkpt lat="44.82305" lon="6.96339">
        <ele>2348</ele>
        <time>2021-02-16T10:19:20Z</time>
      </trkpt>
      <trkpt lat="44.82308" lon="6.96345">
        <ele>2348</ele>
        <time>2021-02-16T10:19:33Z</time>
      </trkpt>
      <trkpt lat="44.8231" lon="6.9635">
        <ele>2350</ele>
        <time>2021-02-16T10:19:46Z</time>
      </trkpt>
      <trkpt lat="44.82313" lon="6.96356">
        <ele>2349.2</ele>
        <time>2021-02-16T10:19:56Z</time>
      </trkpt>
      <trkpt lat="44.82315" lon="6.96361">
        <ele>2350.8</ele>
        <time>2021-02-16T10:20:07Z</time>
      </trkpt>
      <trkpt lat="44.82314" lon="6.96367">
        <ele>2350.6</ele>
        <time>2021-02-16T10:20:15Z</time>
      </trkpt>
      <trkpt lat="44.82312" lon="6.96372">
        <ele>2353.6</ele>
        <time>2021-02-16T10:20:23Z</time>
      </trkpt>
      <trkpt lat="44.8231" lon="6.96375">
        <ele>2356.8</ele>
        <time>2021-02-16T10:20:28Z</time>
      </trkpt>
      <trkpt lat="44.82307" lon="6.96379">
        <ele>2359</ele>
        <time>2021-02-16T10:20:36Z</time>
      </trkpt>
      <trkpt lat="44.82305" lon="6.96383">
        <ele>2355.4</ele>
        <time>2021-02-16T10:20:43Z</time>
      </trkpt>
      <trkpt lat="44.82305" lon="6.96386">
        <ele>2359.6</ele>
        <time>2021-02-16T10:20:49Z</time>
      </trkpt>
      <trkpt lat="44.82305" lon="6.96393">
        <ele>2357.6</ele>
        <time>2021-02-16T10:21:03Z</time>
      </trkpt>
      <trkpt lat="44.82305" lon="6.96398">
        <ele>2354.2</ele>
        <time>2021-02-16T10:21:12Z</time>
      </trkpt>
      <trkpt lat="44.82305" lon="6.96399">
        <ele>2360.6</ele>
        <time>2021-02-16T10:21:14Z</time>
      </trkpt>
      <trkpt lat="44.82306" lon="6.96402">
        <ele>2356.8</ele>
        <time>2021-02-16T10:21:21Z</time>
      </trkpt>
      <trkpt lat="44.82306" lon="6.96406">
        <ele>2359.4</ele>
        <time>2021-02-16T10:21:28Z</time>
      </trkpt>
      <trkpt lat="44.82305" lon="6.96412">
        <ele>2360.4</ele>
        <time>2021-02-16T10:21:39Z</time>
      </trkpt>
      <trkpt lat="44.82302" lon="6.96415">
        <ele>2362.4</ele>
        <time>2021-02-16T10:21:48Z</time>
      </trkpt>
      <trkpt lat="44.82299" lon="6.96419">
        <ele>2360.8</ele>
        <time>2021-02-16T10:21:58Z</time>
      </trkpt>
      <trkpt lat="44.82296" lon="6.96421">
        <ele>2364.2</ele>
        <time>2021-02-16T10:22:04Z</time>
      </trkpt>
      <trkpt lat="44.82292" lon="6.96423">
        <ele>2368.2</ele>
        <time>2021-02-16T10:22:14Z</time>
      </trkpt>
      <trkpt lat="44.82288" lon="6.96425">
        <ele>2369.8</ele>
        <time>2021-02-16T10:22:23Z</time>
      </trkpt>
      <trkpt lat="44.82284" lon="6.96427">
        <ele>2372</ele>
        <time>2021-02-16T10:22:33Z</time>
      </trkpt>
      <trkpt lat="44.8228" lon="6.96431">
        <ele>2374</ele>
        <time>2021-02-16T10:22:42Z</time>
      </trkpt>
      <trkpt lat="44.82279" lon="6.96435">
        <ele>2369.8</ele>
        <time>2021-02-16T10:22:50Z</time>
      </trkpt>
      <trkpt lat="44.82278" lon="6.96441">
        <ele>2371</ele>
        <time>2021-02-16T10:23:02Z</time>
      </trkpt>
      <trkpt lat="44.82278" lon="6.96447">
        <ele>2371</ele>
        <time>2021-02-16T10:23:20Z</time>
      </trkpt>
      <trkpt lat="44.8228" lon="6.96451">
        <ele>2374.8</ele>
        <time>2021-02-16T10:23:30Z</time>
      </trkpt>
      <trkpt lat="44.82279" lon="6.96456">
        <ele>2381</ele>
        <time>2021-02-16T10:23:40Z</time>
      </trkpt>
      <trkpt lat="44.82277" lon="6.9646">
        <ele>2378.8</ele>
        <time>2021-02-16T10:23:49Z</time>
      </trkpt>
      <trkpt lat="44.82273" lon="6.96464">
        <ele>2377</ele>
        <time>2021-02-16T10:24:00Z</time>
      </trkpt>
      <trkpt lat="44.82273" lon="6.96465">
        <ele>2382</ele>
        <time>2021-02-16T10:24:04Z</time>
      </trkpt>
      <trkpt lat="44.8227" lon="6.96469">
        <ele>2385</ele>
        <time>2021-02-16T10:24:13Z</time>
      </trkpt>
      <trkpt lat="44.82267" lon="6.96472">
        <ele>2381.4</ele>
        <time>2021-02-16T10:24:22Z</time>
      </trkpt>
      <trkpt lat="44.82264" lon="6.96477">
        <ele>2383</ele>
        <time>2021-02-16T10:24:32Z</time>
      </trkpt>
      <trkpt lat="44.82261" lon="6.96482">
        <ele>2385</ele>
        <time>2021-02-16T10:24:43Z</time>
      </trkpt>
      <trkpt lat="44.82259" lon="6.96487">
        <ele>2383</ele>
        <time>2021-02-16T10:24:54Z</time>
      </trkpt>
      <trkpt lat="44.82257" lon="6.96491">
        <ele>2386.6</ele>
        <time>2021-02-16T10:25:02Z</time>
      </trkpt>
      <trkpt lat="44.82257" lon="6.96497">
        <ele>2389.4</ele>
        <time>2021-02-16T10:25:14Z</time>
      </trkpt>
      <trkpt lat="44.82256" lon="6.96501">
        <ele>2395</ele>
        <time>2021-02-16T10:25:22Z</time>
      </trkpt>
      <trkpt lat="44.82255" lon="6.96506">
        <ele>2397.4</ele>
        <time>2021-02-16T10:25:31Z</time>
      </trkpt>
      <trkpt lat="44.82254" lon="6.96511">
        <ele>2395</ele>
        <time>2021-02-16T10:25:40Z</time>
      </trkpt>
      <trkpt lat="44.82252" lon="6.96518">
        <ele>2394.8</ele>
        <time>2021-02-16T10:25:51Z</time>
      </trkpt>
      <trkpt lat="44.82253" lon="6.96524">
        <ele>2397.4</ele>
        <time>2021-02-16T10:26:29Z</time>
      </trkpt>
      <trkpt lat="44.82255" lon="6.96528">
        <ele>2400</ele>
        <time>2021-02-16T10:35:24Z</time>
      </trkpt>
      <trkpt lat="44.82255" lon="6.96532">
        <ele>2403.8</ele>
        <time>2021-02-16T10:35:30Z</time>
      </trkpt>
      <trkpt lat="44.82257" lon="6.96539">
        <ele>2401.6</ele>
        <time>2021-02-16T10:35:39Z</time>
      </trkpt>
      <trkpt lat="44.82257" lon="6.96545">
        <ele>2402.8</ele>
        <time>2021-02-16T10:35:47Z</time>
      </trkpt>
      <trkpt lat="44.82256" lon="6.9655">
        <ele>2407.6</ele>
        <time>2021-02-16T10:35:53Z</time>
      </trkpt>
      <trkpt lat="44.82255" lon="6.96556">
        <ele>2405</ele>
        <time>2021-02-16T10:36:02Z</time>
      </trkpt>
      <trkpt lat="44.82254" lon="6.96561">
        <ele>2408.4</ele>
        <time>2021-02-16T10:36:08Z</time>
      </trkpt>
      <trkpt lat="44.82253" lon="6.96568">
        <ele>2408.6</ele>
        <time>2021-02-16T10:36:16Z</time>
      </trkpt>
      <trkpt lat="44.82253" lon="6.96573">
        <ele>2405.6</ele>
        <time>2021-02-16T10:36:22Z</time>
      </trkpt>
      <trkpt lat="44.82254" lon="6.96578">
        <ele>2409</ele>
        <time>2021-02-16T10:36:29Z</time>
      </trkpt>
      <trkpt lat="44.82255" lon="6.96582">
        <ele>2405.2</ele>
        <time>2021-02-16T10:36:36Z</time>
      </trkpt>
      <trkpt lat="44.82256" lon="6.96585">
        <ele>2409</ele>
        <time>2021-02-16T10:36:43Z</time>
      </trkpt>
      <trkpt lat="44.82259" lon="6.96591">
        <ele>2407.2</ele>
        <time>2021-02-16T10:36:51Z</time>
      </trkpt>
      <trkpt lat="44.82258" lon="6.96596">
        <ele>2405.6</ele>
        <time>2021-02-16T10:36:57Z</time>
      </trkpt>
      <trkpt lat="44.82256" lon="6.96601">
        <ele>2409.4</ele>
        <time>2021-02-16T10:37:03Z</time>
      </trkpt>
      <trkpt lat="44.82252" lon="6.96604">
        <ele>2410.6</ele>
        <time>2021-02-16T10:37:11Z</time>
      </trkpt>
      <trkpt lat="44.82247" lon="6.96605">
        <ele>2409.4</ele>
        <time>2021-02-16T10:37:18Z</time>
      </trkpt>
      <trkpt lat="44.82242" lon="6.96607">
        <ele>2411</ele>
        <time>2021-02-16T10:37:25Z</time>
      </trkpt>
      <trkpt lat="44.82238" lon="6.96611">
        <ele>2413</ele>
        <time>2021-02-16T10:38:31Z</time>
      </trkpt>
      <trkpt lat="44.82235" lon="6.96615">
        <ele>2411.8</ele>
        <time>2021-02-16T10:38:37Z</time>
      </trkpt>
      <trkpt lat="44.82231" lon="6.96619">
        <ele>2414</ele>
        <time>2021-02-16T10:38:43Z</time>
      </trkpt>
      <trkpt lat="44.82228" lon="6.96623">
        <ele>2412.4</ele>
        <time>2021-02-16T10:38:50Z</time>
      </trkpt>
      <trkpt lat="44.82224" lon="6.96629">
        <ele>2411.6</ele>
        <time>2021-02-16T10:38:57Z</time>
      </trkpt>
      <trkpt lat="44.82221" lon="6.96633">
        <ele>2413.4</ele>
        <time>2021-02-16T10:39:02Z</time>
      </trkpt>
      <trkpt lat="44.82217" lon="6.96635">
        <ele>2415.8</ele>
        <time>2021-02-16T10:39:08Z</time>
      </trkpt>
      <trkpt lat="44.82213" lon="6.96635">
        <ele>2412.8</ele>
        <time>2021-02-16T10:39:11Z</time>
      </trkpt>
      <trkpt lat="44.82208" lon="6.96635">
        <ele>2413.8</ele>
        <time>2021-02-16T10:39:15Z</time>
      </trkpt>
      <trkpt lat="44.82204" lon="6.96636">
        <ele>2412.2</ele>
        <time>2021-02-16T10:39:21Z</time>
      </trkpt>
      <trkpt lat="44.82201" lon="6.96637">
        <ele>2415.4</ele>
        <time>2021-02-16T10:39:25Z</time>
      </trkpt>
      <trkpt lat="44.82199" lon="6.96638">
        <ele>2409.8</ele>
        <time>2021-02-16T10:39:28Z</time>
      </trkpt>
      <trkpt lat="44.82197" lon="6.96639">
        <ele>2414.2</ele>
        <time>2021-02-16T10:39:30Z</time>
      </trkpt>
      <trkpt lat="44.82194" lon="6.9664">
        <ele>2410</ele>
        <time>2021-02-16T10:39:36Z</time>
      </trkpt>
      <trkpt lat="44.82191" lon="6.96641">
        <ele>2414.2</ele>
        <time>2021-02-16T10:39:41Z</time>
      </trkpt>
      <trkpt lat="44.82187" lon="6.96645">
        <ele>2413.8</ele>
        <time>2021-02-16T10:39:50Z</time>
      </trkpt>
      <trkpt lat="44.82185" lon="6.96649">
        <ele>2417</ele>
        <time>2021-02-16T10:39:57Z</time>
      </trkpt>
      <trkpt lat="44.82183" lon="6.96653">
        <ele>2411.2</ele>
        <time>2021-02-16T10:40:04Z</time>
      </trkpt>
      <trkpt lat="44.82182" lon="6.96654">
        <ele>2417.8</ele>
        <time>2021-02-16T10:40:06Z</time>
      </trkpt>
      <trkpt lat="44.82179" lon="6.96657">
        <ele>2414.4</ele>
        <time>2021-02-16T10:40:12Z</time>
      </trkpt>
      <trkpt lat="44.82177" lon="6.9666">
        <ele>2418.4</ele>
        <time>2021-02-16T10:40:17Z</time>
      </trkpt>
      <trkpt lat="44.82175" lon="6.96665">
        <ele>2417</ele>
        <time>2021-02-16T10:40:25Z</time>
      </trkpt>
      <trkpt lat="44.82173" lon="6.96671">
        <ele>2418.4</ele>
        <time>2021-02-16T10:40:38Z</time>
      </trkpt>
      <trkpt lat="44.8217" lon="6.96676">
        <ele>2417</ele>
        <time>2021-02-16T10:40:49Z</time>
      </trkpt>
      <trkpt lat="44.82169" lon="6.96679">
        <ele>2422.8</ele>
        <time>2021-02-16T10:40:55Z</time>
      </trkpt>
      <trkpt lat="44.82166" lon="6.96682">
        <ele>2420.6</ele>
        <time>2021-02-16T10:41:02Z</time>
      </trkpt>
      <trkpt lat="44.82164" lon="6.96686">
        <ele>2423.8</ele>
        <time>2021-02-16T10:41:11Z</time>
      </trkpt>
      <trkpt lat="44.82162" lon="6.96692">
        <ele>2423.6</ele>
        <time>2021-02-16T10:41:30Z</time>
      </trkpt>
      <trkpt lat="44.82162" lon="6.96698">
        <ele>2424.2</ele>
        <time>2021-02-16T10:41:48Z</time>
      </trkpt>
      <trkpt lat="44.82161" lon="6.96701">
        <ele>2430.8</ele>
        <time>2021-02-16T10:41:56Z</time>
      </trkpt>
      <trkpt lat="44.82164" lon="6.96705">
        <ele>2432.2</ele>
        <time>2021-02-16T10:42:12Z</time>
      </trkpt>
      <trkpt lat="44.82166" lon="6.96709">
        <ele>2436</ele>
        <time>2021-02-16T10:42:26Z</time>
      </trkpt>
      <trkpt lat="44.82171" lon="6.96712">
        <ele>2434.6</ele>
        <time>2021-02-16T10:42:40Z</time>
      </trkpt>
      <trkpt lat="44.82173" lon="6.96711">
        <ele>2439.4</ele>
        <time>2021-02-16T10:42:45Z</time>
      </trkpt>
      <trkpt lat="44.82176" lon="6.96709">
        <ele>2434</ele>
        <time>2021-02-16T10:42:54Z</time>
      </trkpt>
      <trkpt lat="44.82177" lon="6.96708">
        <ele>2438.4</ele>
        <time>2021-02-16T10:42:59Z</time>
      </trkpt>
      <trkpt lat="44.82182" lon="6.96708">
        <ele>2440.4</ele>
        <time>2021-02-16T10:43:09Z</time>
      </trkpt>
      <trkpt lat="44.82184" lon="6.96708">
        <ele>2436.2</ele>
        <time>2021-02-16T10:43:15Z</time>
      </trkpt>
      <trkpt lat="44.82189" lon="6.96709">
        <ele>2439.2</ele>
        <time>2021-02-16T10:43:31Z</time>
      </trkpt>
      <trkpt lat="44.82192" lon="6.96713">
        <ele>2435.4</ele>
        <time>2021-02-16T10:43:44Z</time>
      </trkpt>
      <trkpt lat="44.82192" lon="6.96716">
        <ele>2441</ele>
        <time>2021-02-16T10:43:53Z</time>
      </trkpt>
      <trkpt lat="44.82192" lon="6.9672">
        <ele>2445.4</ele>
        <time>2021-02-16T10:44:03Z</time>
      </trkpt>
      <trkpt lat="44.82191" lon="6.96726">
        <ele>2442</ele>
        <time>2021-02-16T10:44:16Z</time>
      </trkpt>
      <trkpt lat="44.82191" lon="6.96731">
        <ele>2444</ele>
        <time>2021-02-16T10:44:28Z</time>
      </trkpt>
      <trkpt lat="44.82189" lon="6.96734">
        <ele>2449</ele>
        <time>2021-02-16T10:44:46Z</time>
      </trkpt>
      <trkpt lat="44.82188" lon="6.9674">
        <ele>2449.4</ele>
        <time>2021-02-16T10:44:57Z</time>
      </trkpt>
      <trkpt lat="44.82186" lon="6.96744">
        <ele>2446.6</ele>
        <time>2021-02-16T10:45:08Z</time>
      </trkpt>
      <trkpt lat="44.82186" lon="6.96745">
        <ele>2451.8</ele>
        <time>2021-02-16T10:45:12Z</time>
      </trkpt>
      <trkpt lat="44.8219" lon="6.96742">
        <ele>2451</ele>
        <time>2021-02-16T10:45:47Z</time>
      </trkpt>
      <trkpt lat="44.82189" lon="6.96747">
        <ele>2455.4</ele>
        <time>2021-02-16T10:46:05Z</time>
      </trkpt>
      <trkpt lat="44.82194" lon="6.9675">
        <ele>2455.4</ele>
        <time>2021-02-16T10:47:09Z</time>
      </trkpt>
      <trkpt lat="44.82193" lon="6.96756">
        <ele>2458.8</ele>
        <time>2021-02-16T10:47:43Z</time>
      </trkpt>
      <trkpt lat="44.82191" lon="6.96762">
        <ele>2460</ele>
        <time>2021-02-16T10:47:52Z</time>
      </trkpt>
      <trkpt lat="44.82189" lon="6.96768">
        <ele>2460.2</ele>
        <time>2021-02-16T10:48:04Z</time>
      </trkpt>
      <trkpt lat="44.82187" lon="6.96773">
        <ele>2464</ele>
        <time>2021-02-16T10:48:37Z</time>
      </trkpt>
      <trkpt lat="44.82192" lon="6.96775">
        <ele>2465</ele>
        <time>2021-02-16T10:49:12Z</time>
      </trkpt>
      <trkpt lat="44.82197" lon="6.96774">
        <ele>2465.6</ele>
        <time>2021-02-16T10:49:26Z</time>
      </trkpt>
      <trkpt lat="44.82201" lon="6.96773">
        <ele>2467.2</ele>
        <time>2021-02-16T10:49:36Z</time>
      </trkpt>
      <trkpt lat="44.82206" lon="6.96774">
        <ele>2467.6</ele>
        <time>2021-02-16T10:49:47Z</time>
      </trkpt>
      <trkpt lat="44.8221" lon="6.96773">
        <ele>2471</ele>
        <time>2021-02-16T10:49:57Z</time>
      </trkpt>
      <trkpt lat="44.82214" lon="6.96773">
        <ele>2472.6</ele>
        <time>2021-02-16T10:50:12Z</time>
      </trkpt>
      <trkpt lat="44.82217" lon="6.96776">
        <ele>2473.2</ele>
        <time>2021-02-16T10:50:23Z</time>
      </trkpt>
      <trkpt lat="44.82216" lon="6.96781">
        <ele>2477</ele>
        <time>2021-02-16T10:50:34Z</time>
      </trkpt>
      <trkpt lat="44.82216" lon="6.96787">
        <ele>2477.4</ele>
        <time>2021-02-16T10:50:45Z</time>
      </trkpt>
      <trkpt lat="44.82216" lon="6.96791">
        <ele>2471.4</ele>
        <time>2021-02-16T10:50:54Z</time>
      </trkpt>
      <trkpt lat="44.82216" lon="6.96793">
        <ele>2476.4</ele>
        <time>2021-02-16T10:50:57Z</time>
      </trkpt>
      <trkpt lat="44.82218" lon="6.96797">
        <ele>2473.6</ele>
        <time>2021-02-16T10:51:10Z</time>
      </trkpt>
      <trkpt lat="44.82222" lon="6.96798">
        <ele>2474.8</ele>
        <time>2021-02-16T10:51:26Z</time>
      </trkpt>
      <trkpt lat="44.82224" lon="6.96799">
        <ele>2481.2</ele>
        <time>2021-02-16T10:51:31Z</time>
      </trkpt>
      <trkpt lat="44.82228" lon="6.968">
        <ele>2483.6</ele>
        <time>2021-02-16T10:51:44Z</time>
      </trkpt>
      <trkpt lat="44.82232" lon="6.96801">
        <ele>2484.2</ele>
        <time>2021-02-16T10:51:58Z</time>
      </trkpt>
      <trkpt lat="44.82233" lon="6.96807">
        <ele>2485.6</ele>
        <time>2021-02-16T10:52:11Z</time>
      </trkpt>
      <trkpt lat="44.82234" lon="6.96814">
        <ele>2485</ele>
        <time>2021-02-16T10:52:26Z</time>
      </trkpt>
      <trkpt lat="44.82237" lon="6.96815">
        <ele>2490.4</ele>
        <time>2021-02-16T10:52:40Z</time>
      </trkpt>
      <trkpt lat="44.82242" lon="6.96813">
        <ele>2490</ele>
        <time>2021-02-16T10:52:50Z</time>
      </trkpt>
      <trkpt lat="44.82247" lon="6.96811">
        <ele>2490.6</ele>
        <time>2021-02-16T10:53:01Z</time>
      </trkpt>
      <trkpt lat="44.82249" lon="6.96809">
        <ele>2494.6</ele>
        <time>2021-02-16T10:53:08Z</time>
      </trkpt>
      <trkpt lat="44.82252" lon="6.96807">
        <ele>2492.6</ele>
        <time>2021-02-16T10:53:19Z</time>
      </trkpt>
      <trkpt lat="44.82254" lon="6.96807">
        <ele>2496.8</ele>
        <time>2021-02-16T10:53:29Z</time>
      </trkpt>
      <trkpt lat="44.82258" lon="6.96808">
        <ele>2500.4</ele>
        <time>2021-02-16T10:53:42Z</time>
      </trkpt>
      <trkpt lat="44.82261" lon="6.96808">
        <ele>2497.8</ele>
        <time>2021-02-16T10:53:52Z</time>
      </trkpt>
      <trkpt lat="44.82264" lon="6.96808">
        <ele>2501.2</ele>
        <time>2021-02-16T10:54:04Z</time>
      </trkpt>
      <trkpt lat="44.82268" lon="6.96808">
        <ele>2504.4</ele>
        <time>2021-02-16T10:54:17Z</time>
      </trkpt>
      <trkpt lat="44.82272" lon="6.96809">
        <ele>2503</ele>
        <time>2021-02-16T10:54:29Z</time>
      </trkpt>
      <trkpt lat="44.82275" lon="6.9681">
        <ele>2498.2</ele>
        <time>2021-02-16T10:54:35Z</time>
      </trkpt>
      <trkpt lat="44.82277" lon="6.9681">
        <ele>2502.4</ele>
        <time>2021-02-16T10:54:39Z</time>
      </trkpt>
      <trkpt lat="44.82282" lon="6.96812">
        <ele>2503.6</ele>
        <time>2021-02-16T10:54:48Z</time>
      </trkpt>
      <trkpt lat="44.82286" lon="6.96813">
        <ele>2505.4</ele>
        <time>2021-02-16T10:54:59Z</time>
      </trkpt>
      <trkpt lat="44.8229" lon="6.96816">
        <ele>2510</ele>
        <time>2021-02-16T10:55:11Z</time>
      </trkpt>
      <trkpt lat="44.82294" lon="6.96817">
        <ele>2509.6</ele>
        <time>2021-02-16T10:55:23Z</time>
      </trkpt>
      <trkpt lat="44.82298" lon="6.96818">
        <ele>2511.6</ele>
        <time>2021-02-16T10:55:34Z</time>
      </trkpt>
      <trkpt lat="44.82303" lon="6.96821">
        <ele>2511.4</ele>
        <time>2021-02-16T10:55:45Z</time>
      </trkpt>
      <trkpt lat="44.82307" lon="6.96823">
        <ele>2511.8</ele>
        <time>2021-02-16T10:55:55Z</time>
      </trkpt>
      <trkpt lat="44.82311" lon="6.96826">
        <ele>2514.4</ele>
        <time>2021-02-16T10:56:05Z</time>
      </trkpt>
      <trkpt lat="44.82315" lon="6.96829">
        <ele>2512.2</ele>
        <time>2021-02-16T10:56:15Z</time>
      </trkpt>
      <trkpt lat="44.82318" lon="6.96832">
        <ele>2513.2</ele>
        <time>2021-02-16T10:56:26Z</time>
      </trkpt>
      <trkpt lat="44.82321" lon="6.96834">
        <ele>2519</ele>
        <time>2021-02-16T10:56:33Z</time>
      </trkpt>
      <trkpt lat="44.82324" lon="6.96837">
        <ele>2519</ele>
        <time>2021-02-16T10:56:47Z</time>
      </trkpt>
      <trkpt lat="44.82327" lon="6.96841">
        <ele>2521.2</ele>
        <time>2021-02-16T10:56:59Z</time>
      </trkpt>
      <trkpt lat="44.82329" lon="6.96844">
        <ele>2518</ele>
        <time>2021-02-16T10:57:07Z</time>
      </trkpt>
      <trkpt lat="44.82331" lon="6.96847">
        <ele>2522.2</ele>
        <time>2021-02-16T10:57:18Z</time>
      </trkpt>
      <trkpt lat="44.82333" lon="6.96851">
        <ele>2525.2</ele>
        <time>2021-02-16T10:57:29Z</time>
      </trkpt>
      <trkpt lat="44.82335" lon="6.96855">
        <ele>2529.8</ele>
        <time>2021-02-16T10:57:41Z</time>
      </trkpt>
      <trkpt lat="44.82337" lon="6.96859">
        <ele>2527.4</ele>
        <time>2021-02-16T10:57:54Z</time>
      </trkpt>
      <trkpt lat="44.82339" lon="6.96862">
        <ele>2532</ele>
        <time>2021-02-16T10:58:02Z</time>
      </trkpt>
      <trkpt lat="44.82342" lon="6.96868">
        <ele>2531.6</ele>
        <time>2021-02-16T10:58:18Z</time>
      </trkpt>
      <trkpt lat="44.82344" lon="6.9687">
        <ele>2527.4</ele>
        <time>2021-02-16T10:58:25Z</time>
      </trkpt>
      <trkpt lat="44.82346" lon="6.96873">
        <ele>2531.6</ele>
        <time>2021-02-16T10:58:35Z</time>
      </trkpt>
      <trkpt lat="44.8235" lon="6.96874">
        <ele>2536.6</ele>
        <time>2021-02-16T10:58:49Z</time>
      </trkpt>
      <trkpt lat="44.82354" lon="6.96875">
        <ele>2535.8</ele>
        <time>2021-02-16T10:59:07Z</time>
      </trkpt>
      <trkpt lat="44.82358" lon="6.96875">
        <ele>2538</ele>
        <time>2021-02-16T10:59:15Z</time>
      </trkpt>
      <trkpt lat="44.82363" lon="6.96876">
        <ele>2535.8</ele>
        <time>2021-02-16T10:59:23Z</time>
      </trkpt>
      <trkpt lat="44.82366" lon="6.96878">
        <ele>2536.2</ele>
        <time>2021-02-16T10:59:30Z</time>
      </trkpt>
      <trkpt lat="44.82371" lon="6.96878">
        <ele>2534.4</ele>
        <time>2021-02-16T10:59:42Z</time>
      </trkpt>
      <trkpt lat="44.82374" lon="6.96877">
        <ele>2537.4</ele>
        <time>2021-02-16T10:59:50Z</time>
      </trkpt>
      <trkpt lat="44.82379" lon="6.9688">
        <ele>2537.6</ele>
        <time>2021-02-16T11:00:41Z</time>
      </trkpt>
      <trkpt lat="44.82383" lon="6.96883">
        <ele>2539</ele>
        <time>2021-02-16T11:00:49Z</time>
      </trkpt>
      <trkpt lat="44.82387" lon="6.96887">
        <ele>2540.8</ele>
        <time>2021-02-16T11:00:59Z</time>
      </trkpt>
      <trkpt lat="44.82389" lon="6.96891">
        <ele>2543.2</ele>
        <time>2021-02-16T11:01:13Z</time>
      </trkpt>
      <trkpt lat="44.82393" lon="6.96887">
        <ele>2543.6</ele>
        <time>2021-02-16T11:01:25Z</time>
      </trkpt>
      <trkpt lat="44.82397" lon="6.96883">
        <ele>2540.4</ele>
        <time>2021-02-16T11:01:38Z</time>
      </trkpt>
      <trkpt lat="44.824" lon="6.96881">
        <ele>2544.8</ele>
        <time>2021-02-16T11:01:45Z</time>
      </trkpt>
      <trkpt lat="44.82402" lon="6.96879">
        <ele>2548.4</ele>
        <time>2021-02-16T11:01:54Z</time>
      </trkpt>
      <trkpt lat="44.82406" lon="6.96875">
        <ele>2550.2</ele>
        <time>2021-02-16T11:02:06Z</time>
      </trkpt>
      <trkpt lat="44.8241" lon="6.96869">
        <ele>2550.4</ele>
        <time>2021-02-16T11:02:19Z</time>
      </trkpt>
      <trkpt lat="44.82411" lon="6.96873">
        <ele>2555.4</ele>
        <time>2021-02-16T11:02:34Z</time>
      </trkpt>
      <trkpt lat="44.82411" lon="6.96879">
        <ele>2555.2</ele>
        <time>2021-02-16T11:02:43Z</time>
      </trkpt>
      <trkpt lat="44.82411" lon="6.96885">
        <ele>2555.6</ele>
        <time>2021-02-16T11:02:57Z</time>
      </trkpt>
      <trkpt lat="44.82411" lon="6.96891">
        <ele>2555</ele>
        <time>2021-02-16T11:03:09Z</time>
      </trkpt>
      <trkpt lat="44.82412" lon="6.96898">
        <ele>2556</ele>
        <time>2021-02-16T11:03:20Z</time>
      </trkpt>
      <trkpt lat="44.82414" lon="6.96901">
        <ele>2558.6</ele>
        <time>2021-02-16T11:03:35Z</time>
      </trkpt>
      <trkpt lat="44.82416" lon="6.96901">
        <ele>2552.6</ele>
        <time>2021-02-16T11:03:41Z</time>
      </trkpt>
      <trkpt lat="44.8242" lon="6.969">
        <ele>2556.2</ele>
        <time>2021-02-16T11:03:49Z</time>
      </trkpt>
      <trkpt lat="44.82421" lon="6.96905">
        <ele>2559.6</ele>
        <time>2021-02-16T11:04:00Z</time>
      </trkpt>
      <trkpt lat="44.82419" lon="6.96911">
        <ele>2557.6</ele>
        <time>2021-02-16T11:04:10Z</time>
      </trkpt>
      <trkpt lat="44.82419" lon="6.96917">
        <ele>2561.4</ele>
        <time>2021-02-16T11:04:20Z</time>
      </trkpt>
      <trkpt lat="44.82419" lon="6.96923">
        <ele>2565.8</ele>
        <time>2021-02-16T11:04:29Z</time>
      </trkpt>
      <trkpt lat="44.82419" lon="6.96927">
        <ele>2570.6</ele>
        <time>2021-02-16T11:04:36Z</time>
      </trkpt>
      <trkpt lat="44.8242" lon="6.96931">
        <ele>2569</ele>
        <time>2021-02-16T11:04:45Z</time>
      </trkpt>
      <trkpt lat="44.82422" lon="6.96931">
        <ele>2563.2</ele>
        <time>2021-02-16T11:04:49Z</time>
      </trkpt>
      <trkpt lat="44.82424" lon="6.96931">
        <ele>2567.4</ele>
        <time>2021-02-16T11:04:54Z</time>
      </trkpt>
      <trkpt lat="44.82425" lon="6.96931">
        <ele>2572.6</ele>
        <time>2021-02-16T11:05:00Z</time>
      </trkpt>
      <trkpt lat="44.82428" lon="6.96932">
        <ele>2569.4</ele>
        <time>2021-02-16T11:05:08Z</time>
      </trkpt>
      <trkpt lat="44.8243" lon="6.96933">
        <ele>2564</ele>
        <time>2021-02-16T11:05:16Z</time>
      </trkpt>
      <trkpt lat="44.82433" lon="6.96935">
        <ele>2567.4</ele>
        <time>2021-02-16T11:05:25Z</time>
      </trkpt>
      <trkpt lat="44.82435" lon="6.96939">
        <ele>2571.4</ele>
        <time>2021-02-16T11:05:38Z</time>
      </trkpt>
      <trkpt lat="44.82435" lon="6.96946">
        <ele>2571.6</ele>
        <time>2021-02-16T11:05:50Z</time>
      </trkpt>
      <trkpt lat="44.82434" lon="6.96952">
        <ele>2572</ele>
        <time>2021-02-16T11:05:58Z</time>
      </trkpt>
      <trkpt lat="44.82433" lon="6.96958">
        <ele>2572.8</ele>
        <time>2021-02-16T11:06:08Z</time>
      </trkpt>
      <trkpt lat="44.82433" lon="6.96964">
        <ele>2573.4</ele>
        <time>2021-02-16T11:06:20Z</time>
      </trkpt>
      <trkpt lat="44.82437" lon="6.96964">
        <ele>2570</ele>
        <time>2021-02-16T11:06:32Z</time>
      </trkpt>
      <trkpt lat="44.8244" lon="6.96963">
        <ele>2574.8</ele>
        <time>2021-02-16T11:06:40Z</time>
      </trkpt>
      <trkpt lat="44.82444" lon="6.96961">
        <ele>2572.2</ele>
        <time>2021-02-16T11:06:49Z</time>
      </trkpt>
      <trkpt lat="44.82445" lon="6.96961">
        <ele>2577.6</ele>
        <time>2021-02-16T11:06:52Z</time>
      </trkpt>
      <trkpt lat="44.82448" lon="6.96965">
        <ele>2581.2</ele>
        <time>2021-02-16T11:07:04Z</time>
      </trkpt>
      <trkpt lat="44.82451" lon="6.9697">
        <ele>2583.4</ele>
        <time>2021-02-16T11:07:43Z</time>
      </trkpt>
      <trkpt lat="44.82452" lon="6.96976">
        <ele>2584.2</ele>
        <time>2021-02-16T11:07:52Z</time>
      </trkpt>
      <trkpt lat="44.82457" lon="6.96979">
        <ele>2586</ele>
        <time>2021-02-16T11:08:24Z</time>
      </trkpt>
      <trkpt lat="44.8246" lon="6.96979">
        <ele>2583</ele>
        <time>2021-02-16T11:08:31Z</time>
      </trkpt>
      <trkpt lat="44.8246" lon="6.96982">
        <ele>2587</ele>
        <time>2021-02-16T11:08:47Z</time>
      </trkpt>
      <trkpt lat="44.82464" lon="6.96984">
        <ele>2590.2</ele>
        <time>2021-02-16T11:10:01Z</time>
      </trkpt>
      <trkpt lat="44.82467" lon="6.96984">
        <ele>2587</ele>
        <time>2021-02-16T11:10:08Z</time>
      </trkpt>
      <trkpt lat="44.8247" lon="6.96983">
        <ele>2591.8</ele>
        <time>2021-02-16T11:10:20Z</time>
      </trkpt>
      <trkpt lat="44.82469" lon="6.96988">
        <ele>2593.6</ele>
        <time>2021-02-16T11:10:32Z</time>
      </trkpt>
      <trkpt lat="44.82467" lon="6.96993">
        <ele>2590.8</ele>
        <time>2021-02-16T11:10:43Z</time>
      </trkpt>
      <trkpt lat="44.82465" lon="6.96999">
        <ele>2591.8</ele>
        <time>2021-02-16T11:10:59Z</time>
      </trkpt>
      <trkpt lat="44.82467" lon="6.97004">
        <ele>2595.4</ele>
        <time>2021-02-16T11:11:20Z</time>
      </trkpt>
      <trkpt lat="44.82465" lon="6.97009">
        <ele>2593.8</ele>
        <time>2021-02-16T11:11:32Z</time>
      </trkpt>
      <trkpt lat="44.82463" lon="6.97011">
        <ele>2597</ele>
        <time>2021-02-16T11:11:37Z</time>
      </trkpt>
      <trkpt lat="44.82461" lon="6.97016">
        <ele>2600</ele>
        <time>2021-02-16T11:11:51Z</time>
      </trkpt>
      <trkpt lat="44.8246" lon="6.97022">
        <ele>2603</ele>
        <time>2021-02-16T11:12:08Z</time>
      </trkpt>
      <trkpt lat="44.82459" lon="6.97028">
        <ele>2602</ele>
        <time>2021-02-16T11:12:29Z</time>
      </trkpt>
      <trkpt lat="44.82457" lon="6.97031">
        <ele>2605.2</ele>
        <time>2021-02-16T11:12:40Z</time>
      </trkpt>
      <trkpt lat="44.82458" lon="6.97038">
        <ele>2608.2</ele>
        <time>2021-02-16T11:14:33Z</time>
      </trkpt>
      <trkpt lat="44.82456" lon="6.97042">
        <ele>2610.4</ele>
        <time>2021-02-16T11:14:38Z</time>
      </trkpt>
      <trkpt lat="44.82455" lon="6.97048">
        <ele>2611.2</ele>
        <time>2021-02-16T11:14:43Z</time>
      </trkpt>
      <trkpt lat="44.82454" lon="6.97054">
        <ele>2612.2</ele>
        <time>2021-02-16T11:14:51Z</time>
      </trkpt>
      <trkpt lat="44.82456" lon="6.9706">
        <ele>2608.4</ele>
        <time>2021-02-16T11:14:58Z</time>
      </trkpt>
      <trkpt lat="44.82457" lon="6.97064">
        <ele>2613.2</ele>
        <time>2021-02-16T11:15:03Z</time>
      </trkpt>
      <trkpt lat="44.82457" lon="6.97071">
        <ele>2611</ele>
        <time>2021-02-16T11:15:08Z</time>
      </trkpt>
      <trkpt lat="44.82456" lon="6.97075">
        <ele>2614.4</ele>
        <time>2021-02-16T11:15:11Z</time>
      </trkpt>
      <trkpt lat="44.82456" lon="6.97082">
        <ele>2614</ele>
        <time>2021-02-16T11:15:17Z</time>
      </trkpt>
      <trkpt lat="44.82458" lon="6.97088">
        <ele>2614</ele>
        <time>2021-02-16T11:15:23Z</time>
      </trkpt>
      <trkpt lat="44.82459" lon="6.97094">
        <ele>2615</ele>
        <time>2021-02-16T11:15:29Z</time>
      </trkpt>
      <trkpt lat="44.82461" lon="6.971">
        <ele>2614.8</ele>
        <time>2021-02-16T11:15:35Z</time>
      </trkpt>
      <trkpt lat="44.82462" lon="6.97106">
        <ele>2615.6</ele>
        <time>2021-02-16T11:15:44Z</time>
      </trkpt>
      <trkpt lat="44.82462" lon="6.97113">
        <ele>2617</ele>
        <time>2021-02-16T11:15:55Z</time>
      </trkpt>
      <trkpt lat="44.82463" lon="6.97118">
        <ele>2616.8</ele>
        <time>2021-02-16T11:16:02Z</time>
      </trkpt>
      <trkpt lat="44.82465" lon="6.97124">
        <ele>2617.6</ele>
        <time>2021-02-16T11:16:09Z</time>
      </trkpt>
      <trkpt lat="44.82468" lon="6.97128">
        <ele>2615.2</ele>
        <time>2021-02-16T11:16:16Z</time>
      </trkpt>
      <trkpt lat="44.8247" lon="6.97132">
        <ele>2618.8</ele>
        <time>2021-02-16T11:16:23Z</time>
      </trkpt>
      <trkpt lat="44.82471" lon="6.97137">
        <ele>2620</ele>
        <time>2021-02-16T11:16:35Z</time>
      </trkpt>
      <trkpt lat="44.82472" lon="6.97144">
        <ele>2621.4</ele>
        <time>2021-02-16T11:21:31Z</time>
      </trkpt>
      <trkpt lat="44.82474" lon="6.97149">
        <ele>2624.4</ele>
        <time>2021-02-16T11:21:36Z</time>
      </trkpt>
      <trkpt lat="44.82475" lon="6.97155">
        <ele>2621.6</ele>
        <time>2021-02-16T11:21:41Z</time>
      </trkpt>
      <trkpt lat="44.82477" lon="6.97159">
        <ele>2623.8</ele>
        <time>2021-02-16T11:21:45Z</time>
      </trkpt>
      <trkpt lat="44.82478" lon="6.97164">
        <ele>2620.6</ele>
        <time>2021-02-16T11:21:49Z</time>
      </trkpt>
      <trkpt lat="44.8248" lon="6.97169">
        <ele>2622.2</ele>
        <time>2021-02-16T11:21:53Z</time>
      </trkpt>
      <trkpt lat="44.82481" lon="6.97176">
        <ele>2621.2</ele>
        <time>2021-02-16T11:21:57Z</time>
      </trkpt>
      <trkpt lat="44.82483" lon="6.97182">
        <ele>2621.6</ele>
        <time>2021-02-16T11:22:02Z</time>
      </trkpt>
      <trkpt lat="44.82485" lon="6.97188">
        <ele>2619</ele>
        <time>2021-02-16T11:22:07Z</time>
      </trkpt>
      <trkpt lat="44.82486" lon="6.97192">
        <ele>2620.8</ele>
        <time>2021-02-16T11:22:11Z</time>
      </trkpt>
      <trkpt lat="44.82487" lon="6.97198">
        <ele>2623.4</ele>
        <time>2021-02-16T11:22:17Z</time>
      </trkpt>
      <trkpt lat="44.82488" lon="6.97204">
        <ele>2621.2</ele>
        <time>2021-02-16T11:22:23Z</time>
      </trkpt>
      <trkpt lat="44.8249" lon="6.97211">
        <ele>2623.2</ele>
        <time>2021-02-16T11:22:29Z</time>
      </trkpt>
      <trkpt lat="44.8249" lon="6.97217">
        <ele>2619.8</ele>
        <time>2021-02-16T11:22:34Z</time>
      </trkpt>
      <trkpt lat="44.8249" lon="6.97219">
        <ele>2623.6</ele>
        <time>2021-02-16T11:22:36Z</time>
      </trkpt>
      <trkpt lat="44.8249" lon="6.97226">
        <ele>2624.8</ele>
        <time>2021-02-16T11:22:42Z</time>
      </trkpt>
      <trkpt lat="44.82489" lon="6.97232">
        <ele>2625</ele>
        <time>2021-02-16T11:22:47Z</time>
      </trkpt>
      <trkpt lat="44.82488" lon="6.97238">
        <ele>2625.6</ele>
        <time>2021-02-16T11:22:56Z</time>
      </trkpt>
      <trkpt lat="44.82489" lon="6.97244">
        <ele>2622.4</ele>
        <time>2021-02-16T11:23:07Z</time>
      </trkpt>
      <trkpt lat="44.8249" lon="6.97248">
        <ele>2626.2</ele>
        <time>2021-02-16T11:23:14Z</time>
      </trkpt>
      <trkpt lat="44.8249" lon="6.97255">
        <ele>2627</ele>
        <time>2021-02-16T11:23:21Z</time>
      </trkpt>
      <trkpt lat="44.8249" lon="6.9726">
        <ele>2630.6</ele>
        <time>2021-02-16T11:23:25Z</time>
      </trkpt>
      <trkpt lat="44.82491" lon="6.97266">
        <ele>2626.2</ele>
        <time>2021-02-16T11:23:32Z</time>
      </trkpt>
      <trkpt lat="44.82492" lon="6.9727">
        <ele>2629.8</ele>
        <time>2021-02-16T11:37:27Z</time>
      </trkpt>
      <trkpt lat="44.8249" lon="6.97265">
        <ele>2627</ele>
        <time>2021-02-16T11:38:10Z</time>
      </trkpt>
      <trkpt lat="44.82489" lon="6.97256">
        <ele>2627</ele>
        <time>2021-02-16T11:38:14Z</time>
      </trkpt>
      <trkpt lat="44.82488" lon="6.9725">
        <ele>2626.8</ele>
        <time>2021-02-16T11:38:17Z</time>
      </trkpt>
      <trkpt lat="44.82487" lon="6.97242">
        <ele>2626.4</ele>
        <time>2021-02-16T11:38:23Z</time>
      </trkpt>
      <trkpt lat="44.82487" lon="6.97233">
        <ele>2625.8</ele>
        <time>2021-02-16T11:38:26Z</time>
      </trkpt>
      <trkpt lat="44.82488" lon="6.97225">
        <ele>2627.2</ele>
        <time>2021-02-16T11:38:28Z</time>
      </trkpt>
      <trkpt lat="44.82487" lon="6.97217">
        <ele>2628.2</ele>
        <time>2021-02-16T11:38:31Z</time>
      </trkpt>
      <trkpt lat="44.82487" lon="6.9721">
        <ele>2624.8</ele>
        <time>2021-02-16T11:38:33Z</time>
      </trkpt>
      <trkpt lat="44.82486" lon="6.97204">
        <ele>2622.2</ele>
        <time>2021-02-16T11:38:35Z</time>
      </trkpt>
      <trkpt lat="44.82485" lon="6.97199">
        <ele>2624.2</ele>
        <time>2021-02-16T11:38:38Z</time>
      </trkpt>
      <trkpt lat="44.82484" lon="6.97192">
        <ele>2626</ele>
        <time>2021-02-16T11:38:40Z</time>
      </trkpt>
      <trkpt lat="44.82483" lon="6.97185">
        <ele>2623.6</ele>
        <time>2021-02-16T11:38:45Z</time>
      </trkpt>
      <trkpt lat="44.82481" lon="6.97177">
        <ele>2623</ele>
        <time>2021-02-16T11:38:51Z</time>
      </trkpt>
      <trkpt lat="44.8248" lon="6.97172">
        <ele>2624.4</ele>
        <time>2021-02-16T11:38:56Z</time>
      </trkpt>
      <trkpt lat="44.82478" lon="6.97166">
        <ele>2627.6</ele>
        <time>2021-02-16T11:39:06Z</time>
      </trkpt>
      <trkpt lat="44.82476" lon="6.97163">
        <ele>2624.2</ele>
        <time>2021-02-16T11:39:10Z</time>
      </trkpt>
      <trkpt lat="44.82474" lon="6.97156">
        <ele>2625</ele>
        <time>2021-02-16T11:39:15Z</time>
      </trkpt>
      <trkpt lat="44.82472" lon="6.97149">
        <ele>2624</ele>
        <time>2021-02-16T11:39:19Z</time>
      </trkpt>
      <trkpt lat="44.8247" lon="6.97144">
        <ele>2622</ele>
        <time>2021-02-16T11:39:22Z</time>
      </trkpt>
      <trkpt lat="44.82467" lon="6.97137">
        <ele>2620.4</ele>
        <time>2021-02-16T11:39:27Z</time>
      </trkpt>
      <trkpt lat="44.82466" lon="6.97131">
        <ele>2620.2</ele>
        <time>2021-02-16T11:39:33Z</time>
      </trkpt>
      <trkpt lat="44.82469" lon="6.97125">
        <ele>2620</ele>
        <time>2021-02-16T11:40:07Z</time>
      </trkpt>
      <trkpt lat="44.82472" lon="6.97122">
        <ele>2615.6</ele>
        <time>2021-02-16T11:40:18Z</time>
      </trkpt>
      <trkpt lat="44.82475" lon="6.97123">
        <ele>2621.2</ele>
        <time>2021-02-16T11:40:28Z</time>
      </trkpt>
      <trkpt lat="44.82478" lon="6.97124">
        <ele>2618.4</ele>
        <time>2021-02-16T11:40:37Z</time>
      </trkpt>
      <trkpt lat="44.82476" lon="6.97119">
        <ele>2615.8</ele>
        <time>2021-02-16T11:41:29Z</time>
      </trkpt>
      <trkpt lat="44.82473" lon="6.97113">
        <ele>2616.6</ele>
        <time>2021-02-16T11:41:36Z</time>
      </trkpt>
      <trkpt lat="44.82472" lon="6.97109">
        <ele>2612.2</ele>
        <time>2021-02-16T11:42:06Z</time>
      </trkpt>
      <trkpt lat="44.82476" lon="6.97106">
        <ele>2612.8</ele>
        <time>2021-02-16T11:42:19Z</time>
      </trkpt>
      <trkpt lat="44.82481" lon="6.97103">
        <ele>2610.8</ele>
        <time>2021-02-16T11:43:00Z</time>
      </trkpt>
      <trkpt lat="44.82485" lon="6.97104">
        <ele>2612.2</ele>
        <time>2021-02-16T11:43:03Z</time>
      </trkpt>
      <trkpt lat="44.82484" lon="6.97098">
        <ele>2610.6</ele>
        <time>2021-02-16T11:43:50Z</time>
      </trkpt>
      <trkpt lat="44.82481" lon="6.97094">
        <ele>2606.6</ele>
        <time>2021-02-16T11:43:54Z</time>
      </trkpt>
      <trkpt lat="44.82478" lon="6.97087">
        <ele>2608</ele>
        <time>2021-02-16T11:43:57Z</time>
      </trkpt>
      <trkpt lat="44.82481" lon="6.97083">
        <ele>2606.8</ele>
        <time>2021-02-16T11:43:59Z</time>
      </trkpt>
      <trkpt lat="44.82484" lon="6.97075">
        <ele>2605.8</ele>
        <time>2021-02-16T11:44:03Z</time>
      </trkpt>
      <trkpt lat="44.82485" lon="6.97067">
        <ele>2605</ele>
        <time>2021-02-16T11:44:05Z</time>
      </trkpt>
      <trkpt lat="44.82486" lon="6.97061">
        <ele>2605</ele>
        <time>2021-02-16T11:44:07Z</time>
      </trkpt>
      <trkpt lat="44.82487" lon="6.97055">
        <ele>2606.6</ele>
        <time>2021-02-16T11:44:11Z</time>
      </trkpt>
      <trkpt lat="44.82488" lon="6.97048">
        <ele>2606.6</ele>
        <time>2021-02-16T11:44:23Z</time>
      </trkpt>
      <trkpt lat="44.82489" lon="6.97042">
        <ele>2603.8</ele>
        <time>2021-02-16T11:44:27Z</time>
      </trkpt>
      <trkpt lat="44.82492" lon="6.97037">
        <ele>2603.4</ele>
        <time>2021-02-16T11:44:30Z</time>
      </trkpt>
      <trkpt lat="44.82496" lon="6.9704">
        <ele>2602.8</ele>
        <time>2021-02-16T11:44:33Z</time>
      </trkpt>
      <trkpt lat="44.82498" lon="6.97043">
        <ele>2597.8</ele>
        <time>2021-02-16T11:44:36Z</time>
      </trkpt>
      <trkpt lat="44.82501" lon="6.97047">
        <ele>2598.6</ele>
        <time>2021-02-16T11:44:38Z</time>
      </trkpt>
      <trkpt lat="44.82506" lon="6.97054">
        <ele>2600.4</ele>
        <time>2021-02-16T11:44:40Z</time>
      </trkpt>
      <trkpt lat="44.8251" lon="6.97064">
        <ele>2598</ele>
        <time>2021-02-16T11:44:42Z</time>
      </trkpt>
      <trkpt lat="44.82513" lon="6.97073">
        <ele>2598</ele>
        <time>2021-02-16T11:44:44Z</time>
      </trkpt>
      <trkpt lat="44.82515" lon="6.97081">
        <ele>2597.2</ele>
        <time>2021-02-16T11:44:46Z</time>
      </trkpt>
      <trkpt lat="44.82517" lon="6.97087">
        <ele>2600.4</ele>
        <time>2021-02-16T11:44:48Z</time>
      </trkpt>
      <trkpt lat="44.8252" lon="6.97093">
        <ele>2596.4</ele>
        <time>2021-02-16T11:44:50Z</time>
      </trkpt>
      <trkpt lat="44.82522" lon="6.97098">
        <ele>2595</ele>
        <time>2021-02-16T11:44:52Z</time>
      </trkpt>
      <trkpt lat="44.82525" lon="6.97104">
        <ele>2595.4</ele>
        <time>2021-02-16T11:44:55Z</time>
      </trkpt>
      <trkpt lat="44.82528" lon="6.97109">
        <ele>2598.4</ele>
        <time>2021-02-16T11:44:59Z</time>
      </trkpt>
      <trkpt lat="44.82529" lon="6.97111">
        <ele>2592</ele>
        <time>2021-02-16T11:45:03Z</time>
      </trkpt>
      <trkpt lat="44.82529" lon="6.97117">
        <ele>2591</ele>
        <time>2021-02-16T11:45:14Z</time>
      </trkpt>
      <trkpt lat="44.82531" lon="6.97123">
        <ele>2591.2</ele>
        <time>2021-02-16T11:45:43Z</time>
      </trkpt>
      <trkpt lat="44.82533" lon="6.97129">
        <ele>2587.2</ele>
        <time>2021-02-16T11:45:52Z</time>
      </trkpt>
      <trkpt lat="44.82534" lon="6.97132">
        <ele>2591.8</ele>
        <time>2021-02-16T11:45:55Z</time>
      </trkpt>
      <trkpt lat="44.82536" lon="6.97137">
        <ele>2595.4</ele>
        <time>2021-02-16T11:46:02Z</time>
      </trkpt>
      <trkpt lat="44.82537" lon="6.97144">
        <ele>2593.4</ele>
        <time>2021-02-16T11:46:11Z</time>
      </trkpt>
      <trkpt lat="44.82539" lon="6.97149">
        <ele>2591.6</ele>
        <time>2021-02-16T11:46:40Z</time>
      </trkpt>
      <trkpt lat="44.8254" lon="6.97155">
        <ele>2594</ele>
        <time>2021-02-16T11:46:47Z</time>
      </trkpt>
      <trkpt lat="44.82541" lon="6.97161">
        <ele>2593.6</ele>
        <time>2021-02-16T11:51:01Z</time>
      </trkpt>
      <trkpt lat="44.82543" lon="6.97165">
        <ele>2597</ele>
        <time>2021-02-16T11:51:07Z</time>
      </trkpt>
      <trkpt lat="44.82545" lon="6.9717">
        <ele>2596.2</ele>
        <time>2021-02-16T11:51:13Z</time>
      </trkpt>
      <trkpt lat="44.82546" lon="6.97177">
        <ele>2596.6</ele>
        <time>2021-02-16T11:51:19Z</time>
      </trkpt>
      <trkpt lat="44.82547" lon="6.97183">
        <ele>2595</ele>
        <time>2021-02-16T11:51:22Z</time>
      </trkpt>
      <trkpt lat="44.82548" lon="6.9719">
        <ele>2595.8</ele>
        <time>2021-02-16T11:51:24Z</time>
      </trkpt>
      <trkpt lat="44.82548" lon="6.97194">
        <ele>2593</ele>
        <time>2021-02-16T11:51:25Z</time>
      </trkpt>
      <trkpt lat="44.82548" lon="6.97204">
        <ele>2593.2</ele>
        <time>2021-02-16T11:51:27Z</time>
      </trkpt>
      <trkpt lat="44.82548" lon="6.97216">
        <ele>2593</ele>
        <time>2021-02-16T11:51:29Z</time>
      </trkpt>
      <trkpt lat="44.82549" lon="6.97223">
        <ele>2592.6</ele>
        <time>2021-02-16T11:51:30Z</time>
      </trkpt>
      <trkpt lat="44.82549" lon="6.97229">
        <ele>2591.4</ele>
        <time>2021-02-16T11:51:31Z</time>
      </trkpt>
      <trkpt lat="44.8255" lon="6.97235">
        <ele>2588.2</ele>
        <time>2021-02-16T11:51:32Z</time>
      </trkpt>
      <trkpt lat="44.82552" lon="6.97245">
        <ele>2588</ele>
        <time>2021-02-16T11:51:34Z</time>
      </trkpt>
      <trkpt lat="44.82555" lon="6.97253">
        <ele>2589.6</ele>
        <time>2021-02-16T11:51:36Z</time>
      </trkpt>
      <trkpt lat="44.82557" lon="6.97258">
        <ele>2590.6</ele>
        <time>2021-02-16T11:51:38Z</time>
      </trkpt>
      <trkpt lat="44.82562" lon="6.97257">
        <ele>2586.8</ele>
        <time>2021-02-16T11:51:45Z</time>
      </trkpt>
      <trkpt lat="44.82566" lon="6.97258">
        <ele>2586</ele>
        <time>2021-02-16T11:51:47Z</time>
      </trkpt>
      <trkpt lat="44.8257" lon="6.97261">
        <ele>2583.4</ele>
        <time>2021-02-16T11:51:48Z</time>
      </trkpt>
      <trkpt lat="44.82579" lon="6.97266">
        <ele>2583</ele>
        <time>2021-02-16T11:51:50Z</time>
      </trkpt>
      <trkpt lat="44.82585" lon="6.97271">
        <ele>2583.6</ele>
        <time>2021-02-16T11:51:52Z</time>
      </trkpt>
      <trkpt lat="44.82587" lon="6.97274">
        <ele>2585.8</ele>
        <time>2021-02-16T11:53:45Z</time>
      </trkpt>
      <trkpt lat="44.82589" lon="6.97277">
        <ele>2580.2</ele>
        <time>2021-02-16T11:53:47Z</time>
      </trkpt>
      <trkpt lat="44.82594" lon="6.97287">
        <ele>2579.4</ele>
        <time>2021-02-16T11:53:50Z</time>
      </trkpt>
      <trkpt lat="44.82596" lon="6.97295">
        <ele>2577.4</ele>
        <time>2021-02-16T11:53:52Z</time>
      </trkpt>
      <trkpt lat="44.82597" lon="6.97305">
        <ele>2578.6</ele>
        <time>2021-02-16T11:53:54Z</time>
      </trkpt>
      <trkpt lat="44.82599" lon="6.97313">
        <ele>2578</ele>
        <time>2021-02-16T11:53:56Z</time>
      </trkpt>
      <trkpt lat="44.82601" lon="6.97321">
        <ele>2575.8</ele>
        <time>2021-02-16T11:53:58Z</time>
      </trkpt>
      <trkpt lat="44.82605" lon="6.97323">
        <ele>2575.8</ele>
        <time>2021-02-16T11:54:00Z</time>
      </trkpt>
      <trkpt lat="44.82609" lon="6.97323">
        <ele>2576.4</ele>
        <time>2021-02-16T11:54:01Z</time>
      </trkpt>
      <trkpt lat="44.82615" lon="6.97327">
        <ele>2572.6</ele>
        <time>2021-02-16T11:54:03Z</time>
      </trkpt>
      <trkpt lat="44.82619" lon="6.97328">
        <ele>2572</ele>
        <time>2021-02-16T11:54:05Z</time>
      </trkpt>
      <trkpt lat="44.82624" lon="6.97323">
        <ele>2570.8</ele>
        <time>2021-02-16T11:54:07Z</time>
      </trkpt>
      <trkpt lat="44.82631" lon="6.9732">
        <ele>2570.2</ele>
        <time>2021-02-16T11:54:09Z</time>
      </trkpt>
      <trkpt lat="44.82633" lon="6.97314">
        <ele>2571.6</ele>
        <time>2021-02-16T11:54:28Z</time>
      </trkpt>
      <trkpt lat="44.82634" lon="6.97308">
        <ele>2570</ele>
        <time>2021-02-16T11:54:32Z</time>
      </trkpt>
      <trkpt lat="44.8264" lon="6.97303">
        <ele>2567.6</ele>
        <time>2021-02-16T11:54:35Z</time>
      </trkpt>
      <trkpt lat="44.82642" lon="6.97299">
        <ele>2564.8</ele>
        <time>2021-02-16T11:54:37Z</time>
      </trkpt>
      <trkpt lat="44.82646" lon="6.97293">
        <ele>2565</ele>
        <time>2021-02-16T11:54:39Z</time>
      </trkpt>
      <trkpt lat="44.82648" lon="6.9729">
        <ele>2561.6</ele>
        <time>2021-02-16T11:54:40Z</time>
      </trkpt>
      <trkpt lat="44.82652" lon="6.97281">
        <ele>2565</ele>
        <time>2021-02-16T11:54:42Z</time>
      </trkpt>
      <trkpt lat="44.82654" lon="6.97272">
        <ele>2562.8</ele>
        <time>2021-02-16T11:54:44Z</time>
      </trkpt>
      <trkpt lat="44.82657" lon="6.97265">
        <ele>2560.8</ele>
        <time>2021-02-16T11:54:46Z</time>
      </trkpt>
      <trkpt lat="44.82659" lon="6.97258">
        <ele>2561.2</ele>
        <time>2021-02-16T11:54:48Z</time>
      </trkpt>
      <trkpt lat="44.82661" lon="6.97252">
        <ele>2559.2</ele>
        <time>2021-02-16T11:54:50Z</time>
      </trkpt>
      <trkpt lat="44.82663" lon="6.97246">
        <ele>2559.2</ele>
        <time>2021-02-16T11:54:52Z</time>
      </trkpt>
      <trkpt lat="44.82665" lon="6.97239">
        <ele>2558.2</ele>
        <time>2021-02-16T11:54:54Z</time>
      </trkpt>
      <trkpt lat="44.82667" lon="6.9723">
        <ele>2556.4</ele>
        <time>2021-02-16T11:54:56Z</time>
      </trkpt>
      <trkpt lat="44.8267" lon="6.97221">
        <ele>2555.6</ele>
        <time>2021-02-16T11:54:58Z</time>
      </trkpt>
      <trkpt lat="44.82673" lon="6.9721">
        <ele>2554.2</ele>
        <time>2021-02-16T11:55:00Z</time>
      </trkpt>
      <trkpt lat="44.82675" lon="6.97199">
        <ele>2553.8</ele>
        <time>2021-02-16T11:55:02Z</time>
      </trkpt>
      <trkpt lat="44.82677" lon="6.97191">
        <ele>2551.2</ele>
        <time>2021-02-16T11:55:04Z</time>
      </trkpt>
      <trkpt lat="44.82678" lon="6.97183">
        <ele>2553.4</ele>
        <time>2021-02-16T11:55:06Z</time>
      </trkpt>
      <trkpt lat="44.82679" lon="6.97176">
        <ele>2551.2</ele>
        <time>2021-02-16T11:55:08Z</time>
      </trkpt>
      <trkpt lat="44.82681" lon="6.97168">
        <ele>2550</ele>
        <time>2021-02-16T11:55:11Z</time>
      </trkpt>
      <trkpt lat="44.82683" lon="6.97162">
        <ele>2548.2</ele>
        <time>2021-02-16T11:55:16Z</time>
      </trkpt>
      <trkpt lat="44.82689" lon="6.97153">
        <ele>2545.8</ele>
        <time>2021-02-16T11:55:19Z</time>
      </trkpt>
      <trkpt lat="44.82693" lon="6.97143">
        <ele>2545.4</ele>
        <time>2021-02-16T11:55:21Z</time>
      </trkpt>
      <trkpt lat="44.82695" lon="6.97135">
        <ele>2544.4</ele>
        <time>2021-02-16T11:55:23Z</time>
      </trkpt>
      <trkpt lat="44.82698" lon="6.97129">
        <ele>2544.2</ele>
        <time>2021-02-16T11:55:28Z</time>
      </trkpt>
      <trkpt lat="44.82701" lon="6.97121">
        <ele>2542.6</ele>
        <time>2021-02-16T11:55:45Z</time>
      </trkpt>
      <trkpt lat="44.82703" lon="6.97117">
        <ele>2540.6</ele>
        <time>2021-02-16T11:55:46Z</time>
      </trkpt>
      <trkpt lat="44.82708" lon="6.97106">
        <ele>2540.6</ele>
        <time>2021-02-16T11:55:48Z</time>
      </trkpt>
      <trkpt lat="44.8271" lon="6.97101">
        <ele>2539</ele>
        <time>2021-02-16T11:55:49Z</time>
      </trkpt>
      <trkpt lat="44.82713" lon="6.97095">
        <ele>2539.8</ele>
        <time>2021-02-16T11:55:50Z</time>
      </trkpt>
      <trkpt lat="44.82716" lon="6.9709">
        <ele>2539</ele>
        <time>2021-02-16T11:55:51Z</time>
      </trkpt>
      <trkpt lat="44.82718" lon="6.97084">
        <ele>2537.8</ele>
        <time>2021-02-16T11:55:52Z</time>
      </trkpt>
      <trkpt lat="44.82722" lon="6.97075">
        <ele>2537.4</ele>
        <time>2021-02-16T11:55:54Z</time>
      </trkpt>
      <trkpt lat="44.82725" lon="6.97069">
        <ele>2536.6</ele>
        <time>2021-02-16T11:55:57Z</time>
      </trkpt>
      <trkpt lat="44.82728" lon="6.97073">
        <ele>2533</ele>
        <time>2021-02-16T11:56:13Z</time>
      </trkpt>
      <trkpt lat="44.8273" lon="6.9708">
        <ele>2531.4</ele>
        <time>2021-02-16T11:56:15Z</time>
      </trkpt>
      <trkpt lat="44.82733" lon="6.97087">
        <ele>2531.6</ele>
        <time>2021-02-16T11:56:18Z</time>
      </trkpt>
      <trkpt lat="44.82736" lon="6.97092">
        <ele>2527.6</ele>
        <time>2021-02-16T11:56:21Z</time>
      </trkpt>
      <trkpt lat="44.8274" lon="6.97094">
        <ele>2525</ele>
        <time>2021-02-16T11:56:23Z</time>
      </trkpt>
      <trkpt lat="44.82743" lon="6.97099">
        <ele>2520.6</ele>
        <time>2021-02-16T11:56:26Z</time>
      </trkpt>
      <trkpt lat="44.82748" lon="6.97099">
        <ele>2521.2</ele>
        <time>2021-02-16T11:56:28Z</time>
      </trkpt>
      <trkpt lat="44.82752" lon="6.971">
        <ele>2518.4</ele>
        <time>2021-02-16T11:56:30Z</time>
      </trkpt>
      <trkpt lat="44.82756" lon="6.97103">
        <ele>2518.8</ele>
        <time>2021-02-16T11:56:32Z</time>
      </trkpt>
      <trkpt lat="44.8276" lon="6.97101">
        <ele>2515.4</ele>
        <time>2021-02-16T11:56:52Z</time>
      </trkpt>
      <trkpt lat="44.82762" lon="6.97106">
        <ele>2513.2</ele>
        <time>2021-02-16T11:56:54Z</time>
      </trkpt>
      <trkpt lat="44.82767" lon="6.97109">
        <ele>2510.2</ele>
        <time>2021-02-16T11:56:56Z</time>
      </trkpt>
      <trkpt lat="44.82772" lon="6.9711">
        <ele>2508</ele>
        <time>2021-02-16T11:56:57Z</time>
      </trkpt>
      <trkpt lat="44.82777" lon="6.97118">
        <ele>2507.8</ele>
        <time>2021-02-16T11:56:59Z</time>
      </trkpt>
      <trkpt lat="44.82781" lon="6.97124">
        <ele>2505.6</ele>
        <time>2021-02-16T11:57:01Z</time>
      </trkpt>
      <trkpt lat="44.82785" lon="6.97128">
        <ele>2507</ele>
        <time>2021-02-16T11:57:03Z</time>
      </trkpt>
      <trkpt lat="44.82787" lon="6.97131">
        <ele>2502.6</ele>
        <time>2021-02-16T11:57:04Z</time>
      </trkpt>
      <trkpt lat="44.82789" lon="6.97134">
        <ele>2505.2</ele>
        <time>2021-02-16T11:57:06Z</time>
      </trkpt>
      <trkpt lat="44.82791" lon="6.97132">
        <ele>2500.4</ele>
        <time>2021-02-16T11:57:48Z</time>
      </trkpt>
      <trkpt lat="44.82795" lon="6.97126">
        <ele>2500.2</ele>
        <time>2021-02-16T11:57:52Z</time>
      </trkpt>
      <trkpt lat="44.82798" lon="6.97122">
        <ele>2499.2</ele>
        <time>2021-02-16T11:57:56Z</time>
      </trkpt>
      <trkpt lat="44.82801" lon="6.97116">
        <ele>2498.6</ele>
        <time>2021-02-16T11:57:59Z</time>
      </trkpt>
      <trkpt lat="44.82803" lon="6.97111">
        <ele>2495</ele>
        <time>2021-02-16T11:58:03Z</time>
      </trkpt>
      <trkpt lat="44.82807" lon="6.97112">
        <ele>2493.4</ele>
        <time>2021-02-16T11:58:06Z</time>
      </trkpt>
      <trkpt lat="44.82812" lon="6.97105">
        <ele>2489.4</ele>
        <time>2021-02-16T11:58:11Z</time>
      </trkpt>
      <trkpt lat="44.82818" lon="6.97103">
        <ele>2487</ele>
        <time>2021-02-16T11:58:13Z</time>
      </trkpt>
      <trkpt lat="44.82823" lon="6.97107">
        <ele>2487.6</ele>
        <time>2021-02-16T11:58:20Z</time>
      </trkpt>
      <trkpt lat="44.82826" lon="6.9711">
        <ele>2485.8</ele>
        <time>2021-02-16T11:58:23Z</time>
      </trkpt>
      <trkpt lat="44.82827" lon="6.97104">
        <ele>2483.4</ele>
        <time>2021-02-16T11:58:27Z</time>
      </trkpt>
      <trkpt lat="44.82825" lon="6.97098">
        <ele>2480.2</ele>
        <time>2021-02-16T11:58:29Z</time>
      </trkpt>
      <trkpt lat="44.82825" lon="6.9709">
        <ele>2478.6</ele>
        <time>2021-02-16T11:58:32Z</time>
      </trkpt>
      <trkpt lat="44.8283" lon="6.97085">
        <ele>2477.6</ele>
        <time>2021-02-16T11:58:34Z</time>
      </trkpt>
      <trkpt lat="44.82832" lon="6.97082">
        <ele>2475</ele>
        <time>2021-02-16T11:58:37Z</time>
      </trkpt>
      <trkpt lat="44.82836" lon="6.97077">
        <ele>2471.8</ele>
        <time>2021-02-16T11:58:47Z</time>
      </trkpt>
      <trkpt lat="44.82841" lon="6.97075">
        <ele>2468.2</ele>
        <time>2021-02-16T11:58:50Z</time>
      </trkpt>
      <trkpt lat="44.82845" lon="6.9707">
        <ele>2466.8</ele>
        <time>2021-02-16T11:58:52Z</time>
      </trkpt>
      <trkpt lat="44.82851" lon="6.97067">
        <ele>2463</ele>
        <time>2021-02-16T11:58:55Z</time>
      </trkpt>
      <trkpt lat="44.82856" lon="6.97066">
        <ele>2461.6</ele>
        <time>2021-02-16T11:58:57Z</time>
      </trkpt>
      <trkpt lat="44.82861" lon="6.97069">
        <ele>2462.6</ele>
        <time>2021-02-16T11:58:59Z</time>
      </trkpt>
      <trkpt lat="44.82866" lon="6.97066">
        <ele>2462.2</ele>
        <time>2021-02-16T11:59:02Z</time>
      </trkpt>
      <trkpt lat="44.82872" lon="6.97063">
        <ele>2459.4</ele>
        <time>2021-02-16T11:59:04Z</time>
      </trkpt>
      <trkpt lat="44.82879" lon="6.97057">
        <ele>2458.2</ele>
        <time>2021-02-16T11:59:07Z</time>
      </trkpt>
      <trkpt lat="44.82883" lon="6.97054">
        <ele>2454.6</ele>
        <time>2021-02-16T11:59:09Z</time>
      </trkpt>
      <trkpt lat="44.8288" lon="6.97048">
        <ele>2453</ele>
        <time>2021-02-16T12:00:02Z</time>
      </trkpt>
      <trkpt lat="44.8288" lon="6.97045">
        <ele>2448.6</ele>
        <time>2021-02-16T12:00:03Z</time>
      </trkpt>
      <trkpt lat="44.82881" lon="6.97039">
        <ele>2451</ele>
        <time>2021-02-16T12:00:05Z</time>
      </trkpt>
      <trkpt lat="44.82882" lon="6.97033">
        <ele>2447.2</ele>
        <time>2021-02-16T12:00:07Z</time>
      </trkpt>
      <trkpt lat="44.82886" lon="6.97026">
        <ele>2444.2</ele>
        <time>2021-02-16T12:00:10Z</time>
      </trkpt>
      <trkpt lat="44.8289" lon="6.9702">
        <ele>2442.6</ele>
        <time>2021-02-16T12:00:12Z</time>
      </trkpt>
      <trkpt lat="44.82895" lon="6.97018">
        <ele>2441.2</ele>
        <time>2021-02-16T12:00:15Z</time>
      </trkpt>
      <trkpt lat="44.829" lon="6.97017">
        <ele>2439</ele>
        <time>2021-02-16T12:00:18Z</time>
      </trkpt>
      <trkpt lat="44.82904" lon="6.97018">
        <ele>2436.8</ele>
        <time>2021-02-16T12:00:20Z</time>
      </trkpt>
      <trkpt lat="44.8291" lon="6.97018">
        <ele>2433.2</ele>
        <time>2021-02-16T12:00:23Z</time>
      </trkpt>
      <trkpt lat="44.82915" lon="6.97018">
        <ele>2434.8</ele>
        <time>2021-02-16T12:00:26Z</time>
      </trkpt>
      <trkpt lat="44.8292" lon="6.97018">
        <ele>2435</ele>
        <time>2021-02-16T12:00:46Z</time>
      </trkpt>
      <trkpt lat="44.82922" lon="6.97024">
        <ele>2432.4</ele>
        <time>2021-02-16T12:00:49Z</time>
      </trkpt>
      <trkpt lat="44.82924" lon="6.97029">
        <ele>2430</ele>
        <time>2021-02-16T12:00:51Z</time>
      </trkpt>
      <trkpt lat="44.82928" lon="6.97033">
        <ele>2428.6</ele>
        <time>2021-02-16T12:00:55Z</time>
      </trkpt>
      <trkpt lat="44.82932" lon="6.97032">
        <ele>2424</ele>
        <time>2021-02-16T12:00:56Z</time>
      </trkpt>
      <trkpt lat="44.82935" lon="6.97033">
        <ele>2428.2</ele>
        <time>2021-02-16T12:00:58Z</time>
      </trkpt>
      <trkpt lat="44.82939" lon="6.97027">
        <ele>2424.6</ele>
        <time>2021-02-16T12:01:01Z</time>
      </trkpt>
      <trkpt lat="44.82944" lon="6.97029">
        <ele>2425</ele>
        <time>2021-02-16T12:01:11Z</time>
      </trkpt>
      <trkpt lat="44.82945" lon="6.97032">
        <ele>2420.8</ele>
        <time>2021-02-16T12:02:06Z</time>
      </trkpt>
      <trkpt lat="44.8295" lon="6.97026">
        <ele>2418.4</ele>
        <time>2021-02-16T12:02:10Z</time>
      </trkpt>
      <trkpt lat="44.82954" lon="6.9702">
        <ele>2416.2</ele>
        <time>2021-02-16T12:02:12Z</time>
      </trkpt>
      <trkpt lat="44.8296" lon="6.97015">
        <ele>2415.8</ele>
        <time>2021-02-16T12:02:14Z</time>
      </trkpt>
      <trkpt lat="44.82964" lon="6.97012">
        <ele>2415.2</ele>
        <time>2021-02-16T12:02:15Z</time>
      </trkpt>
      <trkpt lat="44.8297" lon="6.97012">
        <ele>2413.4</ele>
        <time>2021-02-16T12:02:17Z</time>
      </trkpt>
      <trkpt lat="44.82976" lon="6.97014">
        <ele>2414.4</ele>
        <time>2021-02-16T12:02:20Z</time>
      </trkpt>
      <trkpt lat="44.8298" lon="6.97011">
        <ele>2411</ele>
        <time>2021-02-16T12:02:22Z</time>
      </trkpt>
      <trkpt lat="44.82985" lon="6.97007">
        <ele>2411</ele>
        <time>2021-02-16T12:02:24Z</time>
      </trkpt>
      <trkpt lat="44.82989" lon="6.97009">
        <ele>2412.8</ele>
        <time>2021-02-16T12:02:26Z</time>
      </trkpt>
      <trkpt lat="44.82991" lon="6.97014">
        <ele>2410.4</ele>
        <time>2021-02-16T12:02:28Z</time>
      </trkpt>
      <trkpt lat="44.82988" lon="6.97017">
        <ele>2407.8</ele>
        <time>2021-02-16T12:03:18Z</time>
      </trkpt>
      <trkpt lat="44.82987" lon="6.97017">
        <ele>2403.2</ele>
        <time>2021-02-16T12:03:43Z</time>
      </trkpt>
      <trkpt lat="44.82986" lon="6.9702">
        <ele>2399.2</ele>
        <time>2021-02-16T12:04:38Z</time>
      </trkpt>
      <trkpt lat="44.82987" lon="6.97024">
        <ele>2394.8</ele>
        <time>2021-02-16T12:12:45Z</time>
      </trkpt>
      <trkpt lat="44.8299" lon="6.97027">
        <ele>2392.6</ele>
        <time>2021-02-16T12:14:34Z</time>
      </trkpt>
      <trkpt lat="44.82989" lon="6.97022">
        <ele>2393</ele>
        <time>2021-02-16T12:26:10Z</time>
      </trkpt>
      <trkpt lat="44.82989" lon="6.97026">
        <ele>2388.8</ele>
        <time>2021-02-16T12:34:10Z</time>
      </trkpt>
      <trkpt lat="44.82991" lon="6.97023">
        <ele>2385.2</ele>
        <time>2021-02-16T12:37:46Z</time>
      </trkpt>
      <trkpt lat="44.82989" lon="6.97017">
        <ele>2383.2</ele>
        <time>2021-02-16T12:37:52Z</time>
      </trkpt>
      <trkpt lat="44.82991" lon="6.97009">
        <ele>2381.8</ele>
        <time>2021-02-16T12:37:55Z</time>
      </trkpt>
      <trkpt lat="44.82992" lon="6.97002">
        <ele>2383.4</ele>
        <time>2021-02-16T12:37:57Z</time>
      </trkpt>
      <trkpt lat="44.82993" lon="6.96995">
        <ele>2381</ele>
        <time>2021-02-16T12:37:59Z</time>
      </trkpt>
      <trkpt lat="44.82993" lon="6.96989">
        <ele>2380.4</ele>
        <time>2021-02-16T12:38:01Z</time>
      </trkpt>
      <trkpt lat="44.82996" lon="6.9698">
        <ele>2378.8</ele>
        <time>2021-02-16T12:38:04Z</time>
      </trkpt>
      <trkpt lat="44.82999" lon="6.96971">
        <ele>2378.2</ele>
        <time>2021-02-16T12:38:06Z</time>
      </trkpt>
      <trkpt lat="44.83" lon="6.96968">
        <ele>2381.2</ele>
        <time>2021-02-16T12:38:07Z</time>
      </trkpt>
      <trkpt lat="44.83002" lon="6.96961">
        <ele>2378.4</ele>
        <time>2021-02-16T12:38:08Z</time>
      </trkpt>
      <trkpt lat="44.83004" lon="6.96955">
        <ele>2375</ele>
        <time>2021-02-16T12:38:10Z</time>
      </trkpt>
      <trkpt lat="44.83003" lon="6.96948">
        <ele>2376.8</ele>
        <time>2021-02-16T12:38:12Z</time>
      </trkpt>
      <trkpt lat="44.83003" lon="6.96942">
        <ele>2375.8</ele>
        <time>2021-02-16T12:38:14Z</time>
      </trkpt>
      <trkpt lat="44.83005" lon="6.96934">
        <ele>2374.2</ele>
        <time>2021-02-16T12:38:16Z</time>
      </trkpt>
      <trkpt lat="44.83006" lon="6.96927">
        <ele>2374.8</ele>
        <time>2021-02-16T12:38:18Z</time>
      </trkpt>
      <trkpt lat="44.83011" lon="6.96913">
        <ele>2374</ele>
        <time>2021-02-16T12:38:20Z</time>
      </trkpt>
      <trkpt lat="44.83015" lon="6.96905">
        <ele>2375.2</ele>
        <time>2021-02-16T12:38:22Z</time>
      </trkpt>
      <trkpt lat="44.83021" lon="6.969">
        <ele>2374.6</ele>
        <time>2021-02-16T12:38:24Z</time>
      </trkpt>
      <trkpt lat="44.83027" lon="6.96896">
        <ele>2370.2</ele>
        <time>2021-02-16T12:38:26Z</time>
      </trkpt>
      <trkpt lat="44.8303" lon="6.969">
        <ele>2373.4</ele>
        <time>2021-02-16T12:38:27Z</time>
      </trkpt>
      <trkpt lat="44.83032" lon="6.96906">
        <ele>2372.6</ele>
        <time>2021-02-16T12:38:37Z</time>
      </trkpt>
      <trkpt lat="44.8303" lon="6.96911">
        <ele>2369.2</ele>
        <time>2021-02-16T12:39:12Z</time>
      </trkpt>
      <trkpt lat="44.83033" lon="6.96908">
        <ele>2365</ele>
        <time>2021-02-16T12:39:17Z</time>
      </trkpt>
      <trkpt lat="44.83035" lon="6.96902">
        <ele>2363.4</ele>
        <time>2021-02-16T12:39:20Z</time>
      </trkpt>
      <trkpt lat="44.83039" lon="6.96895">
        <ele>2360.6</ele>
        <time>2021-02-16T12:39:23Z</time>
      </trkpt>
      <trkpt lat="44.83044" lon="6.9689">
        <ele>2358</ele>
        <time>2021-02-16T12:39:25Z</time>
      </trkpt>
      <trkpt lat="44.83048" lon="6.96887">
        <ele>2359.2</ele>
        <time>2021-02-16T12:39:27Z</time>
      </trkpt>
      <trkpt lat="44.83052" lon="6.96882">
        <ele>2355.6</ele>
        <time>2021-02-16T12:39:29Z</time>
      </trkpt>
      <trkpt lat="44.83056" lon="6.96872">
        <ele>2354</ele>
        <time>2021-02-16T12:39:31Z</time>
      </trkpt>
      <trkpt lat="44.83058" lon="6.96866">
        <ele>2355.4</ele>
        <time>2021-02-16T12:39:32Z</time>
      </trkpt>
      <trkpt lat="44.8306" lon="6.96858">
        <ele>2355</ele>
        <time>2021-02-16T12:39:35Z</time>
      </trkpt>
      <trkpt lat="44.83056" lon="6.96858">
        <ele>2357.8</ele>
        <time>2021-02-16T12:39:49Z</time>
      </trkpt>
      <trkpt lat="44.83058" lon="6.96853">
        <ele>2355.6</ele>
        <time>2021-02-16T12:40:13Z</time>
      </trkpt>
      <trkpt lat="44.83058" lon="6.96844">
        <ele>2353.6</ele>
        <time>2021-02-16T12:40:15Z</time>
      </trkpt>
      <trkpt lat="44.83058" lon="6.96838">
        <ele>2354</ele>
        <time>2021-02-16T12:40:17Z</time>
      </trkpt>
      <trkpt lat="44.83058" lon="6.96832">
        <ele>2353.6</ele>
        <time>2021-02-16T12:40:19Z</time>
      </trkpt>
      <trkpt lat="44.83057" lon="6.96824">
        <ele>2351.2</ele>
        <time>2021-02-16T12:40:21Z</time>
      </trkpt>
      <trkpt lat="44.83056" lon="6.96816">
        <ele>2350.8</ele>
        <time>2021-02-16T12:40:23Z</time>
      </trkpt>
      <trkpt lat="44.83056" lon="6.96805">
        <ele>2348.4</ele>
        <time>2021-02-16T12:40:25Z</time>
      </trkpt>
      <trkpt lat="44.83057" lon="6.96799">
        <ele>2349.4</ele>
        <time>2021-02-16T12:40:26Z</time>
      </trkpt>
      <trkpt lat="44.83057" lon="6.96792">
        <ele>2348.2</ele>
        <time>2021-02-16T12:40:28Z</time>
      </trkpt>
      <trkpt lat="44.83058" lon="6.96784">
        <ele>2348.4</ele>
        <time>2021-02-16T12:40:31Z</time>
      </trkpt>
      <trkpt lat="44.83058" lon="6.96778">
        <ele>2344.6</ele>
        <time>2021-02-16T12:40:33Z</time>
      </trkpt>
      <trkpt lat="44.83058" lon="6.9677">
        <ele>2345.6</ele>
        <time>2021-02-16T12:40:35Z</time>
      </trkpt>
      <trkpt lat="44.83057" lon="6.96764">
        <ele>2343.4</ele>
        <time>2021-02-16T12:40:37Z</time>
      </trkpt>
      <trkpt lat="44.83055" lon="6.96755">
        <ele>2340.8</ele>
        <time>2021-02-16T12:40:39Z</time>
      </trkpt>
      <trkpt lat="44.83054" lon="6.96747">
        <ele>2341</ele>
        <time>2021-02-16T12:40:41Z</time>
      </trkpt>
      <trkpt lat="44.83052" lon="6.9674">
        <ele>2339.8</ele>
        <time>2021-02-16T12:40:43Z</time>
      </trkpt>
      <trkpt lat="44.83051" lon="6.96733">
        <ele>2337.4</ele>
        <time>2021-02-16T12:40:45Z</time>
      </trkpt>
      <trkpt lat="44.83051" lon="6.96728">
        <ele>2334.4</ele>
        <time>2021-02-16T12:40:46Z</time>
      </trkpt>
      <trkpt lat="44.83051" lon="6.9672">
        <ele>2335</ele>
        <time>2021-02-16T12:40:48Z</time>
      </trkpt>
      <trkpt lat="44.83052" lon="6.9671">
        <ele>2335.8</ele>
        <time>2021-02-16T12:40:50Z</time>
      </trkpt>
      <trkpt lat="44.83052" lon="6.96704">
        <ele>2332.8</ele>
        <time>2021-02-16T12:40:51Z</time>
      </trkpt>
      <trkpt lat="44.83053" lon="6.96699">
        <ele>2335.6</ele>
        <time>2021-02-16T12:40:52Z</time>
      </trkpt>
      <trkpt lat="44.83053" lon="6.96689">
        <ele>2333.8</ele>
        <time>2021-02-16T12:40:54Z</time>
      </trkpt>
      <trkpt lat="44.83054" lon="6.96683">
        <ele>2332.4</ele>
        <time>2021-02-16T12:40:55Z</time>
      </trkpt>
      <trkpt lat="44.83054" lon="6.96677">
        <ele>2332.4</ele>
        <time>2021-02-16T12:40:56Z</time>
      </trkpt>
      <trkpt lat="44.83056" lon="6.96668">
        <ele>2333.8</ele>
        <time>2021-02-16T12:40:58Z</time>
      </trkpt>
      <trkpt lat="44.83056" lon="6.96662">
        <ele>2333</ele>
        <time>2021-02-16T12:41:00Z</time>
      </trkpt>
      <trkpt lat="44.83057" lon="6.96654">
        <ele>2335.2</ele>
        <time>2021-02-16T12:41:07Z</time>
      </trkpt>
      <trkpt lat="44.83059" lon="6.96648">
        <ele>2334</ele>
        <time>2021-02-16T12:41:09Z</time>
      </trkpt>
      <trkpt lat="44.83059" lon="6.96642">
        <ele>2334.4</ele>
        <time>2021-02-16T12:41:11Z</time>
      </trkpt>
      <trkpt lat="44.83059" lon="6.96637">
        <ele>2331</ele>
        <time>2021-02-16T12:41:13Z</time>
      </trkpt>
      <trkpt lat="44.8306" lon="6.96632">
        <ele>2328.2</ele>
        <time>2021-02-16T12:41:14Z</time>
      </trkpt>
      <trkpt lat="44.83061" lon="6.96625">
        <ele>2327.4</ele>
        <time>2021-02-16T12:41:17Z</time>
      </trkpt>
      <trkpt lat="44.83058" lon="6.9662">
        <ele>2328</ele>
        <time>2021-02-16T12:41:24Z</time>
      </trkpt>
      <trkpt lat="44.83061" lon="6.96613">
        <ele>2327.6</ele>
        <time>2021-02-16T12:41:26Z</time>
      </trkpt>
      <trkpt lat="44.83066" lon="6.96612">
        <ele>2325.4</ele>
        <time>2021-02-16T12:41:29Z</time>
      </trkpt>
      <trkpt lat="44.83068" lon="6.96612">
        <ele>2321</ele>
        <time>2021-02-16T12:41:30Z</time>
      </trkpt>
      <trkpt lat="44.83072" lon="6.96612">
        <ele>2317.6</ele>
        <time>2021-02-16T12:41:32Z</time>
      </trkpt>
      <trkpt lat="44.83078" lon="6.96609">
        <ele>2316.8</ele>
        <time>2021-02-16T12:41:35Z</time>
      </trkpt>
      <trkpt lat="44.83082" lon="6.96603">
        <ele>2314.4</ele>
        <time>2021-02-16T12:41:39Z</time>
      </trkpt>
      <trkpt lat="44.83085" lon="6.96599">
        <ele>2313.6</ele>
        <time>2021-02-16T12:41:41Z</time>
      </trkpt>
      <trkpt lat="44.83088" lon="6.96595">
        <ele>2315.4</ele>
        <time>2021-02-16T12:41:43Z</time>
      </trkpt>
      <trkpt lat="44.8309" lon="6.96588">
        <ele>2316</ele>
        <time>2021-02-16T12:41:57Z</time>
      </trkpt>
      <trkpt lat="44.83089" lon="6.96581">
        <ele>2314.2</ele>
        <time>2021-02-16T12:42:00Z</time>
      </trkpt>
      <trkpt lat="44.8309" lon="6.96574">
        <ele>2314</ele>
        <time>2021-02-16T12:42:02Z</time>
      </trkpt>
      <trkpt lat="44.8309" lon="6.96567">
        <ele>2312.4</ele>
        <time>2021-02-16T12:42:04Z</time>
      </trkpt>
      <trkpt lat="44.83089" lon="6.9656">
        <ele>2311.4</ele>
        <time>2021-02-16T12:42:06Z</time>
      </trkpt>
      <trkpt lat="44.83089" lon="6.96552">
        <ele>2311.2</ele>
        <time>2021-02-16T12:42:08Z</time>
      </trkpt>
      <trkpt lat="44.83089" lon="6.96546">
        <ele>2311.2</ele>
        <time>2021-02-16T12:42:10Z</time>
      </trkpt>
      <trkpt lat="44.8309" lon="6.96539">
        <ele>2309.4</ele>
        <time>2021-02-16T12:42:14Z</time>
      </trkpt>
      <trkpt lat="44.83091" lon="6.96533">
        <ele>2309</ele>
        <time>2021-02-16T12:42:31Z</time>
      </trkpt>
      <trkpt lat="44.83092" lon="6.96525">
        <ele>2307</ele>
        <time>2021-02-16T12:42:47Z</time>
      </trkpt>
      <trkpt lat="44.83093" lon="6.96519">
        <ele>2306</ele>
        <time>2021-02-16T12:42:51Z</time>
      </trkpt>
      <trkpt lat="44.83093" lon="6.96515">
        <ele>2300.6</ele>
        <time>2021-02-16T12:42:53Z</time>
      </trkpt>
      <trkpt lat="44.83094" lon="6.96509">
        <ele>2300.8</ele>
        <time>2021-02-16T12:42:55Z</time>
      </trkpt>
      <trkpt lat="44.83095" lon="6.965">
        <ele>2298.4</ele>
        <time>2021-02-16T12:42:57Z</time>
      </trkpt>
      <trkpt lat="44.83093" lon="6.96491">
        <ele>2296.4</ele>
        <time>2021-02-16T12:42:59Z</time>
      </trkpt>
      <trkpt lat="44.83091" lon="6.96482">
        <ele>2298.4</ele>
        <time>2021-02-16T12:43:01Z</time>
      </trkpt>
      <trkpt lat="44.8309" lon="6.96473">
        <ele>2296.2</ele>
        <time>2021-02-16T12:43:03Z</time>
      </trkpt>
      <trkpt lat="44.83092" lon="6.96462">
        <ele>2295.2</ele>
        <time>2021-02-16T12:43:05Z</time>
      </trkpt>
      <trkpt lat="44.83093" lon="6.96453">
        <ele>2290.6</ele>
        <time>2021-02-16T12:43:07Z</time>
      </trkpt>
      <trkpt lat="44.83097" lon="6.96442">
        <ele>2290</ele>
        <time>2021-02-16T12:43:09Z</time>
      </trkpt>
      <trkpt lat="44.831" lon="6.96432">
        <ele>2290.2</ele>
        <time>2021-02-16T12:43:11Z</time>
      </trkpt>
      <trkpt lat="44.83101" lon="6.96427">
        <ele>2289</ele>
        <time>2021-02-16T12:43:12Z</time>
      </trkpt>
      <trkpt lat="44.83105" lon="6.96416">
        <ele>2287.4</ele>
        <time>2021-02-16T12:43:13Z</time>
      </trkpt>
      <trkpt lat="44.83107" lon="6.96408">
        <ele>2285</ele>
        <time>2021-02-16T12:43:14Z</time>
      </trkpt>
      <trkpt lat="44.83108" lon="6.96401">
        <ele>2284.4</ele>
        <time>2021-02-16T12:43:15Z</time>
      </trkpt>
      <trkpt lat="44.83109" lon="6.96395">
        <ele>2285</ele>
        <time>2021-02-16T12:43:16Z</time>
      </trkpt>
      <trkpt lat="44.83109" lon="6.96384">
        <ele>2285.8</ele>
        <time>2021-02-16T12:43:18Z</time>
      </trkpt>
      <trkpt lat="44.83109" lon="6.9638">
        <ele>2281.8</ele>
        <time>2021-02-16T12:43:19Z</time>
      </trkpt>
      <trkpt lat="44.83112" lon="6.96365">
        <ele>2283.4</ele>
        <time>2021-02-16T12:43:21Z</time>
      </trkpt>
      <trkpt lat="44.83113" lon="6.96356">
        <ele>2281.6</ele>
        <time>2021-02-16T12:43:23Z</time>
      </trkpt>
      <trkpt lat="44.83115" lon="6.96347">
        <ele>2282</ele>
        <time>2021-02-16T12:43:25Z</time>
      </trkpt>
      <trkpt lat="44.83116" lon="6.9634">
        <ele>2279.2</ele>
        <time>2021-02-16T12:43:28Z</time>
      </trkpt>
      <trkpt lat="44.83118" lon="6.96334">
        <ele>2276.8</ele>
        <time>2021-02-16T12:43:31Z</time>
      </trkpt>
      <trkpt lat="44.8312" lon="6.96329">
        <ele>2273.8</ele>
        <time>2021-02-16T12:43:34Z</time>
      </trkpt>
      <trkpt lat="44.83123" lon="6.96319">
        <ele>2271.8</ele>
        <time>2021-02-16T12:43:37Z</time>
      </trkpt>
      <trkpt lat="44.83124" lon="6.96313">
        <ele>2272.4</ele>
        <time>2021-02-16T12:43:38Z</time>
      </trkpt>
      <trkpt lat="44.83127" lon="6.96306">
        <ele>2271.6</ele>
        <time>2021-02-16T12:43:40Z</time>
      </trkpt>
      <trkpt lat="44.8313" lon="6.96301">
        <ele>2269.8</ele>
        <time>2021-02-16T12:43:41Z</time>
      </trkpt>
      <trkpt lat="44.83135" lon="6.96292">
        <ele>2267.8</ele>
        <time>2021-02-16T12:43:43Z</time>
      </trkpt>
      <trkpt lat="44.83137" lon="6.96287">
        <ele>2266.6</ele>
        <time>2021-02-16T12:43:44Z</time>
      </trkpt>
      <trkpt lat="44.8314" lon="6.96278">
        <ele>2265.2</ele>
        <time>2021-02-16T12:43:46Z</time>
      </trkpt>
      <trkpt lat="44.83143" lon="6.96268">
        <ele>2263.8</ele>
        <time>2021-02-16T12:43:48Z</time>
      </trkpt>
      <trkpt lat="44.83143" lon="6.96263">
        <ele>2264.4</ele>
        <time>2021-02-16T12:44:06Z</time>
      </trkpt>
      <trkpt lat="44.83143" lon="6.96255">
        <ele>2264.2</ele>
        <time>2021-02-16T12:44:16Z</time>
      </trkpt>
      <trkpt lat="44.83146" lon="6.9625">
        <ele>2263.8</ele>
        <time>2021-02-16T12:44:26Z</time>
      </trkpt>
      <trkpt lat="44.83149" lon="6.96245">
        <ele>2261.6</ele>
        <time>2021-02-16T12:44:57Z</time>
      </trkpt>
      <trkpt lat="44.83154" lon="6.96239">
        <ele>2259.8</ele>
        <time>2021-02-16T12:45:00Z</time>
      </trkpt>
      <trkpt lat="44.83157" lon="6.96232">
        <ele>2257.6</ele>
        <time>2021-02-16T12:45:02Z</time>
      </trkpt>
      <trkpt lat="44.8316" lon="6.96226">
        <ele>2257.2</ele>
        <time>2021-02-16T12:45:04Z</time>
      </trkpt>
      <trkpt lat="44.83164" lon="6.96219">
        <ele>2254.8</ele>
        <time>2021-02-16T12:45:08Z</time>
      </trkpt>
      <trkpt lat="44.83166" lon="6.96215">
        <ele>2252.6</ele>
        <time>2021-02-16T12:45:10Z</time>
      </trkpt>
      <trkpt lat="44.83169" lon="6.96207">
        <ele>2251.8</ele>
        <time>2021-02-16T12:45:12Z</time>
      </trkpt>
      <trkpt lat="44.83171" lon="6.96202">
        <ele>2253.4</ele>
        <time>2021-02-16T12:45:14Z</time>
      </trkpt>
      <trkpt lat="44.83174" lon="6.96196">
        <ele>2249.6</ele>
        <time>2021-02-16T12:45:16Z</time>
      </trkpt>
      <trkpt lat="44.83175" lon="6.96189">
        <ele>2247.8</ele>
        <time>2021-02-16T12:45:19Z</time>
      </trkpt>
      <trkpt lat="44.83176" lon="6.96182">
        <ele>2245.6</ele>
        <time>2021-02-16T12:45:22Z</time>
      </trkpt>
      <trkpt lat="44.83177" lon="6.96174">
        <ele>2245.2</ele>
        <time>2021-02-16T12:45:26Z</time>
      </trkpt>
      <trkpt lat="44.8318" lon="6.96168">
        <ele>2245.6</ele>
        <time>2021-02-16T12:45:31Z</time>
      </trkpt>
      <trkpt lat="44.83182" lon="6.96161">
        <ele>2243</ele>
        <time>2021-02-16T12:45:34Z</time>
      </trkpt>
      <trkpt lat="44.83184" lon="6.96154">
        <ele>2239.8</ele>
        <time>2021-02-16T12:45:36Z</time>
      </trkpt>
      <trkpt lat="44.83185" lon="6.96146">
        <ele>2241</ele>
        <time>2021-02-16T12:45:37Z</time>
      </trkpt>
      <trkpt lat="44.83187" lon="6.96137">
        <ele>2239.2</ele>
        <time>2021-02-16T12:45:39Z</time>
      </trkpt>
      <trkpt lat="44.83191" lon="6.96129">
        <ele>2239.4</ele>
        <time>2021-02-16T12:45:41Z</time>
      </trkpt>
      <trkpt lat="44.83195" lon="6.96122">
        <ele>2240.4</ele>
        <time>2021-02-16T12:45:43Z</time>
      </trkpt>
      <trkpt lat="44.83199" lon="6.96115">
        <ele>2239.2</ele>
        <time>2021-02-16T12:45:45Z</time>
      </trkpt>
      <trkpt lat="44.83204" lon="6.96108">
        <ele>2238</ele>
        <time>2021-02-16T12:45:47Z</time>
      </trkpt>
      <trkpt lat="44.8321" lon="6.96098">
        <ele>2239.8</ele>
        <time>2021-02-16T12:45:50Z</time>
      </trkpt>
      <trkpt lat="44.83215" lon="6.96089">
        <ele>2239.4</ele>
        <time>2021-02-16T12:45:52Z</time>
      </trkpt>
      <trkpt lat="44.83218" lon="6.96082">
        <ele>2240.6</ele>
        <time>2021-02-16T12:45:54Z</time>
      </trkpt>
      <trkpt lat="44.83222" lon="6.96077">
        <ele>2237.2</ele>
        <time>2021-02-16T12:45:57Z</time>
      </trkpt>
      <trkpt lat="44.83224" lon="6.96072">
        <ele>2239.4</ele>
        <time>2021-02-16T12:46:05Z</time>
      </trkpt>
      <trkpt lat="44.83226" lon="6.96065">
        <ele>2241.4</ele>
        <time>2021-02-16T12:46:08Z</time>
      </trkpt>
      <trkpt lat="44.83229" lon="6.96059">
        <ele>2238.2</ele>
        <time>2021-02-16T12:46:10Z</time>
      </trkpt>
      <trkpt lat="44.83231" lon="6.96056">
        <ele>2237</ele>
        <time>2021-02-16T12:46:11Z</time>
      </trkpt>
      <trkpt lat="44.83237" lon="6.96047">
        <ele>2233.8</ele>
        <time>2021-02-16T12:46:13Z</time>
      </trkpt>
      <trkpt lat="44.83239" lon="6.96042">
        <ele>2232</ele>
        <time>2021-02-16T12:46:14Z</time>
      </trkpt>
      <trkpt lat="44.83243" lon="6.96032">
        <ele>2232</ele>
        <time>2021-02-16T12:46:16Z</time>
      </trkpt>
      <trkpt lat="44.83246" lon="6.96027">
        <ele>2229</ele>
        <time>2021-02-16T12:46:17Z</time>
      </trkpt>
      <trkpt lat="44.8325" lon="6.96023">
        <ele>2228.4</ele>
        <time>2021-02-16T12:46:18Z</time>
      </trkpt>
      <trkpt lat="44.83254" lon="6.96018">
        <ele>2230</ele>
        <time>2021-02-16T12:46:19Z</time>
      </trkpt>
      <trkpt lat="44.83259" lon="6.9601">
        <ele>2228.2</ele>
        <time>2021-02-16T12:46:21Z</time>
      </trkpt>
      <trkpt lat="44.8326" lon="6.96002">
        <ele>2228.2</ele>
        <time>2021-02-16T12:46:22Z</time>
      </trkpt>
      <trkpt lat="44.83264" lon="6.95995">
        <ele>2226</ele>
        <time>2021-02-16T12:46:23Z</time>
      </trkpt>
      <trkpt lat="44.83267" lon="6.95988">
        <ele>2224</ele>
        <time>2021-02-16T12:46:27Z</time>
      </trkpt>
      <trkpt lat="44.83271" lon="6.95983">
        <ele>2222.4</ele>
        <time>2021-02-16T12:46:36Z</time>
      </trkpt>
      <trkpt lat="44.83273" lon="6.95977">
        <ele>2219.6</ele>
        <time>2021-02-16T12:46:44Z</time>
      </trkpt>
      <trkpt lat="44.83277" lon="6.95974">
        <ele>2217.4</ele>
        <time>2021-02-16T12:46:56Z</time>
      </trkpt>
      <trkpt lat="44.83281" lon="6.95971">
        <ele>2216.6</ele>
        <time>2021-02-16T12:47:00Z</time>
      </trkpt>
      <trkpt lat="44.83285" lon="6.95964">
        <ele>2214</ele>
        <time>2021-02-16T12:47:03Z</time>
      </trkpt>
      <trkpt lat="44.83289" lon="6.9596">
        <ele>2214.4</ele>
        <time>2021-02-16T12:47:05Z</time>
      </trkpt>
      <trkpt lat="44.83294" lon="6.95956">
        <ele>2213.6</ele>
        <time>2021-02-16T12:47:07Z</time>
      </trkpt>
      <trkpt lat="44.83297" lon="6.95951">
        <ele>2213.6</ele>
        <time>2021-02-16T12:47:09Z</time>
      </trkpt>
      <trkpt lat="44.833" lon="6.95946">
        <ele>2210</ele>
        <time>2021-02-16T12:47:11Z</time>
      </trkpt>
      <trkpt lat="44.83305" lon="6.95939">
        <ele>2210.8</ele>
        <time>2021-02-16T12:47:13Z</time>
      </trkpt>
      <trkpt lat="44.83307" lon="6.95932">
        <ele>2209</ele>
        <time>2021-02-16T12:47:16Z</time>
      </trkpt>
      <trkpt lat="44.83308" lon="6.95926">
        <ele>2208.8</ele>
        <time>2021-02-16T12:47:19Z</time>
      </trkpt>
      <trkpt lat="44.8331" lon="6.95917">
        <ele>2207</ele>
        <time>2021-02-16T12:47:22Z</time>
      </trkpt>
      <trkpt lat="44.83309" lon="6.95912">
        <ele>2204.4</ele>
        <time>2021-02-16T12:47:24Z</time>
      </trkpt>
      <trkpt lat="44.83309" lon="6.95904">
        <ele>2202</ele>
        <time>2021-02-16T12:47:26Z</time>
      </trkpt>
      <trkpt lat="44.83311" lon="6.95895">
        <ele>2202.2</ele>
        <time>2021-02-16T12:47:28Z</time>
      </trkpt>
      <trkpt lat="44.83312" lon="6.95887">
        <ele>2200.8</ele>
        <time>2021-02-16T12:47:30Z</time>
      </trkpt>
      <trkpt lat="44.83313" lon="6.95877">
        <ele>2198.8</ele>
        <time>2021-02-16T12:47:32Z</time>
      </trkpt>
      <trkpt lat="44.83314" lon="6.95871">
        <ele>2199</ele>
        <time>2021-02-16T12:47:33Z</time>
      </trkpt>
      <trkpt lat="44.83314" lon="6.95861">
        <ele>2197.6</ele>
        <time>2021-02-16T12:47:35Z</time>
      </trkpt>
      <trkpt lat="44.83313" lon="6.95852">
        <ele>2197.2</ele>
        <time>2021-02-16T12:47:37Z</time>
      </trkpt>
      <trkpt lat="44.83312" lon="6.95847">
        <ele>2198.4</ele>
        <time>2021-02-16T12:47:38Z</time>
      </trkpt>
      <trkpt lat="44.83309" lon="6.95839">
        <ele>2200</ele>
        <time>2021-02-16T12:47:41Z</time>
      </trkpt>
      <trkpt lat="44.83304" lon="6.95837">
        <ele>2200.4</ele>
        <time>2021-02-16T12:47:58Z</time>
      </trkpt>
      <trkpt lat="44.83301" lon="6.95836">
        <ele>2196.6</ele>
        <time>2021-02-16T12:48:14Z</time>
      </trkpt>
      <trkpt lat="44.83303" lon="6.95828">
        <ele>2193.8</ele>
        <time>2021-02-16T12:48:20Z</time>
      </trkpt>
      <trkpt lat="44.83305" lon="6.95822">
        <ele>2195.4</ele>
        <time>2021-02-16T12:48:22Z</time>
      </trkpt>
      <trkpt lat="44.83305" lon="6.95814">
        <ele>2194.6</ele>
        <time>2021-02-16T12:48:24Z</time>
      </trkpt>
      <trkpt lat="44.83307" lon="6.95806">
        <ele>2191.4</ele>
        <time>2021-02-16T12:48:26Z</time>
      </trkpt>
      <trkpt lat="44.83311" lon="6.95798">
        <ele>2193.8</ele>
        <time>2021-02-16T12:48:27Z</time>
      </trkpt>
      <trkpt lat="44.83313" lon="6.95793">
        <ele>2192.6</ele>
        <time>2021-02-16T12:48:28Z</time>
      </trkpt>
      <trkpt lat="44.83315" lon="6.95785">
        <ele>2191.8</ele>
        <time>2021-02-16T12:48:30Z</time>
      </trkpt>
      <trkpt lat="44.83323" lon="6.95773">
        <ele>2191.4</ele>
        <time>2021-02-16T12:48:32Z</time>
      </trkpt>
      <trkpt lat="44.83327" lon="6.95768">
        <ele>2191.6</ele>
        <time>2021-02-16T12:48:33Z</time>
      </trkpt>
      <trkpt lat="44.83329" lon="6.95763">
        <ele>2190.6</ele>
        <time>2021-02-16T12:48:34Z</time>
      </trkpt>
      <trkpt lat="44.83333" lon="6.95758">
        <ele>2192.2</ele>
        <time>2021-02-16T12:48:38Z</time>
      </trkpt>
      <trkpt lat="44.83331" lon="6.95755">
        <ele>2185.8</ele>
        <time>2021-02-16T12:48:44Z</time>
      </trkpt>
      <trkpt lat="44.83333" lon="6.95749">
        <ele>2186</ele>
        <time>2021-02-16T12:48:47Z</time>
      </trkpt>
      <trkpt lat="44.83334" lon="6.95742">
        <ele>2183.8</ele>
        <time>2021-02-16T12:48:50Z</time>
      </trkpt>
      <trkpt lat="44.83336" lon="6.95736">
        <ele>2183</ele>
        <time>2021-02-16T12:48:52Z</time>
      </trkpt>
      <trkpt lat="44.83339" lon="6.95727">
        <ele>2182.2</ele>
        <time>2021-02-16T12:48:55Z</time>
      </trkpt>
      <trkpt lat="44.83342" lon="6.95718">
        <ele>2181.6</ele>
        <time>2021-02-16T12:48:57Z</time>
      </trkpt>
      <trkpt lat="44.83343" lon="6.95709">
        <ele>2179.6</ele>
        <time>2021-02-16T12:48:59Z</time>
      </trkpt>
      <trkpt lat="44.8334" lon="6.95703">
        <ele>2180.6</ele>
        <time>2021-02-16T12:49:00Z</time>
      </trkpt>
      <trkpt lat="44.83341" lon="6.95692">
        <ele>2177</ele>
        <time>2021-02-16T12:49:02Z</time>
      </trkpt>
      <trkpt lat="44.83341" lon="6.95684">
        <ele>2177.6</ele>
        <time>2021-02-16T12:49:04Z</time>
      </trkpt>
      <trkpt lat="44.83343" lon="6.95675">
        <ele>2177.6</ele>
        <time>2021-02-16T12:49:06Z</time>
      </trkpt>
      <trkpt lat="44.83342" lon="6.95663">
        <ele>2175.2</ele>
        <time>2021-02-16T12:49:09Z</time>
      </trkpt>
      <trkpt lat="44.83344" lon="6.95655">
        <ele>2178.4</ele>
        <time>2021-02-16T12:49:11Z</time>
      </trkpt>
      <trkpt lat="44.83345" lon="6.95648">
        <ele>2174.4</ele>
        <time>2021-02-16T12:49:13Z</time>
      </trkpt>
      <trkpt lat="44.83348" lon="6.9564">
        <ele>2176</ele>
        <time>2021-02-16T12:49:15Z</time>
      </trkpt>
      <trkpt lat="44.8335" lon="6.95633">
        <ele>2172.2</ele>
        <time>2021-02-16T12:49:17Z</time>
      </trkpt>
      <trkpt lat="44.8335" lon="6.95627">
        <ele>2170.6</ele>
        <time>2021-02-16T12:49:19Z</time>
      </trkpt>
      <trkpt lat="44.83353" lon="6.9562">
        <ele>2169.8</ele>
        <time>2021-02-16T12:49:21Z</time>
      </trkpt>
      <trkpt lat="44.83357" lon="6.95616">
        <ele>2168.6</ele>
        <time>2021-02-16T12:49:24Z</time>
      </trkpt>
      <trkpt lat="44.83357" lon="6.95608">
        <ele>2167.4</ele>
        <time>2021-02-16T12:49:52Z</time>
      </trkpt>
      <trkpt lat="44.83358" lon="6.956">
        <ele>2166.8</ele>
        <time>2021-02-16T12:49:55Z</time>
      </trkpt>
      <trkpt lat="44.83359" lon="6.95591">
        <ele>2165.4</ele>
        <time>2021-02-16T12:49:58Z</time>
      </trkpt>
      <trkpt lat="44.8336" lon="6.95584">
        <ele>2165.6</ele>
        <time>2021-02-16T12:50:00Z</time>
      </trkpt>
      <trkpt lat="44.83362" lon="6.95577">
        <ele>2166</ele>
        <time>2021-02-16T12:50:02Z</time>
      </trkpt>
      <trkpt lat="44.83364" lon="6.95568">
        <ele>2163.8</ele>
        <time>2021-02-16T12:50:04Z</time>
      </trkpt>
      <trkpt lat="44.83365" lon="6.95561">
        <ele>2162.6</ele>
        <time>2021-02-16T12:50:06Z</time>
      </trkpt>
      <trkpt lat="44.83368" lon="6.95552">
        <ele>2164</ele>
        <time>2021-02-16T12:50:08Z</time>
      </trkpt>
      <trkpt lat="44.83371" lon="6.95546">
        <ele>2161.2</ele>
        <time>2021-02-16T12:50:09Z</time>
      </trkpt>
      <trkpt lat="44.8337" lon="6.95535">
        <ele>2161.2</ele>
        <time>2021-02-16T12:50:11Z</time>
      </trkpt>
      <trkpt lat="44.83371" lon="6.95529">
        <ele>2161</ele>
        <time>2021-02-16T12:50:12Z</time>
      </trkpt>
      <trkpt lat="44.83374" lon="6.95518">
        <ele>2160</ele>
        <time>2021-02-16T12:50:14Z</time>
      </trkpt>
      <trkpt lat="44.83376" lon="6.95511">
        <ele>2161.4</ele>
        <time>2021-02-16T12:50:15Z</time>
      </trkpt>
      <trkpt lat="44.83379" lon="6.95503">
        <ele>2162.2</ele>
        <time>2021-02-16T12:50:17Z</time>
      </trkpt>
      <trkpt lat="44.83379" lon="6.95496">
        <ele>2160.8</ele>
        <time>2021-02-16T12:50:20Z</time>
      </trkpt>
      <trkpt lat="44.83381" lon="6.95487">
        <ele>2160.8</ele>
        <time>2021-02-16T12:50:22Z</time>
      </trkpt>
      <trkpt lat="44.83383" lon="6.95478">
        <ele>2161</ele>
        <time>2021-02-16T12:50:24Z</time>
      </trkpt>
      <trkpt lat="44.83384" lon="6.95468">
        <ele>2159.4</ele>
        <time>2021-02-16T12:50:26Z</time>
      </trkpt>
      <trkpt lat="44.83385" lon="6.9546">
        <ele>2157</ele>
        <time>2021-02-16T12:50:28Z</time>
      </trkpt>
      <trkpt lat="44.83385" lon="6.95453">
        <ele>2154</ele>
        <time>2021-02-16T12:50:30Z</time>
      </trkpt>
      <trkpt lat="44.83388" lon="6.95446">
        <ele>2153.6</ele>
        <time>2021-02-16T12:50:32Z</time>
      </trkpt>
      <trkpt lat="44.83391" lon="6.95441">
        <ele>2154.6</ele>
        <time>2021-02-16T12:50:34Z</time>
      </trkpt>
      <trkpt lat="44.83394" lon="6.95435">
        <ele>2152.6</ele>
        <time>2021-02-16T12:50:36Z</time>
      </trkpt>
      <trkpt lat="44.83396" lon="6.95432">
        <ele>2154.4</ele>
        <time>2021-02-16T12:50:37Z</time>
      </trkpt>
      <trkpt lat="44.83399" lon="6.95425">
        <ele>2152.4</ele>
        <time>2021-02-16T12:50:39Z</time>
      </trkpt>
      <trkpt lat="44.83403" lon="6.95419">
        <ele>2150.4</ele>
        <time>2021-02-16T12:50:42Z</time>
      </trkpt>
      <trkpt lat="44.83403" lon="6.9541">
        <ele>2147.8</ele>
        <time>2021-02-16T12:50:46Z</time>
      </trkpt>
      <trkpt lat="44.83403" lon="6.95402">
        <ele>2145.6</ele>
        <time>2021-02-16T12:50:49Z</time>
      </trkpt>
      <trkpt lat="44.83403" lon="6.95395">
        <ele>2146.2</ele>
        <time>2021-02-16T12:50:51Z</time>
      </trkpt>
      <trkpt lat="44.834" lon="6.95388">
        <ele>2146.6</ele>
        <time>2021-02-16T12:50:53Z</time>
      </trkpt>
      <trkpt lat="44.83395" lon="6.9539">
        <ele>2146.8</ele>
        <time>2021-02-16T12:50:55Z</time>
      </trkpt>
      <trkpt lat="44.8339" lon="6.95391">
        <ele>2144.2</ele>
        <time>2021-02-16T12:51:14Z</time>
      </trkpt>
      <trkpt lat="44.83386" lon="6.95391">
        <ele>2141.6</ele>
        <time>2021-02-16T12:51:37Z</time>
      </trkpt>
      <trkpt lat="44.83378" lon="6.95389">
        <ele>2141</ele>
        <time>2021-02-16T12:51:44Z</time>
      </trkpt>
      <trkpt lat="44.83374" lon="6.95388">
        <ele>2139.2</ele>
        <time>2021-02-16T12:52:16Z</time>
      </trkpt>
      <trkpt lat="44.83377" lon="6.95389">
        <ele>2135.2</ele>
        <time>2021-02-16T12:52:47Z</time>
      </trkpt>
      <trkpt lat="44.83378" lon="6.95383">
        <ele>2135.6</ele>
        <time>2021-02-16T12:52:59Z</time>
      </trkpt>
      <trkpt lat="44.83377" lon="6.95378">
        <ele>2131.6</ele>
        <time>2021-02-16T12:53:02Z</time>
      </trkpt>
      <trkpt lat="44.83378" lon="6.95371">
        <ele>2134.2</ele>
        <time>2021-02-16T12:53:06Z</time>
      </trkpt>
      <trkpt lat="44.83376" lon="6.95365">
        <ele>2131.8</ele>
        <time>2021-02-16T12:53:09Z</time>
      </trkpt>
      <trkpt lat="44.83375" lon="6.95361">
        <ele>2136.4</ele>
        <time>2021-02-16T12:53:11Z</time>
      </trkpt>
      <trkpt lat="44.83376" lon="6.95355">
        <ele>2134.6</ele>
        <time>2021-02-16T12:53:13Z</time>
      </trkpt>
      <trkpt lat="44.83377" lon="6.95351">
        <ele>2129</ele>
        <time>2021-02-16T12:53:14Z</time>
      </trkpt>
      <trkpt lat="44.83379" lon="6.95342">
        <ele>2128</ele>
        <time>2021-02-16T12:53:16Z</time>
      </trkpt>
      <trkpt lat="44.83379" lon="6.95334">
        <ele>2127</ele>
        <time>2021-02-16T12:53:18Z</time>
      </trkpt>
      <trkpt lat="44.8338" lon="6.95327">
        <ele>2128.6</ele>
        <time>2021-02-16T12:53:20Z</time>
      </trkpt>
      <trkpt lat="44.83379" lon="6.95321">
        <ele>2131.4</ele>
        <time>2021-02-16T12:53:23Z</time>
      </trkpt>
      <trkpt lat="44.83379" lon="6.95315">
        <ele>2129.6</ele>
        <time>2021-02-16T12:53:25Z</time>
      </trkpt>
      <trkpt lat="44.83377" lon="6.95307">
        <ele>2126.2</ele>
        <time>2021-02-16T12:53:28Z</time>
      </trkpt>
      <trkpt lat="44.83376" lon="6.95301">
        <ele>2128.2</ele>
        <time>2021-02-16T12:53:30Z</time>
      </trkpt>
      <trkpt lat="44.83375" lon="6.95295">
        <ele>2127.4</ele>
        <time>2021-02-16T12:53:31Z</time>
      </trkpt>
      <trkpt lat="44.83375" lon="6.95288">
        <ele>2125.6</ele>
        <time>2021-02-16T12:53:32Z</time>
      </trkpt>
      <trkpt lat="44.83373" lon="6.95283">
        <ele>2125.2</ele>
        <time>2021-02-16T12:53:33Z</time>
      </trkpt>
      <trkpt lat="44.8337" lon="6.95276">
        <ele>2125.6</ele>
        <time>2021-02-16T12:53:35Z</time>
      </trkpt>
      <trkpt lat="44.83372" lon="6.9527">
        <ele>2128</ele>
        <time>2021-02-16T12:53:40Z</time>
      </trkpt>
      <trkpt lat="44.83377" lon="6.95267">
        <ele>2125.4</ele>
        <time>2021-02-16T12:53:47Z</time>
      </trkpt>
      <trkpt lat="44.83379" lon="6.95259">
        <ele>2124.8</ele>
        <time>2021-02-16T12:53:51Z</time>
      </trkpt>
      <trkpt lat="44.83379" lon="6.95253">
        <ele>2122.2</ele>
        <time>2021-02-16T12:53:53Z</time>
      </trkpt>
      <trkpt lat="44.83377" lon="6.95248">
        <ele>2124</ele>
        <time>2021-02-16T12:53:58Z</time>
      </trkpt>
      <trkpt lat="44.83374" lon="6.95243">
        <ele>2124</ele>
        <time>2021-02-16T12:54:05Z</time>
      </trkpt>
      <trkpt lat="44.83374" lon="6.95239">
        <ele>2120</ele>
        <time>2021-02-16T12:54:08Z</time>
      </trkpt>
      <trkpt lat="44.83378" lon="6.95239">
        <ele>2119.8</ele>
        <time>2021-02-16T12:54:12Z</time>
      </trkpt>
      <trkpt lat="44.83385" lon="6.95242">
        <ele>2114.4</ele>
        <time>2021-02-16T12:54:15Z</time>
      </trkpt>
      <trkpt lat="44.83389" lon="6.95246">
        <ele>2114</ele>
        <time>2021-02-16T12:54:17Z</time>
      </trkpt>
      <trkpt lat="44.83396" lon="6.95249">
        <ele>2110.8</ele>
        <time>2021-02-16T12:54:19Z</time>
      </trkpt>
      <trkpt lat="44.834" lon="6.95248">
        <ele>2109.4</ele>
        <time>2021-02-16T12:54:21Z</time>
      </trkpt>
      <trkpt lat="44.83397" lon="6.95243">
        <ele>2107.2</ele>
        <time>2021-02-16T12:54:39Z</time>
      </trkpt>
      <trkpt lat="44.83398" lon="6.95239">
        <ele>2103.4</ele>
        <time>2021-02-16T12:54:44Z</time>
      </trkpt>
      <trkpt lat="44.83396" lon="6.95234">
        <ele>2100.6</ele>
        <time>2021-02-16T12:54:59Z</time>
      </trkpt>
      <trkpt lat="44.834" lon="6.95228">
        <ele>2098.8</ele>
        <time>2021-02-16T12:55:11Z</time>
      </trkpt>
      <trkpt lat="44.834" lon="6.95224">
        <ele>2094</ele>
        <time>2021-02-16T12:55:21Z</time>
      </trkpt>
      <trkpt lat="44.834" lon="6.95218">
        <ele>2093</ele>
        <time>2021-02-16T12:55:25Z</time>
      </trkpt>
      <trkpt lat="44.834" lon="6.95211">
        <ele>2092.6</ele>
        <time>2021-02-16T12:55:28Z</time>
      </trkpt>
      <trkpt lat="44.834" lon="6.95204">
        <ele>2089.4</ele>
        <time>2021-02-16T12:55:30Z</time>
      </trkpt>
      <trkpt lat="44.83401" lon="6.95196">
        <ele>2089.8</ele>
        <time>2021-02-16T12:55:32Z</time>
      </trkpt>
      <trkpt lat="44.83401" lon="6.95188">
        <ele>2089.6</ele>
        <time>2021-02-16T12:55:34Z</time>
      </trkpt>
      <trkpt lat="44.83405" lon="6.9518">
        <ele>2089.4</ele>
        <time>2021-02-16T12:55:36Z</time>
      </trkpt>
      <trkpt lat="44.83408" lon="6.95172">
        <ele>2086.8</ele>
        <time>2021-02-16T12:55:38Z</time>
      </trkpt>
      <trkpt lat="44.83407" lon="6.95164">
        <ele>2086.6</ele>
        <time>2021-02-16T12:55:40Z</time>
      </trkpt>
      <trkpt lat="44.83406" lon="6.95158">
        <ele>2085.8</ele>
        <time>2021-02-16T12:55:42Z</time>
      </trkpt>
      <trkpt lat="44.83406" lon="6.95151">
        <ele>2086.2</ele>
        <time>2021-02-16T12:55:44Z</time>
      </trkpt>
      <trkpt lat="44.83406" lon="6.95145">
        <ele>2086</ele>
        <time>2021-02-16T12:55:47Z</time>
      </trkpt>
      <trkpt lat="44.8341" lon="6.95139">
        <ele>2084.8</ele>
        <time>2021-02-16T12:55:51Z</time>
      </trkpt>
      <trkpt lat="44.83405" lon="6.95133">
        <ele>2086</ele>
        <time>2021-02-16T12:55:55Z</time>
      </trkpt>
      <trkpt lat="44.83402" lon="6.95129">
        <ele>2083.8</ele>
        <time>2021-02-16T12:55:58Z</time>
      </trkpt>
      <trkpt lat="44.83401" lon="6.9512">
        <ele>2086.4</ele>
        <time>2021-02-16T12:56:01Z</time>
      </trkpt>
      <trkpt lat="44.83402" lon="6.95111">
        <ele>2085.8</ele>
        <time>2021-02-16T12:56:03Z</time>
      </trkpt>
      <trkpt lat="44.83403" lon="6.95105">
        <ele>2083.8</ele>
        <time>2021-02-16T12:56:04Z</time>
      </trkpt>
      <trkpt lat="44.83398" lon="6.95099">
        <ele>2083.4</ele>
        <time>2021-02-16T12:56:06Z</time>
      </trkpt>
      <trkpt lat="44.83395" lon="6.95094">
        <ele>2082</ele>
        <time>2021-02-16T12:56:08Z</time>
      </trkpt>
      <trkpt lat="44.83395" lon="6.95086">
        <ele>2083.8</ele>
        <time>2021-02-16T12:56:12Z</time>
      </trkpt>
      <trkpt lat="44.83397" lon="6.95079">
        <ele>2085</ele>
        <time>2021-02-16T12:56:15Z</time>
      </trkpt>
      <trkpt lat="44.83399" lon="6.95074">
        <ele>2086</ele>
        <time>2021-02-16T12:56:18Z</time>
      </trkpt>
      <trkpt lat="44.83397" lon="6.95068">
        <ele>2084.6</ele>
        <time>2021-02-16T12:56:26Z</time>
      </trkpt>
      <trkpt lat="44.83395" lon="6.95064">
        <ele>2082</ele>
        <time>2021-02-16T12:56:32Z</time>
      </trkpt>
      <trkpt lat="44.83394" lon="6.95058">
        <ele>2080.4</ele>
        <time>2021-02-16T12:56:36Z</time>
      </trkpt>
      <trkpt lat="44.83398" lon="6.95054">
        <ele>2077</ele>
        <time>2021-02-16T12:56:39Z</time>
      </trkpt>
      <trkpt lat="44.83405" lon="6.95055">
        <ele>2075.8</ele>
        <time>2021-02-16T12:56:42Z</time>
      </trkpt>
      <trkpt lat="44.83412" lon="6.95056">
        <ele>2075.6</ele>
        <time>2021-02-16T12:56:44Z</time>
      </trkpt>
      <trkpt lat="44.83416" lon="6.95053">
        <ele>2074.8</ele>
        <time>2021-02-16T12:56:46Z</time>
      </trkpt>
      <trkpt lat="44.83421" lon="6.95051">
        <ele>2076.8</ele>
        <time>2021-02-16T12:57:01Z</time>
      </trkpt>
      <trkpt lat="44.83426" lon="6.9505">
        <ele>2074.6</ele>
        <time>2021-02-16T12:57:08Z</time>
      </trkpt>
      <trkpt lat="44.83429" lon="6.95045">
        <ele>2073</ele>
        <time>2021-02-16T12:57:10Z</time>
      </trkpt>
      <trkpt lat="44.83431" lon="6.95038">
        <ele>2068.8</ele>
        <time>2021-02-16T12:57:13Z</time>
      </trkpt>
      <trkpt lat="44.83434" lon="6.95032">
        <ele>2067.2</ele>
        <time>2021-02-16T12:57:14Z</time>
      </trkpt>
      <trkpt lat="44.83435" lon="6.95026">
        <ele>2067.2</ele>
        <time>2021-02-16T12:57:15Z</time>
      </trkpt>
      <trkpt lat="44.83435" lon="6.9502">
        <ele>2065.6</ele>
        <time>2021-02-16T12:57:16Z</time>
      </trkpt>
      <trkpt lat="44.83435" lon="6.95014">
        <ele>2067.6</ele>
        <time>2021-02-16T12:57:17Z</time>
      </trkpt>
      <trkpt lat="44.83437" lon="6.95006">
        <ele>2064.6</ele>
        <time>2021-02-16T12:57:18Z</time>
      </trkpt>
      <trkpt lat="44.83439" lon="6.94997">
        <ele>2063.6</ele>
        <time>2021-02-16T12:57:19Z</time>
      </trkpt>
      <trkpt lat="44.83441" lon="6.94989">
        <ele>2063.6</ele>
        <time>2021-02-16T12:57:20Z</time>
      </trkpt>
      <trkpt lat="44.83442" lon="6.94983">
        <ele>2064</ele>
        <time>2021-02-16T12:57:21Z</time>
      </trkpt>
      <trkpt lat="44.83442" lon="6.94973">
        <ele>2065.8</ele>
        <time>2021-02-16T12:57:23Z</time>
      </trkpt>
      <trkpt lat="44.83443" lon="6.94965">
        <ele>2062</ele>
        <time>2021-02-16T12:57:25Z</time>
      </trkpt>
      <trkpt lat="44.83446" lon="6.94958">
        <ele>2066.4</ele>
        <time>2021-02-16T12:57:27Z</time>
      </trkpt>
      <trkpt lat="44.83447" lon="6.94951">
        <ele>2063</ele>
        <time>2021-02-16T12:57:29Z</time>
      </trkpt>
      <trkpt lat="44.83448" lon="6.94944">
        <ele>2060.8</ele>
        <time>2021-02-16T12:57:31Z</time>
      </trkpt>
      <trkpt lat="44.83451" lon="6.94937">
        <ele>2063.6</ele>
        <time>2021-02-16T12:57:33Z</time>
      </trkpt>
      <trkpt lat="44.83453" lon="6.94931">
        <ele>2063.2</ele>
        <time>2021-02-16T12:57:35Z</time>
      </trkpt>
      <trkpt lat="44.83457" lon="6.94924">
        <ele>2062.4</ele>
        <time>2021-02-16T12:57:38Z</time>
      </trkpt>
      <trkpt lat="44.83453" lon="6.94928">
        <ele>2061.8</ele>
        <time>2021-02-16T12:57:44Z</time>
      </trkpt>
      <trkpt lat="44.83456" lon="6.94924">
        <ele>2060.4</ele>
        <time>2021-02-16T12:57:57Z</time>
      </trkpt>
      <trkpt lat="44.83461" lon="6.94926">
        <ele>2055.2</ele>
        <time>2021-02-16T12:58:50Z</time>
      </trkpt>
      <trkpt lat="44.83465" lon="6.94927">
        <ele>2052.6</ele>
        <time>2021-02-16T12:58:53Z</time>
      </trkpt>
      <trkpt lat="44.8347" lon="6.94931">
        <ele>2049.2</ele>
        <time>2021-02-16T12:58:55Z</time>
      </trkpt>
      <trkpt lat="44.83474" lon="6.94936">
        <ele>2045.8</ele>
        <time>2021-02-16T12:58:59Z</time>
      </trkpt>
      <trkpt lat="44.83476" lon="6.94936">
        <ele>2041</ele>
        <time>2021-02-16T12:59:01Z</time>
      </trkpt>
      <trkpt lat="44.83477" lon="6.94936">
        <ele>2045.4</ele>
        <time>2021-02-16T12:59:02Z</time>
      </trkpt>
      <trkpt lat="44.83483" lon="6.94931">
        <ele>2043.8</ele>
        <time>2021-02-16T12:59:04Z</time>
      </trkpt>
      <trkpt lat="44.83488" lon="6.94928">
        <ele>2043.6</ele>
        <time>2021-02-16T12:59:05Z</time>
      </trkpt>
      <trkpt lat="44.83491" lon="6.94923">
        <ele>2040.4</ele>
        <time>2021-02-16T12:59:09Z</time>
      </trkpt>
      <trkpt lat="44.83496" lon="6.94924">
        <ele>2040.6</ele>
        <time>2021-02-16T12:59:11Z</time>
      </trkpt>
      <trkpt lat="44.83501" lon="6.94925">
        <ele>2039.4</ele>
        <time>2021-02-16T12:59:13Z</time>
      </trkpt>
      <trkpt lat="44.83502" lon="6.94929">
        <ele>2034.8</ele>
        <time>2021-02-16T12:59:17Z</time>
      </trkpt>
      <trkpt lat="44.83507" lon="6.94929">
        <ele>2035.4</ele>
        <time>2021-02-16T12:59:21Z</time>
      </trkpt>
      <trkpt lat="44.83512" lon="6.9493">
        <ele>2035.2</ele>
        <time>2021-02-16T12:59:26Z</time>
      </trkpt>
      <trkpt lat="44.83508" lon="6.94932">
        <ele>2034.2</ele>
        <time>2021-02-16T12:59:30Z</time>
      </trkpt>
      <trkpt lat="44.83502" lon="6.94937">
        <ele>2034</ele>
        <time>2021-02-16T12:59:33Z</time>
      </trkpt>
      <trkpt lat="44.83506" lon="6.94934">
        <ele>2031.6</ele>
        <time>2021-02-16T12:59:43Z</time>
      </trkpt>
      <trkpt lat="44.83508" lon="6.94928">
        <ele>2030.6</ele>
        <time>2021-02-16T12:59:46Z</time>
      </trkpt>
      <trkpt lat="44.83508" lon="6.94921">
        <ele>2028.6</ele>
        <time>2021-02-16T13:00:19Z</time>
      </trkpt>
      <trkpt lat="44.83508" lon="6.94913">
        <ele>2028.2</ele>
        <time>2021-02-16T13:00:21Z</time>
      </trkpt>
      <trkpt lat="44.83507" lon="6.94903">
        <ele>2026.4</ele>
        <time>2021-02-16T13:00:23Z</time>
      </trkpt>
      <trkpt lat="44.83507" lon="6.94897">
        <ele>2025.8</ele>
        <time>2021-02-16T13:00:24Z</time>
      </trkpt>
      <trkpt lat="44.83507" lon="6.9489">
        <ele>2024.2</ele>
        <time>2021-02-16T13:00:25Z</time>
      </trkpt>
      <trkpt lat="44.83506" lon="6.94883">
        <ele>2026</ele>
        <time>2021-02-16T13:00:26Z</time>
      </trkpt>
      <trkpt lat="44.83506" lon="6.94876">
        <ele>2025.8</ele>
        <time>2021-02-16T13:00:27Z</time>
      </trkpt>
      <trkpt lat="44.83507" lon="6.94869">
        <ele>2025.8</ele>
        <time>2021-02-16T13:00:28Z</time>
      </trkpt>
      <trkpt lat="44.83506" lon="6.94862">
        <ele>2025.2</ele>
        <time>2021-02-16T13:00:29Z</time>
      </trkpt>
      <trkpt lat="44.83505" lon="6.94851">
        <ele>2024.2</ele>
        <time>2021-02-16T13:00:31Z</time>
      </trkpt>
      <trkpt lat="44.83505" lon="6.94845">
        <ele>2019.6</ele>
        <time>2021-02-16T13:00:32Z</time>
      </trkpt>
      <trkpt lat="44.83506" lon="6.94839">
        <ele>2021.4</ele>
        <time>2021-02-16T13:00:33Z</time>
      </trkpt>
      <trkpt lat="44.83506" lon="6.9483">
        <ele>2019.4</ele>
        <time>2021-02-16T13:00:35Z</time>
      </trkpt>
      <trkpt lat="44.83506" lon="6.9482">
        <ele>2019.2</ele>
        <time>2021-02-16T13:00:37Z</time>
      </trkpt>
      <trkpt lat="44.83508" lon="6.94814">
        <ele>2020.4</ele>
        <time>2021-02-16T13:00:39Z</time>
      </trkpt>
      <trkpt lat="44.8351" lon="6.94806">
        <ele>2019.4</ele>
        <time>2021-02-16T13:00:41Z</time>
      </trkpt>
      <trkpt lat="44.83508" lon="6.94798">
        <ele>2017</ele>
        <time>2021-02-16T13:00:43Z</time>
      </trkpt>
      <trkpt lat="44.83508" lon="6.9479">
        <ele>2017.4</ele>
        <time>2021-02-16T13:00:45Z</time>
      </trkpt>
      <trkpt lat="44.83504" lon="6.94782">
        <ele>2018.2</ele>
        <time>2021-02-16T13:00:48Z</time>
      </trkpt>
      <trkpt lat="44.83503" lon="6.94773">
        <ele>2016.2</ele>
        <time>2021-02-16T13:00:50Z</time>
      </trkpt>
      <trkpt lat="44.83503" lon="6.94767">
        <ele>2016.6</ele>
        <time>2021-02-16T13:00:51Z</time>
      </trkpt>
      <trkpt lat="44.83503" lon="6.9476">
        <ele>2013.6</ele>
        <time>2021-02-16T13:00:52Z</time>
      </trkpt>
      <trkpt lat="44.83503" lon="6.94754">
        <ele>2012.2</ele>
        <time>2021-02-16T13:00:53Z</time>
      </trkpt>
      <trkpt lat="44.83503" lon="6.94744">
        <ele>2012.2</ele>
        <time>2021-02-16T13:00:55Z</time>
      </trkpt>
      <trkpt lat="44.83503" lon="6.94737">
        <ele>2013.2</ele>
        <time>2021-02-16T13:00:56Z</time>
      </trkpt>
      <trkpt lat="44.83503" lon="6.94731">
        <ele>2013.2</ele>
        <time>2021-02-16T13:00:57Z</time>
      </trkpt>
      <trkpt lat="44.83504" lon="6.94723">
        <ele>2010.4</ele>
        <time>2021-02-16T13:00:59Z</time>
      </trkpt>
      <trkpt lat="44.83505" lon="6.94719">
        <ele>2013.2</ele>
        <time>2021-02-16T13:01:00Z</time>
      </trkpt>
      <trkpt lat="44.83506" lon="6.94709">
        <ele>2012</ele>
        <time>2021-02-16T13:01:02Z</time>
      </trkpt>
      <trkpt lat="44.83507" lon="6.94699">
        <ele>2011.2</ele>
        <time>2021-02-16T13:01:04Z</time>
      </trkpt>
      <trkpt lat="44.83507" lon="6.94692">
        <ele>2010.4</ele>
        <time>2021-02-16T13:01:06Z</time>
      </trkpt>
      <trkpt lat="44.83506" lon="6.94683">
        <ele>2010</ele>
        <time>2021-02-16T13:01:08Z</time>
      </trkpt>
      <trkpt lat="44.83503" lon="6.94672">
        <ele>2009.4</ele>
        <time>2021-02-16T13:01:10Z</time>
      </trkpt>
      <trkpt lat="44.83501" lon="6.94661">
        <ele>2006.4</ele>
        <time>2021-02-16T13:01:12Z</time>
      </trkpt>
      <trkpt lat="44.83498" lon="6.9465">
        <ele>2003.4</ele>
        <time>2021-02-16T13:01:14Z</time>
      </trkpt>
      <trkpt lat="44.83497" lon="6.94643">
        <ele>2005</ele>
        <time>2021-02-16T13:01:15Z</time>
      </trkpt>
      <trkpt lat="44.83498" lon="6.94633">
        <ele>2004.4</ele>
        <time>2021-02-16T13:01:16Z</time>
      </trkpt>
      <trkpt lat="44.83499" lon="6.94621">
        <ele>2003.2</ele>
        <time>2021-02-16T13:01:18Z</time>
      </trkpt>
      <trkpt lat="44.835" lon="6.94611">
        <ele>2001.4</ele>
        <time>2021-02-16T13:01:20Z</time>
      </trkpt>
      <trkpt lat="44.83501" lon="6.94602">
        <ele>2001.2</ele>
        <time>2021-02-16T13:01:22Z</time>
      </trkpt>
      <trkpt lat="44.83502" lon="6.94596">
        <ele>1998.2</ele>
        <time>2021-02-16T13:01:23Z</time>
      </trkpt>
      <trkpt lat="44.83502" lon="6.9459">
        <ele>1997.6</ele>
        <time>2021-02-16T13:01:24Z</time>
      </trkpt>
      <trkpt lat="44.83502" lon="6.94578">
        <ele>2000.4</ele>
        <time>2021-02-16T13:01:26Z</time>
      </trkpt>
      <trkpt lat="44.83504" lon="6.94573">
        <ele>1997.8</ele>
        <time>2021-02-16T13:01:27Z</time>
      </trkpt>
      <trkpt lat="44.83506" lon="6.94566">
        <ele>1996.2</ele>
        <time>2021-02-16T13:01:28Z</time>
      </trkpt>
      <trkpt lat="44.83506" lon="6.9456">
        <ele>1994.8</ele>
        <time>2021-02-16T13:01:29Z</time>
      </trkpt>
      <trkpt lat="44.83507" lon="6.94553">
        <ele>1995.4</ele>
        <time>2021-02-16T13:01:30Z</time>
      </trkpt>
      <trkpt lat="44.83508" lon="6.94545">
        <ele>1994.2</ele>
        <time>2021-02-16T13:01:31Z</time>
      </trkpt>
      <trkpt lat="44.83508" lon="6.94539">
        <ele>1992.8</ele>
        <time>2021-02-16T13:01:32Z</time>
      </trkpt>
      <trkpt lat="44.83508" lon="6.94533">
        <ele>1992.4</ele>
        <time>2021-02-16T13:01:33Z</time>
      </trkpt>
      <trkpt lat="44.83509" lon="6.94527">
        <ele>1992.8</ele>
        <time>2021-02-16T13:01:34Z</time>
      </trkpt>
      <trkpt lat="44.83506" lon="6.94515">
        <ele>1990.4</ele>
        <time>2021-02-16T13:01:36Z</time>
      </trkpt>
      <trkpt lat="44.83505" lon="6.94508">
        <ele>1990</ele>
        <time>2021-02-16T13:01:37Z</time>
      </trkpt>
      <trkpt lat="44.83504" lon="6.94501">
        <ele>1989.2</ele>
        <time>2021-02-16T13:01:38Z</time>
      </trkpt>
      <trkpt lat="44.83503" lon="6.94495">
        <ele>1990</ele>
        <time>2021-02-16T13:01:39Z</time>
      </trkpt>
      <trkpt lat="44.83501" lon="6.94488">
        <ele>1989.2</ele>
        <time>2021-02-16T13:01:40Z</time>
      </trkpt>
      <trkpt lat="44.835" lon="6.94476">
        <ele>1985.2</ele>
        <time>2021-02-16T13:01:42Z</time>
      </trkpt>
      <trkpt lat="44.83499" lon="6.9447">
        <ele>1984.8</ele>
        <time>2021-02-16T13:01:43Z</time>
      </trkpt>
      <trkpt lat="44.83498" lon="6.94461">
        <ele>1986.6</ele>
        <time>2021-02-16T13:01:45Z</time>
      </trkpt>
      <trkpt lat="44.83498" lon="6.94454">
        <ele>1983.8</ele>
        <time>2021-02-16T13:01:47Z</time>
      </trkpt>
      <trkpt lat="44.83498" lon="6.94445">
        <ele>1982.6</ele>
        <time>2021-02-16T13:01:49Z</time>
      </trkpt>
      <trkpt lat="44.83498" lon="6.94438">
        <ele>1982.4</ele>
        <time>2021-02-16T13:01:50Z</time>
      </trkpt>
      <trkpt lat="44.83498" lon="6.94432">
        <ele>1981.6</ele>
        <time>2021-02-16T13:01:51Z</time>
      </trkpt>
      <trkpt lat="44.83496" lon="6.94424">
        <ele>1980.4</ele>
        <time>2021-02-16T13:01:53Z</time>
      </trkpt>
      <trkpt lat="44.83494" lon="6.9442">
        <ele>1978.4</ele>
        <time>2021-02-16T13:01:54Z</time>
      </trkpt>
      <trkpt lat="44.83492" lon="6.94414">
        <ele>1980</ele>
        <time>2021-02-16T13:01:55Z</time>
      </trkpt>
      <trkpt lat="44.83491" lon="6.94409">
        <ele>1975.8</ele>
        <time>2021-02-16T13:01:56Z</time>
      </trkpt>
      <trkpt lat="44.83487" lon="6.94401">
        <ele>1977.8</ele>
        <time>2021-02-16T13:01:58Z</time>
      </trkpt>
      <trkpt lat="44.83479" lon="6.94394">
        <ele>1976.2</ele>
        <time>2021-02-16T13:02:00Z</time>
      </trkpt>
      <trkpt lat="44.83473" lon="6.94387">
        <ele>1973.8</ele>
        <time>2021-02-16T13:02:02Z</time>
      </trkpt>
      <trkpt lat="44.83469" lon="6.94378">
        <ele>1971</ele>
        <time>2021-02-16T13:02:04Z</time>
      </trkpt>
      <trkpt lat="44.83464" lon="6.94372">
        <ele>1971.8</ele>
        <time>2021-02-16T13:02:06Z</time>
      </trkpt>
      <trkpt lat="44.83458" lon="6.94368">
        <ele>1971.6</ele>
        <time>2021-02-16T13:02:08Z</time>
      </trkpt>
      <trkpt lat="44.83451" lon="6.94366">
        <ele>1972.4</ele>
        <time>2021-02-16T13:02:12Z</time>
      </trkpt>
      <trkpt lat="44.8345" lon="6.94361">
        <ele>1970.2</ele>
        <time>2021-02-16T13:02:15Z</time>
      </trkpt>
      <trkpt lat="44.83447" lon="6.94351">
        <ele>1968.6</ele>
        <time>2021-02-16T13:02:17Z</time>
      </trkpt>
      <trkpt lat="44.83445" lon="6.94344">
        <ele>1966.2</ele>
        <time>2021-02-16T13:02:18Z</time>
      </trkpt>
      <trkpt lat="44.83442" lon="6.94338">
        <ele>1964.6</ele>
        <time>2021-02-16T13:02:19Z</time>
      </trkpt>
      <trkpt lat="44.83437" lon="6.94333">
        <ele>1962.8</ele>
        <time>2021-02-16T13:02:20Z</time>
      </trkpt>
      <trkpt lat="44.83434" lon="6.9433">
        <ele>1962.8</ele>
        <time>2021-02-16T13:02:21Z</time>
      </trkpt>
      <trkpt lat="44.83427" lon="6.94323">
        <ele>1960.4</ele>
        <time>2021-02-16T13:02:23Z</time>
      </trkpt>
      <trkpt lat="44.83419" lon="6.94321">
        <ele>1960.6</ele>
        <time>2021-02-16T13:02:25Z</time>
      </trkpt>
      <trkpt lat="44.83412" lon="6.94321">
        <ele>1956.8</ele>
        <time>2021-02-16T13:02:26Z</time>
      </trkpt>
      <trkpt lat="44.83408" lon="6.94319">
        <ele>1955</ele>
        <time>2021-02-16T13:02:27Z</time>
      </trkpt>
      <trkpt lat="44.83403" lon="6.94315">
        <ele>1955</ele>
        <time>2021-02-16T13:02:28Z</time>
      </trkpt>
      <trkpt lat="44.83399" lon="6.94311">
        <ele>1955</ele>
        <time>2021-02-16T13:02:29Z</time>
      </trkpt>
      <trkpt lat="44.83395" lon="6.94308">
        <ele>1954.4</ele>
        <time>2021-02-16T13:02:30Z</time>
      </trkpt>
      <trkpt lat="44.83389" lon="6.94298">
        <ele>1954.6</ele>
        <time>2021-02-16T13:02:32Z</time>
      </trkpt>
      <trkpt lat="44.83386" lon="6.94292">
        <ele>1953.6</ele>
        <time>2021-02-16T13:02:33Z</time>
      </trkpt>
      <trkpt lat="44.83384" lon="6.94288">
        <ele>1952.8</ele>
        <time>2021-02-16T13:02:34Z</time>
      </trkpt>
      <trkpt lat="44.8338" lon="6.94284">
        <ele>1950.6</ele>
        <time>2021-02-16T13:02:35Z</time>
      </trkpt>
      <trkpt lat="44.83377" lon="6.9428">
        <ele>1952.4</ele>
        <time>2021-02-16T13:02:36Z</time>
      </trkpt>
      <trkpt lat="44.83371" lon="6.94275">
        <ele>1950.8</ele>
        <time>2021-02-16T13:02:38Z</time>
      </trkpt>
      <trkpt lat="44.83367" lon="6.94273">
        <ele>1950.6</ele>
        <time>2021-02-16T13:02:39Z</time>
      </trkpt>
      <trkpt lat="44.8336" lon="6.94271">
        <ele>1948</ele>
        <time>2021-02-16T13:02:41Z</time>
      </trkpt>
      <trkpt lat="44.83355" lon="6.94269">
        <ele>1945.8</ele>
        <time>2021-02-16T13:02:42Z</time>
      </trkpt>
      <trkpt lat="44.83348" lon="6.94268">
        <ele>1945.6</ele>
        <time>2021-02-16T13:02:44Z</time>
      </trkpt>
      <trkpt lat="44.83341" lon="6.94267">
        <ele>1944</ele>
        <time>2021-02-16T13:02:46Z</time>
      </trkpt>
      <trkpt lat="44.83333" lon="6.94268">
        <ele>1943.2</ele>
        <time>2021-02-16T13:02:47Z</time>
      </trkpt>
      <trkpt lat="44.83328" lon="6.94268">
        <ele>1941.4</ele>
        <time>2021-02-16T13:02:48Z</time>
      </trkpt>
      <trkpt lat="44.83323" lon="6.9427">
        <ele>1944</ele>
        <time>2021-02-16T13:02:49Z</time>
      </trkpt>
      <trkpt lat="44.83318" lon="6.9427">
        <ele>1941.8</ele>
        <time>2021-02-16T13:02:50Z</time>
      </trkpt>
      <trkpt lat="44.83312" lon="6.94268">
        <ele>1935.8</ele>
        <time>2021-02-16T13:02:52Z</time>
      </trkpt>
      <trkpt lat="44.83307" lon="6.94267">
        <ele>1938.4</ele>
        <time>2021-02-16T13:02:54Z</time>
      </trkpt>
      <trkpt lat="44.833" lon="6.94269">
        <ele>1936.2</ele>
        <time>2021-02-16T13:02:56Z</time>
      </trkpt>
      <trkpt lat="44.83292" lon="6.94269">
        <ele>1933.2</ele>
        <time>2021-02-16T13:02:58Z</time>
      </trkpt>
      <trkpt lat="44.83286" lon="6.94264">
        <ele>1933.4</ele>
        <time>2021-02-16T13:03:00Z</time>
      </trkpt>
      <trkpt lat="44.83282" lon="6.94263">
        <ele>1935.8</ele>
        <time>2021-02-16T13:03:01Z</time>
      </trkpt>
      <trkpt lat="44.83275" lon="6.94263">
        <ele>1933</ele>
        <time>2021-02-16T13:03:03Z</time>
      </trkpt>
      <trkpt lat="44.8327" lon="6.94259">
        <ele>1933.6</ele>
        <time>2021-02-16T13:03:05Z</time>
      </trkpt>
      <trkpt lat="44.83265" lon="6.94257">
        <ele>1933</ele>
        <time>2021-02-16T13:03:07Z</time>
      </trkpt>
      <trkpt lat="44.8326" lon="6.94254">
        <ele>1931.8</ele>
        <time>2021-02-16T13:03:09Z</time>
      </trkpt>
      <trkpt lat="44.83254" lon="6.9425">
        <ele>1931.4</ele>
        <time>2021-02-16T13:03:11Z</time>
      </trkpt>
      <trkpt lat="44.83248" lon="6.94245">
        <ele>1931.8</ele>
        <time>2021-02-16T13:03:13Z</time>
      </trkpt>
      <trkpt lat="44.83243" lon="6.94239">
        <ele>1929.6</ele>
        <time>2021-02-16T13:03:15Z</time>
      </trkpt>
      <trkpt lat="44.83238" lon="6.94231">
        <ele>1929.4</ele>
        <time>2021-02-16T13:03:17Z</time>
      </trkpt>
      <trkpt lat="44.83235" lon="6.94225">
        <ele>1930.6</ele>
        <time>2021-02-16T13:03:19Z</time>
      </trkpt>
      <trkpt lat="44.83229" lon="6.94222">
        <ele>1927.4</ele>
        <time>2021-02-16T13:03:21Z</time>
      </trkpt>
      <trkpt lat="44.83223" lon="6.94221">
        <ele>1928</ele>
        <time>2021-02-16T13:03:23Z</time>
      </trkpt>
      <trkpt lat="44.83218" lon="6.94221">
        <ele>1926.4</ele>
        <time>2021-02-16T13:03:25Z</time>
      </trkpt>
      <trkpt lat="44.83211" lon="6.94221">
        <ele>1926</ele>
        <time>2021-02-16T13:03:28Z</time>
      </trkpt>
      <trkpt lat="44.83204" lon="6.94221">
        <ele>1925.2</ele>
        <time>2021-02-16T13:03:30Z</time>
      </trkpt>
      <trkpt lat="44.832" lon="6.94223">
        <ele>1923.8</ele>
        <time>2021-02-16T13:03:31Z</time>
      </trkpt>
      <trkpt lat="44.83192" lon="6.94224">
        <ele>1923.8</ele>
        <time>2021-02-16T13:03:33Z</time>
      </trkpt>
      <trkpt lat="44.83186" lon="6.94225">
        <ele>1923.2</ele>
        <time>2021-02-16T13:03:35Z</time>
      </trkpt>
      <trkpt lat="44.83182" lon="6.94222">
        <ele>1921.2</ele>
        <time>2021-02-16T13:03:37Z</time>
      </trkpt>
      <trkpt lat="44.83175" lon="6.94223">
        <ele>1919.2</ele>
        <time>2021-02-16T13:03:39Z</time>
      </trkpt>
      <trkpt lat="44.83168" lon="6.94224">
        <ele>1920.2</ele>
        <time>2021-02-16T13:03:41Z</time>
      </trkpt>
      <trkpt lat="44.8316" lon="6.94224">
        <ele>1919.2</ele>
        <time>2021-02-16T13:03:43Z</time>
      </trkpt>
      <trkpt lat="44.83155" lon="6.94225">
        <ele>1918</ele>
        <time>2021-02-16T13:03:44Z</time>
      </trkpt>
      <trkpt lat="44.83151" lon="6.94226">
        <ele>1915.2</ele>
        <time>2021-02-16T13:03:45Z</time>
      </trkpt>
      <trkpt lat="44.83145" lon="6.94225">
        <ele>1914.4</ele>
        <time>2021-02-16T13:03:47Z</time>
      </trkpt>
      <trkpt lat="44.83138" lon="6.94222">
        <ele>1913.6</ele>
        <time>2021-02-16T13:03:49Z</time>
      </trkpt>
      <trkpt lat="44.83129" lon="6.94216">
        <ele>1912.6</ele>
        <time>2021-02-16T13:03:51Z</time>
      </trkpt>
      <trkpt lat="44.83125" lon="6.94215">
        <ele>1910.4</ele>
        <time>2021-02-16T13:03:52Z</time>
      </trkpt>
      <trkpt lat="44.83116" lon="6.94215">
        <ele>1911.4</ele>
        <time>2021-02-16T13:03:54Z</time>
      </trkpt>
      <trkpt lat="44.83114" lon="6.94214">
        <ele>1907.2</ele>
        <time>2021-02-16T13:03:55Z</time>
      </trkpt>
      <trkpt lat="44.83108" lon="6.94212">
        <ele>1907.8</ele>
        <time>2021-02-16T13:03:57Z</time>
      </trkpt>
      <trkpt lat="44.83104" lon="6.94211">
        <ele>1905.2</ele>
        <time>2021-02-16T13:03:58Z</time>
      </trkpt>
      <trkpt lat="44.83099" lon="6.94211">
        <ele>1905.2</ele>
        <time>2021-02-16T13:03:59Z</time>
      </trkpt>
      <trkpt lat="44.83093" lon="6.94211">
        <ele>1903.2</ele>
        <time>2021-02-16T13:04:00Z</time>
      </trkpt>
      <trkpt lat="44.83088" lon="6.94209">
        <ele>1903.2</ele>
        <time>2021-02-16T13:04:01Z</time>
      </trkpt>
      <trkpt lat="44.83082" lon="6.94209">
        <ele>1900.6</ele>
        <time>2021-02-16T13:04:02Z</time>
      </trkpt>
      <trkpt lat="44.83077" lon="6.94209">
        <ele>1902.6</ele>
        <time>2021-02-16T13:04:03Z</time>
      </trkpt>
      <trkpt lat="44.83069" lon="6.94207">
        <ele>1900.8</ele>
        <time>2021-02-16T13:04:05Z</time>
      </trkpt>
      <trkpt lat="44.83061" lon="6.94203">
        <ele>1899.2</ele>
        <time>2021-02-16T13:04:07Z</time>
      </trkpt>
      <trkpt lat="44.83055" lon="6.94199">
        <ele>1897.4</ele>
        <time>2021-02-16T13:04:09Z</time>
      </trkpt>
      <trkpt lat="44.83049" lon="6.94194">
        <ele>1896.8</ele>
        <time>2021-02-16T13:04:11Z</time>
      </trkpt>
      <trkpt lat="44.83042" lon="6.94189">
        <ele>1894.8</ele>
        <time>2021-02-16T13:04:13Z</time>
      </trkpt>
      <trkpt lat="44.83035" lon="6.94182">
        <ele>1891.4</ele>
        <time>2021-02-16T13:04:15Z</time>
      </trkpt>
      <trkpt lat="44.83029" lon="6.94176">
        <ele>1890.2</ele>
        <time>2021-02-16T13:04:17Z</time>
      </trkpt>
      <trkpt lat="44.83025" lon="6.94175">
        <ele>1888.2</ele>
        <time>2021-02-16T13:04:18Z</time>
      </trkpt>
      <trkpt lat="44.83018" lon="6.94171">
        <ele>1887.6</ele>
        <time>2021-02-16T13:04:20Z</time>
      </trkpt>
      <trkpt lat="44.83011" lon="6.94167">
        <ele>1886</ele>
        <time>2021-02-16T13:04:22Z</time>
      </trkpt>
      <trkpt lat="44.83005" lon="6.94164">
        <ele>1884.8</ele>
        <time>2021-02-16T13:04:24Z</time>
      </trkpt>
      <trkpt lat="44.83001" lon="6.94162">
        <ele>1888.2</ele>
        <time>2021-02-16T13:04:25Z</time>
      </trkpt>
      <trkpt lat="44.82988" lon="6.94161">
        <ele>1886.2</ele>
        <time>2021-02-16T13:04:27Z</time>
      </trkpt>
      <trkpt lat="44.82978" lon="6.94162">
        <ele>1885.2</ele>
        <time>2021-02-16T13:04:28Z</time>
      </trkpt>
      <trkpt lat="44.82968" lon="6.94163">
        <ele>1883.2</ele>
        <time>2021-02-16T13:04:29Z</time>
      </trkpt>
      <trkpt lat="44.8296" lon="6.94163">
        <ele>1884.6</ele>
        <time>2021-02-16T13:04:30Z</time>
      </trkpt>
      <trkpt lat="44.82953" lon="6.94162">
        <ele>1884.6</ele>
        <time>2021-02-16T13:04:31Z</time>
      </trkpt>
      <trkpt lat="44.82947" lon="6.94161">
        <ele>1886</ele>
        <time>2021-02-16T13:04:32Z</time>
      </trkpt>
      <trkpt lat="44.82943" lon="6.94158">
        <ele>1881</ele>
        <time>2021-02-16T13:04:33Z</time>
      </trkpt>
      <trkpt lat="44.82938" lon="6.94154">
        <ele>1884.2</ele>
        <time>2021-02-16T13:04:34Z</time>
      </trkpt>
      <trkpt lat="44.8293" lon="6.9415">
        <ele>1881.8</ele>
        <time>2021-02-16T13:04:36Z</time>
      </trkpt>
      <trkpt lat="44.82918" lon="6.94146">
        <ele>1880.4</ele>
        <time>2021-02-16T13:04:38Z</time>
      </trkpt>
      <trkpt lat="44.82913" lon="6.94144">
        <ele>1880.2</ele>
        <time>2021-02-16T13:04:39Z</time>
      </trkpt>
      <trkpt lat="44.82907" lon="6.94142">
        <ele>1879.4</ele>
        <time>2021-02-16T13:04:40Z</time>
      </trkpt>
      <trkpt lat="44.82901" lon="6.9414">
        <ele>1879.4</ele>
        <time>2021-02-16T13:04:41Z</time>
      </trkpt>
      <trkpt lat="44.82895" lon="6.94137">
        <ele>1879.4</ele>
        <time>2021-02-16T13:04:42Z</time>
      </trkpt>
      <trkpt lat="44.82882" lon="6.94136">
        <ele>1877.2</ele>
        <time>2021-02-16T13:04:44Z</time>
      </trkpt>
      <trkpt lat="44.82877" lon="6.94137">
        <ele>1878</ele>
        <time>2021-02-16T13:04:45Z</time>
      </trkpt>
      <trkpt lat="44.82871" lon="6.94137">
        <ele>1877.8</ele>
        <time>2021-02-16T13:04:46Z</time>
      </trkpt>
      <trkpt lat="44.82866" lon="6.94139">
        <ele>1877</ele>
        <time>2021-02-16T13:04:47Z</time>
      </trkpt>
      <trkpt lat="44.82859" lon="6.9414">
        <ele>1877.4</ele>
        <time>2021-02-16T13:04:48Z</time>
      </trkpt>
      <trkpt lat="44.82847" lon="6.94145">
        <ele>1874.6</ele>
        <time>2021-02-16T13:04:50Z</time>
      </trkpt>
      <trkpt lat="44.82841" lon="6.94147">
        <ele>1876</ele>
        <time>2021-02-16T13:04:51Z</time>
      </trkpt>
      <trkpt lat="44.82835" lon="6.94149">
        <ele>1873.8</ele>
        <time>2021-02-16T13:04:52Z</time>
      </trkpt>
      <trkpt lat="44.82829" lon="6.94152">
        <ele>1873</ele>
        <time>2021-02-16T13:04:53Z</time>
      </trkpt>
      <trkpt lat="44.82824" lon="6.94155">
        <ele>1875.2</ele>
        <time>2021-02-16T13:04:54Z</time>
      </trkpt>
      <trkpt lat="44.82819" lon="6.94158">
        <ele>1874.4</ele>
        <time>2021-02-16T13:04:55Z</time>
      </trkpt>
      <trkpt lat="44.82811" lon="6.94159">
        <ele>1871.6</ele>
        <time>2021-02-16T13:04:57Z</time>
      </trkpt>
      <trkpt lat="44.82801" lon="6.94156">
        <ele>1870.2</ele>
        <time>2021-02-16T13:04:59Z</time>
      </trkpt>
      <trkpt lat="44.82796" lon="6.94154">
        <ele>1869</ele>
        <time>2021-02-16T13:05:00Z</time>
      </trkpt>
      <trkpt lat="44.82791" lon="6.94153">
        <ele>1870.8</ele>
        <time>2021-02-16T13:05:01Z</time>
      </trkpt>
      <trkpt lat="44.82788" lon="6.94153">
        <ele>1866.6</ele>
        <time>2021-02-16T13:05:02Z</time>
      </trkpt>
      <trkpt lat="44.82783" lon="6.94156">
        <ele>1865.8</ele>
        <time>2021-02-16T13:05:04Z</time>
      </trkpt>
      <trkpt lat="44.82779" lon="6.94156">
        <ele>1866</ele>
        <time>2021-02-16T13:05:05Z</time>
      </trkpt>
      <trkpt lat="44.82776" lon="6.94156">
        <ele>1863.2</ele>
        <time>2021-02-16T13:05:06Z</time>
      </trkpt>
      <trkpt lat="44.82771" lon="6.94157">
        <ele>1858.8</ele>
        <time>2021-02-16T13:05:08Z</time>
      </trkpt>
      <trkpt lat="44.82766" lon="6.94154">
        <ele>1856.4</ele>
        <time>2021-02-16T13:05:15Z</time>
      </trkpt>
      <trkpt lat="44.82767" lon="6.94152">
        <ele>1851.6</ele>
        <time>2021-02-16T13:05:21Z</time>
      </trkpt>
      <trkpt lat="44.82767" lon="6.94153">
        <ele>1846</ele>
        <time>2021-02-16T13:05:31Z</time>
      </trkpt>
      <trkpt lat="44.82768" lon="6.94153">
        <ele>1840.8</ele>
        <time>2021-02-16T13:05:51Z</time>
      </trkpt>
      <trkpt lat="44.82766" lon="6.94151">
        <ele>1836.4</ele>
        <time>2021-02-16T13:06:43Z</time>
      </trkpt>
      <trkpt lat="44.82761" lon="6.94152">
        <ele>1836.6</ele>
        <time>2021-02-16T13:06:46Z</time>
      </trkpt>
      <trkpt lat="44.82755" lon="6.94153">
        <ele>1834.6</ele>
        <time>2021-02-16T13:06:49Z</time>
      </trkpt>
      <trkpt lat="44.8275" lon="6.94157">
        <ele>1832.6</ele>
        <time>2021-02-16T13:06:54Z</time>
      </trkpt>
      <trkpt lat="44.82745" lon="6.94159">
        <ele>1834.8</ele>
        <time>2021-02-16T13:06:58Z</time>
      </trkpt>
      <trkpt lat="44.8274" lon="6.9416">
        <ele>1833</ele>
        <time>2021-02-16T13:07:00Z</time>
      </trkpt>
      <trkpt lat="44.82732" lon="6.94164">
        <ele>1831.4</ele>
        <time>2021-02-16T13:07:02Z</time>
      </trkpt>
      <trkpt lat="44.82728" lon="6.94165">
        <ele>1828.6</ele>
        <time>2021-02-16T13:07:03Z</time>
      </trkpt>
      <trkpt lat="44.82719" lon="6.94169">
        <ele>1827.4</ele>
        <time>2021-02-16T13:07:05Z</time>
      </trkpt>
      <trkpt lat="44.8271" lon="6.94172">
        <ele>1826.6</ele>
        <time>2021-02-16T13:07:07Z</time>
      </trkpt>
      <trkpt lat="44.82706" lon="6.94175">
        <ele>1826.4</ele>
        <time>2021-02-16T13:07:08Z</time>
      </trkpt>
      <trkpt lat="44.827" lon="6.94177">
        <ele>1825.2</ele>
        <time>2021-02-16T13:07:09Z</time>
      </trkpt>
      <trkpt lat="44.82695" lon="6.9418">
        <ele>1826.8</ele>
        <time>2021-02-16T13:07:10Z</time>
      </trkpt>
      <trkpt lat="44.82689" lon="6.94182">
        <ele>1826.6</ele>
        <time>2021-02-16T13:07:11Z</time>
      </trkpt>
      <trkpt lat="44.82685" lon="6.94185">
        <ele>1824.8</ele>
        <time>2021-02-16T13:07:12Z</time>
      </trkpt>
      <trkpt lat="44.8268" lon="6.94187">
        <ele>1824.2</ele>
        <time>2021-02-16T13:07:13Z</time>
      </trkpt>
      <trkpt lat="44.82672" lon="6.9419">
        <ele>1825</ele>
        <time>2021-02-16T13:07:15Z</time>
      </trkpt>
      <trkpt lat="44.82667" lon="6.94191">
        <ele>1823.4</ele>
        <time>2021-02-16T13:07:16Z</time>
      </trkpt>
      <trkpt lat="44.82665" lon="6.94186">
        <ele>1820</ele>
        <time>2021-02-16T13:07:17Z</time>
      </trkpt>
      <trkpt lat="44.82658" lon="6.94183">
        <ele>1821.2</ele>
        <time>2021-02-16T13:07:19Z</time>
      </trkpt>
      <trkpt lat="44.82651" lon="6.94181">
        <ele>1817.4</ele>
        <time>2021-02-16T13:07:21Z</time>
      </trkpt>
      <trkpt lat="44.82645" lon="6.94179">
        <ele>1818.4</ele>
        <time>2021-02-16T13:07:23Z</time>
      </trkpt>
      <trkpt lat="44.8264" lon="6.94178">
        <ele>1818</ele>
        <time>2021-02-16T13:07:25Z</time>
      </trkpt>
      <trkpt lat="44.82636" lon="6.94176">
        <ele>1818.4</ele>
        <time>2021-02-16T13:07:28Z</time>
      </trkpt>
      <trkpt lat="44.82631" lon="6.94174">
        <ele>1820</ele>
        <time>2021-02-16T13:07:31Z</time>
      </trkpt>
      <trkpt lat="44.82626" lon="6.9417">
        <ele>1820.4</ele>
        <time>2021-02-16T13:07:34Z</time>
      </trkpt>
      <trkpt lat="44.82621" lon="6.94166">
        <ele>1819.8</ele>
        <time>2021-02-16T13:07:36Z</time>
      </trkpt>
      <trkpt lat="44.82617" lon="6.94161">
        <ele>1818.4</ele>
        <time>2021-02-16T13:07:38Z</time>
      </trkpt>
      <trkpt lat="44.82613" lon="6.94157">
        <ele>1815.4</ele>
        <time>2021-02-16T13:07:40Z</time>
      </trkpt>
      <trkpt lat="44.82607" lon="6.94154">
        <ele>1816</ele>
        <time>2021-02-16T13:07:42Z</time>
      </trkpt>
      <trkpt lat="44.82598" lon="6.94152">
        <ele>1815</ele>
        <time>2021-02-16T13:07:44Z</time>
      </trkpt>
      <trkpt lat="44.82592" lon="6.9415">
        <ele>1812.6</ele>
        <time>2021-02-16T13:07:46Z</time>
      </trkpt>
      <trkpt lat="44.82588" lon="6.9415">
        <ele>1814.2</ele>
        <time>2021-02-16T13:07:47Z</time>
      </trkpt>
      <trkpt lat="44.82583" lon="6.9415">
        <ele>1811.6</ele>
        <time>2021-02-16T13:07:48Z</time>
      </trkpt>
      <trkpt lat="44.82579" lon="6.94152">
        <ele>1812.6</ele>
        <time>2021-02-16T13:07:49Z</time>
      </trkpt>
      <trkpt lat="44.82572" lon="6.94155">
        <ele>1811.6</ele>
        <time>2021-02-16T13:07:50Z</time>
      </trkpt>
      <trkpt lat="44.82567" lon="6.94157">
        <ele>1809.4</ele>
        <time>2021-02-16T13:07:51Z</time>
      </trkpt>
      <trkpt lat="44.82562" lon="6.9416">
        <ele>1809.8</ele>
        <time>2021-02-16T13:07:52Z</time>
      </trkpt>
      <trkpt lat="44.82557" lon="6.94162">
        <ele>1809.8</ele>
        <time>2021-02-16T13:07:53Z</time>
      </trkpt>
      <trkpt lat="44.8255" lon="6.94168">
        <ele>1811.6</ele>
        <time>2021-02-16T13:07:55Z</time>
      </trkpt>
      <trkpt lat="44.82546" lon="6.94171">
        <ele>1808.4</ele>
        <time>2021-02-16T13:07:56Z</time>
      </trkpt>
      <trkpt lat="44.82542" lon="6.94175">
        <ele>1808.4</ele>
        <time>2021-02-16T13:07:57Z</time>
      </trkpt>
      <trkpt lat="44.82538" lon="6.94178">
        <ele>1807.2</ele>
        <time>2021-02-16T13:07:58Z</time>
      </trkpt>
      <trkpt lat="44.82535" lon="6.94182">
        <ele>1805.6</ele>
        <time>2021-02-16T13:07:59Z</time>
      </trkpt>
      <trkpt lat="44.82529" lon="6.94187">
        <ele>1805.4</ele>
        <time>2021-02-16T13:08:01Z</time>
      </trkpt>
      <trkpt lat="44.82525" lon="6.94185">
        <ele>1805.2</ele>
        <time>2021-02-16T13:08:03Z</time>
      </trkpt>
      <trkpt lat="44.82518" lon="6.94179">
        <ele>1804</ele>
        <time>2021-02-16T13:08:05Z</time>
      </trkpt>
      <trkpt lat="44.8251" lon="6.94175">
        <ele>1803.6</ele>
        <time>2021-02-16T13:08:06Z</time>
      </trkpt>
      <trkpt lat="44.82506" lon="6.94172">
        <ele>1803</ele>
        <time>2021-02-16T13:08:07Z</time>
      </trkpt>
      <trkpt lat="44.82502" lon="6.9417">
        <ele>1801.6</ele>
        <time>2021-02-16T13:08:08Z</time>
      </trkpt>
      <trkpt lat="44.82495" lon="6.94164">
        <ele>1801.4</ele>
        <time>2021-02-16T13:08:10Z</time>
      </trkpt>
      <trkpt lat="44.82488" lon="6.94163">
        <ele>1802</ele>
        <time>2021-02-16T13:08:11Z</time>
      </trkpt>
      <trkpt lat="44.82481" lon="6.94162">
        <ele>1802.2</ele>
        <time>2021-02-16T13:08:12Z</time>
      </trkpt>
      <trkpt lat="44.82474" lon="6.94161">
        <ele>1801.6</ele>
        <time>2021-02-16T13:08:13Z</time>
      </trkpt>
      <trkpt lat="44.82468" lon="6.9416">
        <ele>1799</ele>
        <time>2021-02-16T13:08:14Z</time>
      </trkpt>
      <trkpt lat="44.82462" lon="6.9416">
        <ele>1796.8</ele>
        <time>2021-02-16T13:08:15Z</time>
      </trkpt>
      <trkpt lat="44.82451" lon="6.9416">
        <ele>1799.4</ele>
        <time>2021-02-16T13:08:17Z</time>
      </trkpt>
      <trkpt lat="44.82443" lon="6.94159">
        <ele>1798</ele>
        <time>2021-02-16T13:08:19Z</time>
      </trkpt>
      <trkpt lat="44.82435" lon="6.94162">
        <ele>1799.8</ele>
        <time>2021-02-16T13:08:21Z</time>
      </trkpt>
      <trkpt lat="44.8243" lon="6.94164">
        <ele>1798.8</ele>
        <time>2021-02-16T13:08:23Z</time>
      </trkpt>
      <trkpt lat="44.82426" lon="6.94168">
        <ele>1798.8</ele>
        <time>2021-02-16T13:08:26Z</time>
      </trkpt>
      <trkpt lat="44.82423" lon="6.94172">
        <ele>1799.4</ele>
        <time>2021-02-16T13:08:28Z</time>
      </trkpt>
      <trkpt lat="44.82419" lon="6.94178">
        <ele>1799.4</ele>
        <time>2021-02-16T13:08:31Z</time>
      </trkpt>
      <trkpt lat="44.82415" lon="6.94183">
        <ele>1799</ele>
        <time>2021-02-16T13:08:34Z</time>
      </trkpt>
      <trkpt lat="44.82411" lon="6.94187">
        <ele>1797.6</ele>
        <time>2021-02-16T13:08:37Z</time>
      </trkpt>
      <trkpt lat="44.82408" lon="6.9419">
        <ele>1800.6</ele>
        <time>2021-02-16T13:08:39Z</time>
      </trkpt>
      <trkpt lat="44.82402" lon="6.94193">
        <ele>1796.6</ele>
        <time>2021-02-16T13:08:42Z</time>
      </trkpt>
      <trkpt lat="44.82397" lon="6.94193">
        <ele>1797.2</ele>
        <time>2021-02-16T13:08:45Z</time>
      </trkpt>
      <trkpt lat="44.82393" lon="6.94193">
        <ele>1795.6</ele>
        <time>2021-02-16T13:08:47Z</time>
      </trkpt>
      <trkpt lat="44.82388" lon="6.94193">
        <ele>1795.6</ele>
        <time>2021-02-16T13:08:49Z</time>
      </trkpt>
      <trkpt lat="44.82384" lon="6.94192">
        <ele>1795.6</ele>
        <time>2021-02-16T13:08:51Z</time>
      </trkpt>
      <trkpt lat="44.8238" lon="6.94191">
        <ele>1794.2</ele>
        <time>2021-02-16T13:08:53Z</time>
      </trkpt>
      <trkpt lat="44.82374" lon="6.94192">
        <ele>1792.8</ele>
        <time>2021-02-16T13:08:55Z</time>
      </trkpt>
      <trkpt lat="44.82367" lon="6.94194">
        <ele>1792</ele>
        <time>2021-02-16T13:08:57Z</time>
      </trkpt>
      <trkpt lat="44.82363" lon="6.94197">
        <ele>1791.6</ele>
        <time>2021-02-16T13:08:58Z</time>
      </trkpt>
      <trkpt lat="44.82359" lon="6.94199">
        <ele>1791.2</ele>
        <time>2021-02-16T13:08:59Z</time>
      </trkpt>
      <trkpt lat="44.82351" lon="6.94203">
        <ele>1789.4</ele>
        <time>2021-02-16T13:09:01Z</time>
      </trkpt>
      <trkpt lat="44.82347" lon="6.94205">
        <ele>1788.6</ele>
        <time>2021-02-16T13:09:02Z</time>
      </trkpt>
      <trkpt lat="44.82339" lon="6.94211">
        <ele>1790</ele>
        <time>2021-02-16T13:09:04Z</time>
      </trkpt>
      <trkpt lat="44.82332" lon="6.94217">
        <ele>1785.2</ele>
        <time>2021-02-16T13:09:06Z</time>
      </trkpt>
      <trkpt lat="44.82329" lon="6.94221">
        <ele>1784.6</ele>
        <time>2021-02-16T13:09:07Z</time>
      </trkpt>
      <trkpt lat="44.82323" lon="6.94229">
        <ele>1784.6</ele>
        <time>2021-02-16T13:09:09Z</time>
      </trkpt>
      <trkpt lat="44.82317" lon="6.94237">
        <ele>1784.8</ele>
        <time>2021-02-16T13:09:11Z</time>
      </trkpt>
      <trkpt lat="44.82312" lon="6.94243">
        <ele>1784.4</ele>
        <time>2021-02-16T13:09:13Z</time>
      </trkpt>
      <trkpt lat="44.82308" lon="6.94247">
        <ele>1784</ele>
        <time>2021-02-16T13:09:15Z</time>
      </trkpt>
      <trkpt lat="44.82302" lon="6.9425">
        <ele>1782.2</ele>
        <time>2021-02-16T13:09:17Z</time>
      </trkpt>
      <trkpt lat="44.82298" lon="6.94253">
        <ele>1780.8</ele>
        <time>2021-02-16T13:09:19Z</time>
      </trkpt>
      <trkpt lat="44.82292" lon="6.94255">
        <ele>1782.2</ele>
        <time>2021-02-16T13:09:21Z</time>
      </trkpt>
      <trkpt lat="44.82287" lon="6.94258">
        <ele>1782</ele>
        <time>2021-02-16T13:09:23Z</time>
      </trkpt>
      <trkpt lat="44.82282" lon="6.94259">
        <ele>1781.6</ele>
        <time>2021-02-16T13:09:25Z</time>
      </trkpt>
      <trkpt lat="44.82278" lon="6.9426">
        <ele>1781</ele>
        <time>2021-02-16T13:09:27Z</time>
      </trkpt>
      <trkpt lat="44.82273" lon="6.94263">
        <ele>1781.6</ele>
        <time>2021-02-16T13:09:29Z</time>
      </trkpt>
      <trkpt lat="44.82269" lon="6.94266">
        <ele>1779.4</ele>
        <time>2021-02-16T13:09:31Z</time>
      </trkpt>
      <trkpt lat="44.82266" lon="6.94268">
        <ele>1782.8</ele>
        <time>2021-02-16T13:09:34Z</time>
      </trkpt>
      <trkpt lat="44.82262" lon="6.94271">
        <ele>1780.6</ele>
        <time>2021-02-16T13:09:37Z</time>
      </trkpt>
      <trkpt lat="44.82256" lon="6.94276">
        <ele>1781.4</ele>
        <time>2021-02-16T13:09:41Z</time>
      </trkpt>
      <trkpt lat="44.82251" lon="6.9428">
        <ele>1778.2</ele>
        <time>2021-02-16T13:09:43Z</time>
      </trkpt>
      <trkpt lat="44.82246" lon="6.94284">
        <ele>1780.4</ele>
        <time>2021-02-16T13:09:45Z</time>
      </trkpt>
      <trkpt lat="44.82242" lon="6.94287">
        <ele>1778.4</ele>
        <time>2021-02-16T13:09:47Z</time>
      </trkpt>
      <trkpt lat="44.82238" lon="6.94291">
        <ele>1778.4</ele>
        <time>2021-02-16T13:09:49Z</time>
      </trkpt>
      <trkpt lat="44.82235" lon="6.94295">
        <ele>1778.4</ele>
        <time>2021-02-16T13:09:51Z</time>
      </trkpt>
      <trkpt lat="44.82231" lon="6.943">
        <ele>1779</ele>
        <time>2021-02-16T13:09:53Z</time>
      </trkpt>
      <trkpt lat="44.82228" lon="6.94304">
        <ele>1777.2</ele>
        <time>2021-02-16T13:09:55Z</time>
      </trkpt>
      <trkpt lat="44.82223" lon="6.94307">
        <ele>1776.6</ele>
        <time>2021-02-16T13:09:57Z</time>
      </trkpt>
      <trkpt lat="44.82219" lon="6.9431">
        <ele>1774.4</ele>
        <time>2021-02-16T13:09:59Z</time>
      </trkpt>
      <trkpt lat="44.82214" lon="6.94311">
        <ele>1776.4</ele>
        <time>2021-02-16T13:10:01Z</time>
      </trkpt>
      <trkpt lat="44.8221" lon="6.94312">
        <ele>1773</ele>
        <time>2021-02-16T13:10:03Z</time>
      </trkpt>
      <trkpt lat="44.82205" lon="6.9431">
        <ele>1773.8</ele>
        <time>2021-02-16T13:10:19Z</time>
      </trkpt>
      <trkpt lat="44.82206" lon="6.94304">
        <ele>1772.2</ele>
        <time>2021-02-16T13:11:07Z</time>
      </trkpt>
      <trkpt lat="44.82208" lon="6.94302">
        <ele>1768.8</ele>
        <time>2021-02-16T13:12:05Z</time>
      </trkpt>
      <trkpt lat="44.82205" lon="6.943">
        <ele>1770.6</ele>
        <time>2021-02-16T13:17:23Z</time>
      </trkpt>
      <trkpt lat="44.82201" lon="6.94301">
        <ele>1770.6</ele>
        <time>2021-02-16T13:17:37Z</time>
      </trkpt>
      <trkpt lat="44.82197" lon="6.94306">
        <ele>1767.4</ele>
        <time>2021-02-16T13:18:19Z</time>
      </trkpt>
      <trkpt lat="44.82195" lon="6.94309">
        <ele>1771.4</ele>
        <time>2021-02-16T13:18:24Z</time>
      </trkpt>
      <trkpt lat="44.82191" lon="6.94312">
        <ele>1770.4</ele>
        <time>2021-02-16T13:18:30Z</time>
      </trkpt>
      <trkpt lat="44.82187" lon="6.94315">
        <ele>1771.6</ele>
        <time>2021-02-16T13:18:35Z</time>
      </trkpt>
      <trkpt lat="44.82184" lon="6.9432">
        <ele>1769</ele>
        <time>2021-02-16T13:18:40Z</time>
      </trkpt>
      <trkpt lat="44.8218" lon="6.94323">
        <ele>1769</ele>
        <time>2021-02-16T13:18:46Z</time>
      </trkpt>
      <trkpt lat="44.82175" lon="6.94322">
        <ele>1769.4</ele>
        <time>2021-02-16T13:18:49Z</time>
      </trkpt>
      <trkpt lat="44.8217" lon="6.94321">
        <ele>1770</ele>
        <time>2021-02-16T13:18:55Z</time>
      </trkpt>
      <trkpt lat="44.82166" lon="6.94322">
        <ele>1766.6</ele>
        <time>2021-02-16T13:18:58Z</time>
      </trkpt>
      <trkpt lat="44.82162" lon="6.94324">
        <ele>1768.8</ele>
        <time>2021-02-16T13:19:02Z</time>
      </trkpt>
      <trkpt lat="44.82158" lon="6.9433">
        <ele>1769</ele>
        <time>2021-02-16T13:19:07Z</time>
      </trkpt>
      <trkpt lat="44.82154" lon="6.94335">
        <ele>1765</ele>
        <time>2021-02-16T13:19:10Z</time>
      </trkpt>
      <trkpt lat="44.82151" lon="6.94339">
        <ele>1766.6</ele>
        <time>2021-02-16T13:19:15Z</time>
      </trkpt>
      <trkpt lat="44.82147" lon="6.94342">
        <ele>1767.2</ele>
        <time>2021-02-16T13:19:21Z</time>
      </trkpt>
      <trkpt lat="44.82144" lon="6.94344">
        <ele>1764.2</ele>
        <time>2021-02-16T13:19:25Z</time>
      </trkpt>
      <trkpt lat="44.8214" lon="6.94348">
        <ele>1762</ele>
        <time>2021-02-16T13:19:31Z</time>
      </trkpt>
      <trkpt lat="44.82138" lon="6.94352">
        <ele>1764.8</ele>
        <time>2021-02-16T13:19:34Z</time>
      </trkpt>
      <trkpt lat="44.82134" lon="6.94355">
        <ele>1763.8</ele>
        <time>2021-02-16T13:19:40Z</time>
      </trkpt>
      <trkpt lat="44.82129" lon="6.94359">
        <ele>1762.8</ele>
        <time>2021-02-16T13:19:45Z</time>
      </trkpt>
      <trkpt lat="44.82126" lon="6.94366">
        <ele>1762.8</ele>
        <time>2021-02-16T13:19:52Z</time>
      </trkpt>
      <trkpt lat="44.82124" lon="6.94371">
        <ele>1764.2</ele>
        <time>2021-02-16T13:19:57Z</time>
      </trkpt>
      <trkpt lat="44.82124" lon="6.94378">
        <ele>1765.2</ele>
        <time>2021-02-16T13:20:02Z</time>
      </trkpt>
      <trkpt lat="44.82121" lon="6.94384">
        <ele>1764</ele>
        <time>2021-02-16T13:20:08Z</time>
      </trkpt>
      <trkpt lat="44.82117" lon="6.94389">
        <ele>1762.8</ele>
        <time>2021-02-16T13:20:13Z</time>
      </trkpt>
      <trkpt lat="44.82116" lon="6.94391">
        <ele>1767.8</ele>
        <time>2021-02-16T13:20:14Z</time>
      </trkpt>
      <trkpt lat="44.82112" lon="6.94394">
        <ele>1768.2</ele>
        <time>2021-02-16T13:20:17Z</time>
      </trkpt>
      <trkpt lat="44.82109" lon="6.94398">
        <ele>1769.2</ele>
        <time>2021-02-16T13:20:20Z</time>
      </trkpt>
      <trkpt lat="44.82104" lon="6.94401">
        <ele>1770.6</ele>
        <time>2021-02-16T13:20:23Z</time>
      </trkpt>
      <trkpt lat="44.82099" lon="6.94404">
        <ele>1767.8</ele>
        <time>2021-02-16T13:20:28Z</time>
      </trkpt>
      <trkpt lat="44.82095" lon="6.94407">
        <ele>1766.6</ele>
        <time>2021-02-16T13:20:32Z</time>
      </trkpt>
      <trkpt lat="44.82091" lon="6.94411">
        <ele>1766.8</ele>
        <time>2021-02-16T13:20:37Z</time>
      </trkpt>
      <trkpt lat="44.82087" lon="6.94406">
        <ele>1766</ele>
        <time>2021-02-16T13:20:56Z</time>
      </trkpt>
      <trkpt lat="44.82085" lon="6.94401">
        <ele>1768</ele>
        <time>2021-02-16T13:21:11Z</time>
      </trkpt>
      <trkpt lat="44.82086" lon="6.94402">
        <ele>1773.4</ele>
        <time>2021-02-16T13:21:29Z</time>
      </trkpt>
      <trkpt lat="44.82082" lon="6.94404">
        <ele>1772.4</ele>
        <time>2021-02-16T13:21:37Z</time>
      </trkpt>
      <trkpt lat="44.82078" lon="6.94408">
        <ele>1774.4</ele>
        <time>2021-02-16T13:21:42Z</time>
      </trkpt>
      <trkpt lat="44.82074" lon="6.94409">
        <ele>1771</ele>
        <time>2021-02-16T13:21:45Z</time>
      </trkpt>
      <trkpt lat="44.8207" lon="6.94412">
        <ele>1774.4</ele>
        <time>2021-02-16T13:21:50Z</time>
      </trkpt>
      <trkpt lat="44.82067" lon="6.94412">
        <ele>1771</ele>
        <time>2021-02-16T13:21:54Z</time>
      </trkpt>
      <trkpt lat="44.82062" lon="6.94414">
        <ele>1769</ele>
        <time>2021-02-16T13:21:59Z</time>
      </trkpt>
      <trkpt lat="44.82057" lon="6.94414">
        <ele>1768.2</ele>
        <time>2021-02-16T13:22:02Z</time>
      </trkpt>
      <trkpt lat="44.82052" lon="6.9441">
        <ele>1770.2</ele>
        <time>2021-02-16T13:22:06Z</time>
      </trkpt>
      <trkpt lat="44.82048" lon="6.94408">
        <ele>1768.6</ele>
        <time>2021-02-16T13:22:11Z</time>
      </trkpt>
      <trkpt lat="44.82044" lon="6.94403">
        <ele>1766.8</ele>
        <time>2021-02-16T13:22:16Z</time>
      </trkpt>
      <trkpt lat="44.82041" lon="6.94399">
        <ele>1769.2</ele>
        <time>2021-02-16T13:22:22Z</time>
      </trkpt>
      <trkpt lat="44.82035" lon="6.94395">
        <ele>1770</ele>
        <time>2021-02-16T13:22:28Z</time>
      </trkpt>
      <trkpt lat="44.82034" lon="6.94391">
        <ele>1766.6</ele>
        <time>2021-02-16T13:22:31Z</time>
      </trkpt>
      <trkpt lat="44.8203" lon="6.94387">
        <ele>1768.8</ele>
        <time>2021-02-16T13:22:36Z</time>
      </trkpt>
      <trkpt lat="44.82026" lon="6.94383">
        <ele>1766.4</ele>
        <time>2021-02-16T13:22:42Z</time>
      </trkpt>
      <trkpt lat="44.8202" lon="6.94379">
        <ele>1768.4</ele>
        <time>2021-02-16T13:22:47Z</time>
      </trkpt>
      <trkpt lat="44.82015" lon="6.94376">
        <ele>1765.8</ele>
        <time>2021-02-16T13:22:50Z</time>
      </trkpt>
      <trkpt lat="44.8201" lon="6.94374">
        <ele>1767.2</ele>
        <time>2021-02-16T13:22:54Z</time>
      </trkpt>
      <trkpt lat="44.82006" lon="6.94372">
        <ele>1765</ele>
        <time>2021-02-16T13:22:59Z</time>
      </trkpt>
      <trkpt lat="44.82002" lon="6.94369">
        <ele>1766</ele>
        <time>2021-02-16T13:23:03Z</time>
      </trkpt>
      <trkpt lat="44.81997" lon="6.94371">
        <ele>1763</ele>
        <time>2021-02-16T13:23:14Z</time>
      </trkpt>
      <trkpt lat="44.81993" lon="6.94366">
        <ele>1762.2</ele>
        <time>2021-02-16T13:23:22Z</time>
      </trkpt>
      <trkpt lat="44.81992" lon="6.94361">
        <ele>1764</ele>
        <time>2021-02-16T13:23:30Z</time>
      </trkpt>
      <trkpt lat="44.81988" lon="6.94356">
        <ele>1760.4</ele>
        <time>2021-02-16T13:23:35Z</time>
      </trkpt>
      <trkpt lat="44.81985" lon="6.9435">
        <ele>1761.2</ele>
        <time>2021-02-16T13:23:47Z</time>
      </trkpt>
      <trkpt lat="44.81979" lon="6.9435">
        <ele>1762.4</ele>
        <time>2021-02-16T13:23:57Z</time>
      </trkpt>
      <trkpt lat="44.81974" lon="6.94349">
        <ele>1759.8</ele>
        <time>2021-02-16T13:23:59Z</time>
      </trkpt>
      <trkpt lat="44.81969" lon="6.94348">
        <ele>1760.8</ele>
        <time>2021-02-16T13:24:02Z</time>
      </trkpt>
      <trkpt lat="44.81965" lon="6.9435">
        <ele>1757.6</ele>
        <time>2021-02-16T13:24:05Z</time>
      </trkpt>
      <trkpt lat="44.81961" lon="6.94352">
        <ele>1758.2</ele>
        <time>2021-02-16T13:24:12Z</time>
      </trkpt>
      <trkpt lat="44.81959" lon="6.94351">
        <ele>1754.4</ele>
        <time>2021-02-16T13:24:14Z</time>
      </trkpt>
      <trkpt lat="44.81954" lon="6.9435">
        <ele>1756</ele>
        <time>2021-02-16T13:24:19Z</time>
      </trkpt>
      <trkpt lat="44.8195" lon="6.94349">
        <ele>1753</ele>
        <time>2021-02-16T13:24:22Z</time>
      </trkpt>
      <trkpt lat="44.81945" lon="6.94347">
        <ele>1752.2</ele>
        <time>2021-02-16T13:24:26Z</time>
      </trkpt>
      <trkpt lat="44.8194" lon="6.94347">
        <ele>1751.8</ele>
        <time>2021-02-16T13:24:32Z</time>
      </trkpt>
      <trkpt lat="44.81935" lon="6.94348">
        <ele>1753.8</ele>
        <time>2021-02-16T13:24:38Z</time>
      </trkpt>
      <trkpt lat="44.81932" lon="6.94349">
        <ele>1750.6</ele>
        <time>2021-02-16T13:24:43Z</time>
      </trkpt>
      <trkpt lat="44.81927" lon="6.94348">
        <ele>1749</ele>
        <time>2021-02-16T13:24:48Z</time>
      </trkpt>
      <trkpt lat="44.81922" lon="6.94348">
        <ele>1749.6</ele>
        <time>2021-02-16T13:24:52Z</time>
      </trkpt>
      <trkpt lat="44.81918" lon="6.94346">
        <ele>1748.8</ele>
        <time>2021-02-16T13:24:56Z</time>
      </trkpt>
      <trkpt lat="44.81914" lon="6.94348">
        <ele>1749.4</ele>
        <time>2021-02-16T13:25:00Z</time>
      </trkpt>
      <trkpt lat="44.81908" lon="6.94347">
        <ele>1748.8</ele>
        <time>2021-02-16T13:25:05Z</time>
      </trkpt>
      <trkpt lat="44.81905" lon="6.94341">
        <ele>1746.4</ele>
        <time>2021-02-16T13:25:08Z</time>
      </trkpt>
      <trkpt lat="44.81905" lon="6.94336">
        <ele>1748.4</ele>
        <time>2021-02-16T13:25:12Z</time>
      </trkpt>
      <trkpt lat="44.81905" lon="6.94329">
        <ele>1748</ele>
        <time>2021-02-16T13:25:17Z</time>
      </trkpt>
      <trkpt lat="44.81909" lon="6.94323">
        <ele>1748.2</ele>
        <time>2021-02-16T13:25:22Z</time>
      </trkpt>
      <trkpt lat="44.81912" lon="6.94318">
        <ele>1747.2</ele>
        <time>2021-02-16T13:25:25Z</time>
      </trkpt>
      <trkpt lat="44.81915" lon="6.94312">
        <ele>1747.4</ele>
        <time>2021-02-16T13:25:31Z</time>
      </trkpt>
      <trkpt lat="44.8191" lon="6.94309">
        <ele>1743.4</ele>
        <time>2021-02-16T13:25:38Z</time>
      </trkpt>
      <trkpt lat="44.81906" lon="6.94309">
        <ele>1742.2</ele>
        <time>2021-02-16T13:25:43Z</time>
      </trkpt>
      <trkpt lat="44.81904" lon="6.94311">
        <ele>1737.4</ele>
        <time>2021-02-16T13:26:20Z</time>
      </trkpt>
    </trkseg>
  </trk>
</gpx>